Time,TemperatureF,DewpointF,PressureIn,WindDirection,WindDirectionDegrees,WindSpeedMPH,WindSpeedGustMPH,Humidity,HourlyPrecipIn,Conditions,Clouds,dailyrainin,SolarRadiationWatts/m^2,SoftwareType,DateUTC
2013-03-13 00:00:00,52.4,52.4,29.71,East,100,0.0,0.0,100,0.00,,,-99.99,1.0,HOBO +U30 +Weather +,2013-03-13 04:00:00,
2013-03-13 00:01:00,52.4,52.4,29.72,East,100,0.0,0.0,100,0.00,,,-99.99,1.0,HOBO +U30 +Weather +,2013-03-13 04:01:00,
2013-03-13 00:02:00,52.5,52.5,29.71,East,100,0.0,0.0,100,0.00,,,-99.99,1.0,HOBO +U30 +Weather +,2013-03-13 04:02:00,
2013-03-13 00:03:00,52.6,52.6,29.71,East,100,0.0,0.0,100,0.00,,,-99.99,1.0,HOBO +U30 +Weather +,2013-03-13 04:03:00,
2013-03-13 00:04:00,52.6,52.7,29.72,East,100,0.0,0.0,100,0.00,,,-99.99,1.0,HOBO +U30 +Weather +,2013-03-13 04:04:00,
2013-03-13 00:05:00,52.6,52.7,29.71,East,100,0.0,0.0,100,0.00,,,-99.99,1.0,HOBO +U30 +Weather +,2013-03-13 04:05:00,
2013-03-13 00:06:00,52.7,52.7,29.71,East,100,0.0,0.0,100,0.00,,,-99.99,1.0,HOBO +U30 +Weather +,2013-03-13 04:06:00,
2013-03-13 00:07:00,52.7,52.8,29.71,East,100,0.0,0.0,100,0.00,,,-99.99,1.0,HOBO +U30 +Weather +,2013-03-13 04:07:00,
2013-03-13 00:08:00,52.8,52.8,29.71,East,100,0.0,0.0,100,0.00,,,-99.99,1.0,HOBO +U30 +Weather +,2013-03-13 04:08:00,
2013-03-13 00:09:00,52.9,52.9,29.71,East,100,0.0,0.0,100,0.00,,,-99.99,1.0,HOBO +U30 +Weather +,2013-03-13 04:09:00,
2013-03-13 00:10:00,53.0,53.0,29.71,East,100,0.0,0.0,100,0.00,,,-99.99,1.0,HOBO +U30 +Weather +,2013-03-13 04:10:00,
2013-03-13 00:11:00,53.0,53.0,29.70,East,100,0.0,0.0,100,0.00,,,-99.99,1.0,HOBO +U30 +Weather +,2013-03-13 04:11:00,
2013-03-13 00:12:00,53.0,53.0,29.71,East,100,0.0,0.0,100,0.00,,,-99.99,1.0,HOBO +U30 +Weather +,2013-03-13 04:12:00,
2013-03-13 00:13:00,53.0,53.1,29.70,East,100,0.0,0.0,100,0.00,,,-99.99,1.0,HOBO +U30 +Weather +,2013-03-13 04:13:00,
2013-03-13 00:14:00,53.1,53.1,29.70,East,100,0.0,0.0,100,0.00,,,-99.99,1.0,HOBO +U30 +Weather +,2013-03-13 04:14:00,
2013-03-13 00:15:00,53.1,53.1,29.71,East,100,0.0,0.0,100,0.00,,,-99.99,1.0,HOBO +U30 +Weather +,2013-03-13 04:15:00,
2013-03-13 00:16:00,53.1,53.1,29.70,East,100,0.0,0.0,100,0.00,,,-99.99,1.0,HOBO +U30 +Weather +,2013-03-13 04:16:00,
2013-03-13 00:17:00,53.1,53.1,29.70,East,100,0.0,0.0,100,0.00,,,-99.99,1.0,HOBO +U30 +Weather +,2013-03-13 04:17:00,
2013-03-13 00:18:00,53.1,53.1,29.71,East,100,0.0,0.0,100,0.00,,,-99.99,1.0,HOBO +U30 +Weather +,2013-03-13 04:18:00,
2013-03-13 00:19:00,53.2,53.2,29.70,East,100,0.0,0.0,100,0.00,,,-99.99,1.0,HOBO +U30 +Weather +,2013-03-13 04:19:00,
2013-03-13 00:20:00,53.2,53.2,29.70,East,100,0.0,0.0,100,0.00,,,-99.99,1.0,HOBO +U30 +Weather +,2013-03-13 04:20:00,
2013-03-13 00:21:00,53.2,53.2,29.70,East,100,0.0,0.0,100,0.00,,,-99.99,1.0,HOBO +U30 +Weather +,2013-03-13 04:21:00,
2013-03-13 00:22:00,53.2,53.2,29.70,East,100,0.0,0.0,100,0.00,,,-99.99,1.0,HOBO +U30 +Weather +,2013-03-13 04:22:00,
2013-03-13 00:23:00,53.1,53.1,29.70,East,100,0.0,0.0,100,0.00,,,-99.99,1.0,HOBO +U30 +Weather +,2013-03-13 04:23:00,
2013-03-13 00:24:00,53.1,53.1,29.70,East,100,0.0,0.0,100,0.00,,,-99.99,1.0,HOBO +U30 +Weather +,2013-03-13 04:24:00,
2013-03-13 00:25:00,53.1,53.1,29.70,East,100,0.0,0.0,100,0.00,,,-99.99,1.0,HOBO +U30 +Weather +,2013-03-13 04:25:00,
2013-03-13 00:26:00,53.1,53.1,29.70,East,100,0.0,0.0,100,0.00,,,-99.99,1.0,HOBO +U30 +Weather +,2013-03-13 04:26:00,
2013-03-13 00:27:00,53.1,53.1,29.70,East,100,0.0,0.0,100,0.00,,,-99.99,1.0,HOBO +U30 +Weather +,2013-03-13 04:27:00,
2013-03-13 00:28:00,53.0,53.1,29.71,East,100,0.0,0.0,100,0.00,,,-99.99,1.0,HOBO +U30 +Weather +,2013-03-13 04:28:00,
2013-03-13 00:29:00,53.0,53.0,29.70,East,100,0.0,0.0,100,0.00,,,-99.99,1.0,HOBO +U30 +Weather +,2013-03-13 04:29:00,
2013-03-13 00:30:00,53.0,53.0,29.70,East,100,0.0,0.0,100,0.00,,,-99.99,1.0,HOBO +U30 +Weather +,2013-03-13 04:30:00,
2013-03-13 00:31:00,53.0,53.0,29.70,East,100,0.0,0.0,100,0.00,,,-99.99,1.0,HOBO +U30 +Weather +,2013-03-13 04:31:00,
2013-03-13 00:32:00,52.9,52.9,29.70,East,100,0.0,0.0,100,0.00,,,-99.99,1.0,HOBO +U30 +Weather +,2013-03-13 04:32:00,
2013-03-13 00:33:00,52.9,52.9,29.70,East,100,0.0,0.0,100,0.00,,,-99.99,1.0,HOBO +U30 +Weather +,2013-03-13 04:33:00,
2013-03-13 00:34:00,52.8,52.8,29.70,East,100,0.0,0.0,100,0.00,,,-99.99,1.0,HOBO +U30 +Weather +,2013-03-13 04:34:00,
2013-03-13 00:35:00,52.7,52.8,29.70,East,100,0.0,0.0,100,0.00,,,-99.99,1.0,HOBO +U30 +Weather +,2013-03-13 04:35:00,
2013-03-13 00:36:00,52.7,52.7,29.70,East,100,0.0,0.0,100,0.00,,,-99.99,1.0,HOBO +U30 +Weather +,2013-03-13 04:36:00,
2013-03-13 00:37:00,52.6,52.6,29.70,East,100,0.0,0.0,100,0.00,,,-99.99,1.0,HOBO +U30 +Weather +,2013-03-13 04:37:00,
2013-03-13 00:38:00,52.5,52.5,29.70,East,100,0.0,0.0,100,0.00,,,-99.99,1.0,HOBO +U30 +Weather +,2013-03-13 04:38:00,
2013-03-13 00:39:00,52.5,52.5,29.70,East,100,0.0,0.0,100,0.00,,,-99.99,1.0,HOBO +U30 +Weather +,2013-03-13 04:39:00,
2013-03-13 00:40:00,52.4,52.4,29.70,East,100,0.0,0.0,100,0.00,,,-99.99,1.0,HOBO +U30 +Weather +,2013-03-13 04:40:00,
2013-03-13 00:41:00,52.3,52.3,29.70,East,100,0.0,0.0,100,0.00,,,-99.99,1.0,HOBO +U30 +Weather +,2013-03-13 04:41:00,
2013-03-13 00:42:00,52.2,52.2,29.70,East,100,0.0,0.0,100,0.00,,,-99.99,1.0,HOBO +U30 +Weather +,2013-03-13 04:42:00,
2013-03-13 00:43:00,52.2,52.2,29.70,East,100,0.0,0.0,100,0.00,,,-99.99,1.0,HOBO +U30 +Weather +,2013-03-13 04:43:00,
2013-03-13 00:44:00,52.0,52.1,29.70,East,100,0.0,0.0,100,0.00,,,-99.99,1.0,HOBO +U30 +Weather +,2013-03-13 04:44:00,
2013-03-13 00:45:00,52.0,52.0,29.70,East,100,0.0,0.0,100,0.00,,,-99.99,1.0,HOBO +U30 +Weather +,2013-03-13 04:45:00,
2013-03-13 00:46:00,51.9,51.9,29.70,East,100,0.0,0.0,100,0.00,,,-99.99,1.0,HOBO +U30 +Weather +,2013-03-13 04:46:00,
2013-03-13 00:47:00,51.8,51.8,29.70,East,100,0.0,0.0,100,0.00,,,-99.99,1.0,HOBO +U30 +Weather +,2013-03-13 04:47:00,
2013-03-13 00:48:00,51.7,51.7,29.70,East,100,0.0,0.0,100,0.00,,,-99.99,1.0,HOBO +U30 +Weather +,2013-03-13 04:48:00,
2013-03-13 00:49:00,51.7,51.7,29.70,East,100,0.0,0.0,100,0.00,,,-99.99,1.0,HOBO +U30 +Weather +,2013-03-13 04:49:00,
2013-03-13 00:50:00,51.6,51.6,29.70,East,100,0.0,0.0,100,0.00,,,-99.99,1.0,HOBO +U30 +Weather +,2013-03-13 04:50:00,
2013-03-13 00:51:00,51.5,51.5,29.70,East,100,0.0,0.0,100,0.00,,,-99.99,1.0,HOBO +U30 +Weather +,2013-03-13 04:51:00,
2013-03-13 00:52:00,51.4,51.4,29.70,East,100,0.0,0.0,100,0.00,,,-99.99,1.0,HOBO +U30 +Weather +,2013-03-13 04:52:00,
2013-03-13 00:53:00,51.3,51.3,29.70,East,100,0.0,0.0,100,0.00,,,-99.99,1.0,HOBO +U30 +Weather +,2013-03-13 04:53:00,
2013-03-13 00:54:00,51.2,51.2,29.70,East,100,0.0,0.0,100,0.00,,,-99.99,1.0,HOBO +U30 +Weather +,2013-03-13 04:54:00,
2013-03-13 00:55:00,51.1,51.1,29.70,East,100,0.0,0.0,100,0.00,,,-99.99,1.0,HOBO +U30 +Weather +,2013-03-13 04:55:00,
2013-03-13 00:56:00,51.0,51.0,29.70,East,100,0.0,0.0,100,0.00,,,-99.99,1.0,HOBO +U30 +Weather +,2013-03-13 04:56:00,
2013-03-13 00:57:00,50.9,50.9,29.70,East,100,0.0,0.0,100,0.00,,,-99.99,1.0,HOBO +U30 +Weather +,2013-03-13 04:57:00,
2013-03-13 00:58:00,50.8,50.8,29.70,East,100,0.0,0.0,100,0.00,,,-99.99,1.0,HOBO +U30 +Weather +,2013-03-13 04:58:00,
2013-03-13 00:59:00,50.7,50.7,29.70,East,100,0.0,0.0,100,0.00,,,-99.99,1.0,HOBO +U30 +Weather +,2013-03-13 04:59:00,
2013-03-13 01:00:00,50.5,50.6,29.70,East,100,0.0,0.0,100,0.00,,,-99.99,1.0,HOBO +U30 +Weather +,2013-03-13 05:00:00,
2013-03-13 01:01:00,50.4,50.4,29.70,East,100,0.0,0.0,100,0.00,,,-99.99,1.0,HOBO +U30 +Weather +,2013-03-13 05:01:00,
2013-03-13 01:02:00,50.3,50.3,29.70,East,100,0.0,0.0,100,0.00,,,-99.99,1.0,HOBO +U30 +Weather +,2013-03-13 05:02:00,
2013-03-13 01:03:00,50.2,50.2,29.70,East,100,0.0,0.0,100,0.00,,,-99.99,1.0,HOBO +U30 +Weather +,2013-03-13 05:03:00,
2013-03-13 01:04:00,50.1,50.1,29.70,East,100,0.0,0.0,100,0.00,,,-99.99,1.0,HOBO +U30 +Weather +,2013-03-13 05:04:00,
2013-03-13 01:05:00,50.0,50.0,29.70,East,100,0.0,0.0,100,0.00,,,-99.99,1.0,HOBO +U30 +Weather +,2013-03-13 05:05:00,
2013-03-13 01:06:00,49.9,49.9,29.70,East,100,0.0,0.0,100,0.00,,,-99.99,1.0,HOBO +U30 +Weather +,2013-03-13 05:06:00,
2013-03-13 01:07:00,49.9,49.9,29.70,East,100,0.0,0.0,100,0.00,,,-99.99,1.0,HOBO +U30 +Weather +,2013-03-13 05:07:00,
2013-03-13 01:08:00,49.8,49.8,29.69,East,100,0.0,0.0,100,0.00,,,-99.99,1.0,HOBO +U30 +Weather +,2013-03-13 05:08:00,
2013-03-13 01:09:00,49.7,49.7,29.69,East,100,0.0,0.0,100,0.00,,,-99.99,1.0,HOBO +U30 +Weather +,2013-03-13 05:09:00,
2013-03-13 01:10:00,49.6,49.6,29.70,East,100,0.0,0.0,100,0.00,,,-99.99,1.0,HOBO +U30 +Weather +,2013-03-13 05:10:00,
2013-03-13 01:11:00,49.5,49.5,29.69,East,100,0.0,0.0,100,0.00,,,-99.99,1.0,HOBO +U30 +Weather +,2013-03-13 05:11:00,
2013-03-13 01:12:00,49.4,49.4,29.69,East,100,0.0,0.0,100,0.00,,,-99.99,1.0,HOBO +U30 +Weather +,2013-03-13 05:12:00,
2013-03-13 01:13:00,49.4,49.4,29.70,East,100,0.0,0.0,100,0.00,,,-99.99,1.0,HOBO +U30 +Weather +,2013-03-13 05:13:00,
2013-03-13 01:14:00,49.3,49.4,29.70,East,100,0.0,0.0,100,0.00,,,-99.99,1.0,HOBO +U30 +Weather +,2013-03-13 05:14:00,
2013-03-13 01:15:00,49.3,49.3,29.69,East,100,0.0,0.0,100,0.00,,,-99.99,1.0,HOBO +U30 +Weather +,2013-03-13 05:15:00,
2013-03-13 01:16:00,49.2,49.3,29.69,East,100,0.0,0.0,100,0.00,,,-99.99,1.0,HOBO +U30 +Weather +,2013-03-13 05:16:00,
2013-03-13 01:17:00,49.2,49.2,29.69,East,100,0.0,0.0,100,0.00,,,-99.99,1.0,HOBO +U30 +Weather +,2013-03-13 05:17:00,
2013-03-13 01:18:00,49.2,49.2,29.69,East,100,0.0,0.0,100,0.00,,,-99.99,1.0,HOBO +U30 +Weather +,2013-03-13 05:18:00,
2013-03-13 01:19:00,49.1,49.1,29.70,East,100,0.0,0.0,100,0.00,,,-99.99,1.0,HOBO +U30 +Weather +,2013-03-13 05:19:00,
2013-03-13 01:20:00,49.1,49.1,29.69,East,100,0.0,0.0,100,0.00,,,-99.99,1.0,HOBO +U30 +Weather +,2013-03-13 05:20:00,
2013-03-13 01:21:00,49.0,49.0,29.69,East,100,0.0,0.0,100,0.00,,,-99.99,1.0,HOBO +U30 +Weather +,2013-03-13 05:21:00,
2013-03-13 01:22:00,49.0,49.0,29.69,East,100,0.0,0.0,100,0.00,,,-99.99,1.0,HOBO +U30 +Weather +,2013-03-13 05:22:00,
2013-03-13 01:23:00,48.9,49.0,29.69,East,100,0.0,0.0,100,0.00,,,-99.99,1.0,HOBO +U30 +Weather +,2013-03-13 05:23:00,
2013-03-13 01:24:00,48.9,49.0,29.69,East,100,0.0,0.0,100,0.00,,,-99.99,1.0,HOBO +U30 +Weather +,2013-03-13 05:24:00,
2013-03-13 01:25:00,48.9,48.9,29.70,East,100,0.0,0.0,100,0.00,,,-99.99,1.0,HOBO +U30 +Weather +,2013-03-13 05:25:00,
2013-03-13 01:26:00,48.9,48.9,29.70,East,100,0.0,0.0,100,0.00,,,-99.99,1.0,HOBO +U30 +Weather +,2013-03-13 05:26:00,
2013-03-13 01:27:00,48.8,48.9,29.69,East,100,0.0,0.0,100,0.00,,,-99.99,1.0,HOBO +U30 +Weather +,2013-03-13 05:27:00,
2013-03-13 01:28:00,48.8,48.9,29.69,East,100,0.0,0.0,100,0.00,,,-99.99,1.0,HOBO +U30 +Weather +,2013-03-13 05:28:00,
2013-03-13 01:29:00,48.8,48.8,29.70,East,100,0.0,0.0,100,0.00,,,-99.99,1.0,HOBO +U30 +Weather +,2013-03-13 05:29:00,
2013-03-13 01:30:00,48.8,48.8,29.69,East,100,0.0,0.0,100,0.00,,,-99.99,1.0,HOBO +U30 +Weather +,2013-03-13 05:30:00,
2013-03-13 01:31:00,48.8,48.8,29.70,East,100,0.0,0.0,100,0.00,,,-99.99,1.0,HOBO +U30 +Weather +,2013-03-13 05:31:00,
2013-03-13 01:32:00,48.8,48.8,29.70,East,100,0.0,0.0,100,0.00,,,-99.99,1.0,HOBO +U30 +Weather +,2013-03-13 05:32:00,
2013-03-13 01:33:00,48.8,48.8,29.70,East,100,0.0,0.0,100,0.00,,,-99.99,1.0,HOBO +U30 +Weather +,2013-03-13 05:33:00,
2013-03-13 01:34:00,48.8,48.8,29.70,East,100,0.0,0.0,100,0.00,,,-99.99,1.0,HOBO +U30 +Weather +,2013-03-13 05:34:00,
2013-03-13 01:35:00,48.8,48.8,29.70,East,100,0.0,0.0,100,0.00,,,-99.99,1.0,HOBO +U30 +Weather +,2013-03-13 05:35:00,
2013-03-13 01:36:00,48.8,48.8,29.69,East,100,0.0,0.0,100,0.00,,,-99.99,1.0,HOBO +U30 +Weather +,2013-03-13 05:36:00,
2013-03-13 01:37:00,48.8,48.8,29.70,East,100,0.0,0.0,100,0.00,,,-99.99,1.0,HOBO +U30 +Weather +,2013-03-13 05:37:00,
2013-03-13 01:38:00,48.7,48.7,29.69,East,100,0.0,0.0,100,0.00,,,-99.99,1.0,HOBO +U30 +Weather +,2013-03-13 05:38:00,
2013-03-13 01:39:00,48.7,48.7,29.70,East,100,0.0,0.0,100,0.00,,,-99.99,1.0,HOBO +U30 +Weather +,2013-03-13 05:39:00,
2013-03-13 01:40:00,48.7,48.7,29.70,East,100,0.0,0.0,100,0.00,,,-99.99,1.0,HOBO +U30 +Weather +,2013-03-13 05:40:00,
2013-03-13 01:41:00,48.7,48.7,29.70,East,100,0.0,0.0,100,0.00,,,-99.99,1.0,HOBO +U30 +Weather +,2013-03-13 05:41:00,
2013-03-13 01:42:00,48.6,48.6,29.71,East,100,0.0,0.0,100,0.00,,,-99.99,1.0,HOBO +U30 +Weather +,2013-03-13 05:42:00,
2013-03-13 01:43:00,48.5,48.6,29.70,East,100,0.0,0.0,100,0.00,,,-99.99,1.0,HOBO +U30 +Weather +,2013-03-13 05:43:00,
2013-03-13 01:44:00,48.5,48.5,29.70,East,100,0.0,0.0,100,0.00,,,-99.99,1.0,HOBO +U30 +Weather +,2013-03-13 05:44:00,
2013-03-13 01:45:00,48.4,48.4,29.70,East,100,0.0,0.0,100,0.00,,,-99.99,1.0,HOBO +U30 +Weather +,2013-03-13 05:45:00,
2013-03-13 01:46:00,48.4,48.4,29.71,East,100,0.0,0.0,100,0.00,,,-99.99,1.0,HOBO +U30 +Weather +,2013-03-13 05:46:00,
2013-03-13 01:47:00,48.3,48.3,29.70,East,100,0.0,0.0,100,0.00,,,-99.99,1.0,HOBO +U30 +Weather +,2013-03-13 05:47:00,
2013-03-13 01:48:00,48.3,48.3,29.70,East,100,0.0,0.0,100,0.00,,,-99.99,1.0,HOBO +U30 +Weather +,2013-03-13 05:48:00,
2013-03-13 01:49:00,48.3,48.3,29.71,East,100,0.0,0.0,100,0.00,,,-99.99,1.0,HOBO +U30 +Weather +,2013-03-13 05:49:00,
2013-03-13 01:50:00,48.2,48.2,29.70,East,100,0.0,0.0,100,0.00,,,-99.99,1.0,HOBO +U30 +Weather +,2013-03-13 05:50:00,
2013-03-13 01:51:00,48.2,48.2,29.70,East,100,0.0,0.0,100,0.00,,,-99.99,1.0,HOBO +U30 +Weather +,2013-03-13 05:51:00,
2013-03-13 01:52:00,48.1,48.2,29.70,East,100,0.0,0.0,100,0.00,,,-99.99,1.0,HOBO +U30 +Weather +,2013-03-13 05:52:00,
2013-03-13 01:53:00,48.1,48.1,29.70,East,100,0.0,0.0,100,0.00,,,-99.99,1.0,HOBO +U30 +Weather +,2013-03-13 05:53:00,
2013-03-13 01:54:00,48.1,48.1,29.71,East,100,0.0,0.0,100,0.00,,,-99.99,1.0,HOBO +U30 +Weather +,2013-03-13 05:54:00,
2013-03-13 01:55:00,48.0,48.0,29.71,East,100,0.0,0.0,100,0.00,,,-99.99,1.0,HOBO +U30 +Weather +,2013-03-13 05:55:00,
2013-03-13 01:56:00,48.0,48.0,29.71,East,100,0.0,0.0,100,0.00,,,-99.99,1.0,HOBO +U30 +Weather +,2013-03-13 05:56:00,
2013-03-13 01:57:00,47.9,47.9,29.71,East,100,0.0,0.0,100,0.00,,,-99.99,1.0,HOBO +U30 +Weather +,2013-03-13 05:57:00,
2013-03-13 01:58:00,47.9,47.9,29.71,East,100,0.0,0.0,100,0.00,,,-99.99,1.0,HOBO +U30 +Weather +,2013-03-13 05:58:00,
2013-03-13 01:59:00,47.9,47.9,29.71,East,100,0.0,0.0,100,0.00,,,-99.99,1.0,HOBO +U30 +Weather +,2013-03-13 05:59:00,
2013-03-13 02:00:00,47.8,47.8,29.71,East,100,0.0,0.0,100,0.00,,,-99.99,1.0,HOBO +U30 +Weather +,2013-03-13 06:00:00,
2013-03-13 02:01:00,47.8,47.8,29.70,East,100,0.0,0.0,100,0.00,,,-99.99,1.0,HOBO +U30 +Weather +,2013-03-13 06:01:00,
2013-03-13 02:02:00,47.8,47.8,29.71,East,100,0.0,0.0,100,0.00,,,-99.99,1.0,HOBO +U30 +Weather +,2013-03-13 06:02:00,
2013-03-13 02:03:00,47.8,47.8,29.71,East,100,0.0,0.0,100,0.00,,,-99.99,1.0,HOBO +U30 +Weather +,2013-03-13 06:03:00,
2013-03-13 02:04:00,47.7,47.8,29.70,East,100,0.0,0.0,100,0.00,,,-99.99,1.0,HOBO +U30 +Weather +,2013-03-13 06:04:00,
2013-03-13 02:05:00,47.7,47.7,29.70,East,100,0.0,0.0,100,0.00,,,-99.99,1.0,HOBO +U30 +Weather +,2013-03-13 06:05:00,
2013-03-13 02:06:00,47.6,47.7,29.71,East,100,0.0,0.0,100,0.00,,,-99.99,1.0,HOBO +U30 +Weather +,2013-03-13 06:06:00,
2013-03-13 02:07:00,47.6,47.6,29.70,East,100,0.0,0.0,100,0.00,,,-99.99,1.0,HOBO +U30 +Weather +,2013-03-13 06:07:00,
2013-03-13 02:08:00,47.5,47.5,29.70,East,100,0.0,0.0,100,0.00,,,-99.99,1.0,HOBO +U30 +Weather +,2013-03-13 06:08:00,
2013-03-13 02:09:00,47.4,47.4,29.70,East,100,0.0,0.0,100,0.00,,,-99.99,1.0,HOBO +U30 +Weather +,2013-03-13 06:09:00,
2013-03-13 02:10:00,47.3,47.3,29.70,East,100,0.0,0.0,100,0.00,,,-99.99,1.0,HOBO +U30 +Weather +,2013-03-13 06:10:00,
2013-03-13 02:11:00,47.2,47.2,29.70,East,100,0.0,0.0,100,0.00,,,-99.99,1.0,HOBO +U30 +Weather +,2013-03-13 06:11:00,
2013-03-13 02:12:00,47.2,47.2,29.70,East,100,0.0,0.0,100,0.00,,,-99.99,1.0,HOBO +U30 +Weather +,2013-03-13 06:12:00,
2013-03-13 02:13:00,47.2,47.2,29.70,East,100,0.0,0.0,100,0.00,,,-99.99,1.0,HOBO +U30 +Weather +,2013-03-13 06:13:00,
2013-03-13 02:14:00,47.1,47.1,29.69,East,100,0.0,0.0,100,0.00,,,-99.99,1.0,HOBO +U30 +Weather +,2013-03-13 06:14:00,
2013-03-13 02:15:00,47.1,47.1,29.70,East,100,0.0,0.0,100,0.00,,,-99.99,1.0,HOBO +U30 +Weather +,2013-03-13 06:15:00,
2013-03-13 02:16:00,47.1,47.1,29.69,East,100,0.0,0.0,100,0.00,,,-99.99,1.0,HOBO +U30 +Weather +,2013-03-13 06:16:00,
2013-03-13 02:17:00,47.1,47.1,29.70,East,100,0.0,0.0,100,0.00,,,-99.99,1.0,HOBO +U30 +Weather +,2013-03-13 06:17:00,
2013-03-13 02:18:00,47.1,47.1,29.69,East,100,0.0,0.0,100,0.00,,,-99.99,1.0,HOBO +U30 +Weather +,2013-03-13 06:18:00,
2013-03-13 02:19:00,47.0,47.0,29.70,East,100,0.0,0.0,100,0.00,,,-99.99,1.0,HOBO +U30 +Weather +,2013-03-13 06:19:00,
2013-03-13 02:20:00,47.0,47.0,29.70,East,100,0.0,0.0,100,0.00,,,-99.99,1.0,HOBO +U30 +Weather +,2013-03-13 06:20:00,
2013-03-13 02:21:00,47.0,47.0,29.69,East,100,0.0,0.0,100,0.00,,,-99.99,1.0,HOBO +U30 +Weather +,2013-03-13 06:21:00,
2013-03-13 02:22:00,47.0,47.0,29.69,East,100,0.0,0.0,100,0.00,,,-99.99,1.0,HOBO +U30 +Weather +,2013-03-13 06:22:00,
2013-03-13 02:23:00,47.0,47.0,29.69,East,100,0.0,0.0,100,0.00,,,-99.99,1.0,HOBO +U30 +Weather +,2013-03-13 06:23:00,
2013-03-13 02:24:00,47.0,47.0,29.69,East,100,0.0,0.0,100,0.00,,,-99.99,1.0,HOBO +U30 +Weather +,2013-03-13 06:24:00,
2013-03-13 02:25:00,47.0,47.0,29.69,East,100,0.0,0.0,100,0.00,,,-99.99,1.0,HOBO +U30 +Weather +,2013-03-13 06:25:00,
2013-03-13 02:26:00,47.0,47.0,29.69,East,100,0.0,0.0,100,0.00,,,-99.99,1.0,HOBO +U30 +Weather +,2013-03-13 06:26:00,
2013-03-13 02:27:00,47.0,47.0,29.69,East,100,0.0,0.0,100,0.00,,,-99.99,1.0,HOBO +U30 +Weather +,2013-03-13 06:27:00,
2013-03-13 02:28:00,47.0,47.0,29.69,East,100,0.0,0.0,100,0.00,,,-99.99,1.0,HOBO +U30 +Weather +,2013-03-13 06:28:00,
2013-03-13 02:29:00,47.0,47.0,29.69,East,100,0.0,0.0,100,0.00,,,-99.99,1.0,HOBO +U30 +Weather +,2013-03-13 06:29:00,
2013-03-13 02:30:00,47.0,47.0,29.69,East,100,0.0,0.0,100,0.00,,,-99.99,1.0,HOBO +U30 +Weather +,2013-03-13 06:30:00,
2013-03-13 02:31:00,47.0,47.0,29.69,East,100,0.0,0.0,100,0.00,,,-99.99,1.0,HOBO +U30 +Weather +,2013-03-13 06:31:00,
2013-03-13 02:32:00,47.0,47.0,29.69,East,100,0.0,0.0,100,0.00,,,-99.99,1.0,HOBO +U30 +Weather +,2013-03-13 06:32:00,
2013-03-13 02:33:00,46.9,46.9,29.69,East,100,0.0,0.0,100,0.00,,,-99.99,1.0,HOBO +U30 +Weather +,2013-03-13 06:33:00,
2013-03-13 02:34:00,46.9,46.9,29.69,East,100,0.0,0.0,100,0.00,,,-99.99,1.0,HOBO +U30 +Weather +,2013-03-13 06:34:00,
2013-03-13 02:35:00,46.9,46.9,29.69,East,100,0.0,0.0,100,0.00,,,-99.99,1.0,HOBO +U30 +Weather +,2013-03-13 06:35:00,
2013-03-13 02:36:00,46.9,46.9,29.69,East,100,0.0,0.0,100,0.00,,,-99.99,1.0,HOBO +U30 +Weather +,2013-03-13 06:36:00,
2013-03-13 02:37:00,46.9,46.9,29.69,East,100,0.0,0.0,100,0.00,,,-99.99,1.0,HOBO +U30 +Weather +,2013-03-13 06:37:00,
2013-03-13 02:38:00,46.8,46.8,29.68,East,100,0.0,0.0,100,0.00,,,-99.99,1.0,HOBO +U30 +Weather +,2013-03-13 06:38:00,
2013-03-13 02:39:00,46.8,46.8,29.69,East,100,0.0,0.0,100,0.00,,,-99.99,1.0,HOBO +U30 +Weather +,2013-03-13 06:39:00,
2013-03-13 02:40:00,46.8,46.8,29.69,East,100,0.0,0.0,100,0.00,,,-99.99,1.0,HOBO +U30 +Weather +,2013-03-13 06:40:00,
2013-03-13 02:41:00,46.8,46.8,29.69,East,100,0.0,0.0,100,0.00,,,-99.99,1.0,HOBO +U30 +Weather +,2013-03-13 06:41:00,
2013-03-13 02:42:00,46.8,46.8,29.69,East,100,0.0,0.0,100,0.00,,,-99.99,1.0,HOBO +U30 +Weather +,2013-03-13 06:42:00,
2013-03-13 02:43:00,46.8,46.8,29.69,East,100,0.0,0.0,100,0.00,,,-99.99,1.0,HOBO +U30 +Weather +,2013-03-13 06:43:00,
2013-03-13 02:44:00,46.7,46.8,29.69,East,100,0.0,0.0,100,0.00,,,-99.99,1.0,HOBO +U30 +Weather +,2013-03-13 06:44:00,
2013-03-13 02:45:00,46.7,46.8,29.70,East,100,0.0,0.0,100,0.00,,,-99.99,1.0,HOBO +U30 +Weather +,2013-03-13 06:45:00,
2013-03-13 02:46:00,46.7,46.7,29.70,East,100,0.0,0.0,100,0.00,,,-99.99,1.0,HOBO +U30 +Weather +,2013-03-13 06:46:00,
2013-03-13 02:47:00,46.7,46.7,29.69,East,100,0.0,0.0,100,0.00,,,-99.99,1.0,HOBO +U30 +Weather +,2013-03-13 06:47:00,
2013-03-13 02:48:00,46.6,46.6,29.69,East,100,0.0,0.0,100,0.00,,,-99.99,1.0,HOBO +U30 +Weather +,2013-03-13 06:48:00,
2013-03-13 02:49:00,46.6,46.6,29.70,East,100,0.0,0.0,100,0.00,,,-99.99,1.0,HOBO +U30 +Weather +,2013-03-13 06:49:00,
2013-03-13 02:50:00,46.4,46.5,29.70,East,100,0.0,0.0,100,0.00,,,-99.99,1.0,HOBO +U30 +Weather +,2013-03-13 06:50:00,
2013-03-13 02:51:00,46.4,46.4,29.70,East,100,0.0,0.0,100,0.00,,,-99.99,1.0,HOBO +U30 +Weather +,2013-03-13 06:51:00,
2013-03-13 02:52:00,46.3,46.4,29.70,East,100,0.0,0.0,100,0.00,,,-99.99,1.0,HOBO +U30 +Weather +,2013-03-13 06:52:00,
2013-03-13 02:53:00,46.3,46.3,29.69,East,100,0.0,0.0,100,0.00,,,-99.99,1.0,HOBO +U30 +Weather +,2013-03-13 06:53:00,
2013-03-13 02:54:00,46.3,46.3,29.69,East,100,0.0,0.0,100,0.00,,,-99.99,1.0,HOBO +U30 +Weather +,2013-03-13 06:54:00,
2013-03-13 02:55:00,46.2,46.2,29.69,East,100,0.0,0.0,100,0.00,,,-99.99,1.0,HOBO +U30 +Weather +,2013-03-13 06:55:00,
2013-03-13 02:56:00,46.2,46.2,29.69,East,100,0.0,0.0,100,0.00,,,-99.99,1.0,HOBO +U30 +Weather +,2013-03-13 06:56:00,
2013-03-13 02:57:00,46.2,46.2,29.69,East,100,0.0,0.0,100,0.00,,,-99.99,1.0,HOBO +U30 +Weather +,2013-03-13 06:57:00,
2013-03-13 02:58:00,46.1,46.1,29.69,East,100,0.0,0.0,100,0.00,,,-99.99,1.0,HOBO +U30 +Weather +,2013-03-13 06:58:00,
2013-03-13 02:59:00,46.1,46.1,29.69,East,100,0.0,0.0,100,0.00,,,-99.99,1.0,HOBO +U30 +Weather +,2013-03-13 06:59:00,
2013-03-13 03:00:00,46.1,46.1,29.69,East,100,0.0,0.0,100,0.00,,,-99.99,1.0,HOBO +U30 +Weather +,2013-03-13 07:00:00,
2013-03-13 03:01:00,46.1,46.1,29.69,East,100,0.0,0.0,100,0.00,,,-99.99,1.0,HOBO +U30 +Weather +,2013-03-13 07:01:00,
2013-03-13 03:02:00,46.1,46.1,29.69,East,100,0.0,0.0,100,0.00,,,-99.99,1.0,HOBO +U30 +Weather +,2013-03-13 07:02:00,
2013-03-13 03:03:00,46.0,46.0,29.69,East,100,0.0,0.0,100,0.00,,,-99.99,1.0,HOBO +U30 +Weather +,2013-03-13 07:03:00,
2013-03-13 03:04:00,46.0,46.0,29.69,East,100,0.0,0.0,100,0.00,,,-99.99,1.0,HOBO +U30 +Weather +,2013-03-13 07:04:00,
2013-03-13 03:05:00,46.0,46.0,29.69,East,100,0.0,0.0,100,0.00,,,-99.99,1.0,HOBO +U30 +Weather +,2013-03-13 07:05:00,
2013-03-13 03:06:00,46.0,46.0,29.69,East,100,0.0,0.0,100,0.00,,,-99.99,1.0,HOBO +U30 +Weather +,2013-03-13 07:06:00,
2013-03-13 03:07:00,45.9,46.0,29.68,East,100,0.0,0.0,100,0.00,,,-99.99,1.0,HOBO +U30 +Weather +,2013-03-13 07:07:00,
2013-03-13 03:08:00,45.8,45.8,29.68,East,100,0.0,0.0,100,0.00,,,-99.99,1.0,HOBO +U30 +Weather +,2013-03-13 07:08:00,
2013-03-13 03:09:00,45.8,45.8,29.68,East,100,0.0,0.0,100,0.00,,,-99.99,1.0,HOBO +U30 +Weather +,2013-03-13 07:09:00,
2013-03-13 03:10:00,45.7,45.7,29.68,East,100,0.0,0.0,100,0.00,,,-99.99,1.0,HOBO +U30 +Weather +,2013-03-13 07:10:00,
2013-03-13 03:11:00,45.6,45.6,29.68,East,100,0.0,0.0,100,0.00,,,-99.99,1.0,HOBO +U30 +Weather +,2013-03-13 07:11:00,
2013-03-13 03:12:00,45.6,45.6,29.68,East,100,0.0,0.0,100,0.00,,,-99.99,1.0,HOBO +U30 +Weather +,2013-03-13 07:12:00,
2013-03-13 03:13:00,45.4,45.5,29.68,East,100,0.0,0.0,100,0.00,,,-99.99,1.0,HOBO +U30 +Weather +,2013-03-13 07:13:00,
2013-03-13 03:14:00,45.4,45.4,29.69,East,100,0.0,0.0,100,0.00,,,-99.99,1.0,HOBO +U30 +Weather +,2013-03-13 07:14:00,
2013-03-13 03:15:00,45.4,45.4,29.68,East,100,0.0,0.0,100,0.00,,,-99.99,1.0,HOBO +U30 +Weather +,2013-03-13 07:15:00,
2013-03-13 03:16:00,45.4,45.4,29.68,East,100,0.0,0.0,100,0.00,,,-99.99,1.0,HOBO +U30 +Weather +,2013-03-13 07:16:00,
2013-03-13 03:17:00,45.4,45.4,29.68,East,100,0.0,0.0,100,0.00,,,-99.99,1.0,HOBO +U30 +Weather +,2013-03-13 07:17:00,
2013-03-13 03:18:00,45.3,45.3,29.68,East,100,0.0,0.0,100,0.00,,,-99.99,1.0,HOBO +U30 +Weather +,2013-03-13 07:18:00,
2013-03-13 03:19:00,45.3,45.3,29.68,East,100,0.0,0.0,100,0.00,,,-99.99,1.0,HOBO +U30 +Weather +,2013-03-13 07:19:00,
2013-03-13 03:20:00,45.3,45.3,29.68,East,100,0.0,0.0,100,0.00,,,-99.99,1.0,HOBO +U30 +Weather +,2013-03-13 07:20:00,
2013-03-13 03:21:00,45.3,45.3,29.69,East,100,0.0,0.0,100,0.00,,,-99.99,1.0,HOBO +U30 +Weather +,2013-03-13 07:21:00,
2013-03-13 03:22:00,45.3,45.3,29.69,East,100,0.0,0.0,100,0.00,,,-99.99,1.0,HOBO +U30 +Weather +,2013-03-13 07:22:00,
2013-03-13 03:23:00,45.3,45.3,29.68,East,100,0.0,0.0,100,0.00,,,-99.99,1.0,HOBO +U30 +Weather +,2013-03-13 07:23:00,
2013-03-13 03:24:00,45.3,45.3,29.68,East,100,0.0,0.0,100,0.00,,,-99.99,1.0,HOBO +U30 +Weather +,2013-03-13 07:24:00,
2013-03-13 03:25:00,45.3,45.3,29.69,East,100,0.0,0.0,100,0.00,,,-99.99,1.0,HOBO +U30 +Weather +,2013-03-13 07:25:00,
2013-03-13 03:26:00,45.2,45.2,29.69,East,100,0.0,0.0,100,0.00,,,-99.99,1.0,HOBO +U30 +Weather +,2013-03-13 07:26:00,
2013-03-13 03:27:00,45.2,45.2,29.69,East,100,0.0,0.0,100,0.00,,,-99.99,1.0,HOBO +U30 +Weather +,2013-03-13 07:27:00,
2013-03-13 03:28:00,45.2,45.2,29.69,East,100,0.0,0.0,100,0.00,,,-99.99,1.0,HOBO +U30 +Weather +,2013-03-13 07:28:00,
2013-03-13 03:29:00,45.2,45.2,29.69,East,100,0.0,0.0,100,0.00,,,-99.99,1.0,HOBO +U30 +Weather +,2013-03-13 07:29:00,
2013-03-13 03:30:00,45.2,45.2,29.69,East,100,0.0,0.0,100,0.00,,,-99.99,1.0,HOBO +U30 +Weather +,2013-03-13 07:30:00,
2013-03-13 03:31:00,45.1,45.1,29.69,East,100,0.0,0.0,100,0.00,,,-99.99,1.0,HOBO +U30 +Weather +,2013-03-13 07:31:00,
2013-03-13 03:32:00,45.1,45.1,29.69,East,100,0.0,0.0,100,0.00,,,-99.99,1.0,HOBO +U30 +Weather +,2013-03-13 07:32:00,
2013-03-13 03:33:00,45.1,45.1,29.69,East,100,0.0,0.0,100,0.00,,,-99.99,1.0,HOBO +U30 +Weather +,2013-03-13 07:33:00,
2013-03-13 03:34:00,45.1,45.1,29.69,East,100,0.0,0.0,100,0.00,,,-99.99,1.0,HOBO +U30 +Weather +,2013-03-13 07:34:00,
2013-03-13 03:35:00,45.1,45.1,29.69,East,100,0.0,0.0,100,0.00,,,-99.99,1.0,HOBO +U30 +Weather +,2013-03-13 07:35:00,
2013-03-13 03:36:00,45.0,45.0,29.69,East,100,0.0,0.0,100,0.00,,,-99.99,1.0,HOBO +U30 +Weather +,2013-03-13 07:36:00,
2013-03-13 03:37:00,45.0,45.0,29.69,East,100,0.0,0.0,100,0.00,,,-99.99,1.0,HOBO +U30 +Weather +,2013-03-13 07:37:00,
2013-03-13 03:38:00,45.0,45.0,29.69,East,100,0.0,0.0,100,0.00,,,-99.99,1.0,HOBO +U30 +Weather +,2013-03-13 07:38:00,
2013-03-13 03:39:00,45.1,45.1,29.69,East,100,0.0,0.0,100,0.00,,,-99.99,1.0,HOBO +U30 +Weather +,2013-03-13 07:39:00,
2013-03-13 03:40:00,45.1,45.1,29.69,East,100,0.0,0.0,100,0.00,,,-99.99,1.0,HOBO +U30 +Weather +,2013-03-13 07:40:00,
2013-03-13 03:41:00,45.0,45.0,29.69,East,100,0.0,0.0,100,0.00,,,-99.99,1.0,HOBO +U30 +Weather +,2013-03-13 07:41:00,
2013-03-13 03:42:00,45.0,45.0,29.69,East,100,0.0,0.0,100,0.00,,,-99.99,1.0,HOBO +U30 +Weather +,2013-03-13 07:42:00,
2013-03-13 03:43:00,44.9,45.0,29.68,East,100,0.0,0.0,100,0.00,,,-99.99,1.0,HOBO +U30 +Weather +,2013-03-13 07:43:00,
2013-03-13 03:44:00,44.9,44.9,29.68,East,100,0.0,0.0,100,0.00,,,-99.99,1.0,HOBO +U30 +Weather +,2013-03-13 07:44:00,
2013-03-13 03:45:00,44.8,44.8,29.68,East,100,0.0,0.0,100,0.00,,,-99.99,1.0,HOBO +U30 +Weather +,2013-03-13 07:45:00,
2013-03-13 03:46:00,44.8,44.8,29.68,East,100,0.0,0.0,100,0.00,,,-99.99,1.0,HOBO +U30 +Weather +,2013-03-13 07:46:00,
2013-03-13 03:47:00,44.8,44.8,29.68,East,100,0.0,0.0,100,0.00,,,-99.99,1.0,HOBO +U30 +Weather +,2013-03-13 07:47:00,
2013-03-13 03:48:00,44.8,44.8,29.68,East,100,0.0,0.0,100,0.00,,,-99.99,1.0,HOBO +U30 +Weather +,2013-03-13 07:48:00,
2013-03-13 03:49:00,44.8,44.8,29.68,East,100,0.0,0.0,100,0.00,,,-99.99,1.0,HOBO +U30 +Weather +,2013-03-13 07:49:00,
2013-03-13 03:50:00,44.8,44.8,29.69,East,100,0.0,0.0,100,0.00,,,-99.99,1.0,HOBO +U30 +Weather +,2013-03-13 07:50:00,
2013-03-13 03:51:00,44.8,44.8,29.68,East,100,0.0,0.0,100,0.00,,,-99.99,1.0,HOBO +U30 +Weather +,2013-03-13 07:51:00,
2013-03-13 03:52:00,44.7,44.7,29.68,East,100,0.0,0.0,100,0.00,,,-99.99,1.0,HOBO +U30 +Weather +,2013-03-13 07:52:00,
2013-03-13 03:53:00,44.7,44.7,29.68,East,100,0.0,0.0,100,0.00,,,-99.99,1.0,HOBO +U30 +Weather +,2013-03-13 07:53:00,
2013-03-13 03:54:00,44.8,44.8,29.68,East,100,0.0,0.0,100,0.00,,,-99.99,1.0,HOBO +U30 +Weather +,2013-03-13 07:54:00,
2013-03-13 03:55:00,44.8,44.8,29.68,East,100,0.0,0.0,100,0.00,,,-99.99,1.0,HOBO +U30 +Weather +,2013-03-13 07:55:00,
2013-03-13 03:56:00,44.8,44.8,29.68,East,100,0.0,0.0,100,0.00,,,-99.99,1.0,HOBO +U30 +Weather +,2013-03-13 07:56:00,
2013-03-13 03:57:00,44.8,44.8,29.68,East,100,0.0,0.0,100,0.00,,,-99.99,1.0,HOBO +U30 +Weather +,2013-03-13 07:57:00,
2013-03-13 03:58:00,44.8,44.8,29.68,East,100,0.0,0.0,100,0.00,,,-99.99,1.0,HOBO +U30 +Weather +,2013-03-13 07:58:00,
2013-03-13 03:59:00,44.8,44.8,29.68,East,100,0.0,0.0,100,0.00,,,-99.99,1.0,HOBO +U30 +Weather +,2013-03-13 07:59:00,
2013-03-13 04:00:00,44.8,44.8,29.67,East,100,0.0,0.0,100,0.00,,,-99.99,1.0,HOBO +U30 +Weather +,2013-03-13 08:00:00,
2013-03-13 04:01:00,44.7,44.7,29.67,East,100,0.0,0.0,100,0.00,,,-99.99,1.0,HOBO +U30 +Weather +,2013-03-13 08:01:00,
2013-03-13 04:02:00,44.6,44.7,29.67,East,100,0.0,0.0,100,0.00,,,-99.99,1.0,HOBO +U30 +Weather +,2013-03-13 08:02:00,
2013-03-13 04:03:00,44.7,44.7,29.67,East,100,0.0,0.0,100,0.00,,,-99.99,1.0,HOBO +U30 +Weather +,2013-03-13 08:03:00,
2013-03-13 04:04:00,44.6,44.7,29.67,East,100,0.0,0.0,100,0.00,,,-99.99,1.0,HOBO +U30 +Weather +,2013-03-13 08:04:00,
2013-03-13 04:05:00,44.6,44.6,29.68,East,100,0.0,0.0,100,0.00,,,-99.99,1.0,HOBO +U30 +Weather +,2013-03-13 08:05:00,
2013-03-13 04:06:00,44.6,44.6,29.68,East,100,0.0,0.0,100,0.00,,,-99.99,1.0,HOBO +U30 +Weather +,2013-03-13 08:06:00,
2013-03-13 04:07:00,44.5,44.5,29.68,East,100,0.0,0.0,100,0.00,,,-99.99,1.0,HOBO +U30 +Weather +,2013-03-13 08:07:00,
2013-03-13 04:08:00,44.6,44.6,29.68,East,100,0.0,0.0,100,0.00,,,-99.99,1.0,HOBO +U30 +Weather +,2013-03-13 08:08:00,
2013-03-13 04:09:00,44.5,44.5,29.68,East,100,0.0,0.0,100,0.00,,,-99.99,1.0,HOBO +U30 +Weather +,2013-03-13 08:09:00,
2013-03-13 04:10:00,44.5,44.5,29.68,East,100,0.0,0.0,100,0.00,,,-99.99,1.0,HOBO +U30 +Weather +,2013-03-13 08:10:00,
2013-03-13 04:11:00,44.4,44.5,29.68,East,100,0.0,0.0,100,0.00,,,-99.99,1.0,HOBO +U30 +Weather +,2013-03-13 08:11:00,
2013-03-13 04:12:00,44.4,44.5,29.68,East,100,0.0,0.0,100,0.00,,,-99.99,1.0,HOBO +U30 +Weather +,2013-03-13 08:12:00,
2013-03-13 04:13:00,44.4,44.5,29.68,East,100,0.0,0.0,100,0.00,,,-99.99,1.0,HOBO +U30 +Weather +,2013-03-13 08:13:00,
2013-03-13 04:14:00,44.4,44.4,29.68,East,100,0.0,0.0,100,0.00,,,-99.99,1.0,HOBO +U30 +Weather +,2013-03-13 08:14:00,
2013-03-13 04:15:00,44.3,44.4,29.69,East,100,0.0,0.0,100,0.00,,,-99.99,1.0,HOBO +U30 +Weather +,2013-03-13 08:15:00,
2013-03-13 04:16:00,44.3,44.3,29.68,East,100,0.0,0.0,100,0.00,,,-99.99,1.0,HOBO +U30 +Weather +,2013-03-13 08:16:00,
2013-03-13 04:17:00,44.3,44.3,29.68,East,100,0.0,0.0,100,0.00,,,-99.99,1.0,HOBO +U30 +Weather +,2013-03-13 08:17:00,
2013-03-13 04:18:00,44.2,44.2,29.68,East,100,0.0,0.0,100,0.00,,,-99.99,1.0,HOBO +U30 +Weather +,2013-03-13 08:18:00,
2013-03-13 04:19:00,44.2,44.2,29.67,East,100,0.0,0.0,100,0.00,,,-99.99,1.0,HOBO +U30 +Weather +,2013-03-13 08:19:00,
2013-03-13 04:20:00,44.2,44.2,29.68,East,100,0.0,0.0,100,0.00,,,-99.99,1.0,HOBO +U30 +Weather +,2013-03-13 08:20:00,
2013-03-13 04:21:00,44.2,44.2,29.67,East,100,0.0,0.0,100,0.00,,,-99.99,1.0,HOBO +U30 +Weather +,2013-03-13 08:21:00,
2013-03-13 04:22:00,44.2,44.2,29.68,East,100,0.0,0.0,100,0.00,,,-99.99,1.0,HOBO +U30 +Weather +,2013-03-13 08:22:00,
2013-03-13 04:23:00,44.2,44.2,29.68,East,100,0.0,0.0,100,0.00,,,-99.99,1.0,HOBO +U30 +Weather +,2013-03-13 08:23:00,
2013-03-13 04:24:00,44.2,44.2,29.68,East,100,0.0,0.0,100,0.00,,,-99.99,1.0,HOBO +U30 +Weather +,2013-03-13 08:24:00,
2013-03-13 04:25:00,44.3,44.3,29.68,East,100,0.0,0.0,100,0.00,,,-99.99,1.0,HOBO +U30 +Weather +,2013-03-13 08:25:00,
2013-03-13 04:26:00,44.3,44.3,29.69,East,100,0.0,0.0,100,0.00,,,-99.99,1.0,HOBO +U30 +Weather +,2013-03-13 08:26:00,
2013-03-13 04:27:00,44.3,44.3,29.68,East,100,0.0,0.0,100,0.00,,,-99.99,1.0,HOBO +U30 +Weather +,2013-03-13 08:27:00,
2013-03-13 04:28:00,44.3,44.3,29.69,East,100,0.0,0.0,100,0.00,,,-99.99,1.0,HOBO +U30 +Weather +,2013-03-13 08:28:00,
2013-03-13 04:29:00,44.3,44.3,29.69,East,100,0.0,0.0,100,0.00,,,-99.99,1.0,HOBO +U30 +Weather +,2013-03-13 08:29:00,
2013-03-13 04:30:00,44.3,44.3,29.69,East,100,0.0,0.0,100,0.00,,,-99.99,1.0,HOBO +U30 +Weather +,2013-03-13 08:30:00,
2013-03-13 04:31:00,44.3,44.3,29.69,East,100,0.0,0.0,100,0.00,,,-99.99,1.0,HOBO +U30 +Weather +,2013-03-13 08:31:00,
2013-03-13 04:32:00,44.3,44.4,29.69,East,100,0.0,0.0,100,0.00,,,-99.99,1.0,HOBO +U30 +Weather +,2013-03-13 08:32:00,
2013-03-13 04:33:00,44.3,44.4,29.69,East,100,0.0,0.0,100,0.00,,,-99.99,1.0,HOBO +U30 +Weather +,2013-03-13 08:33:00,
2013-03-13 04:34:00,44.3,44.4,29.69,East,100,0.0,0.0,100,0.00,,,-99.99,1.0,HOBO +U30 +Weather +,2013-03-13 08:34:00,
2013-03-13 04:35:00,44.3,44.4,29.68,East,100,0.0,0.0,100,0.00,,,-99.99,1.0,HOBO +U30 +Weather +,2013-03-13 08:35:00,
2013-03-13 04:36:00,44.3,44.4,29.69,East,100,0.0,0.0,100,0.00,,,-99.99,1.0,HOBO +U30 +Weather +,2013-03-13 08:36:00,
2013-03-13 04:37:00,44.3,44.4,29.68,East,100,0.0,0.0,100,0.00,,,-99.99,1.0,HOBO +U30 +Weather +,2013-03-13 08:37:00,
2013-03-13 04:38:00,44.3,44.4,29.68,East,100,0.0,0.0,100,0.00,,,-99.99,1.0,HOBO +U30 +Weather +,2013-03-13 08:38:00,
2013-03-13 04:39:00,44.3,44.4,29.69,East,100,0.0,0.0,100,0.00,,,-99.99,1.0,HOBO +U30 +Weather +,2013-03-13 08:39:00,
2013-03-13 04:40:00,44.3,44.4,29.68,East,100,0.0,0.0,100,0.00,,,-99.99,1.0,HOBO +U30 +Weather +,2013-03-13 08:40:00,
2013-03-13 04:41:00,44.3,44.4,29.69,East,100,0.0,0.0,100,0.00,,,-99.99,1.0,HOBO +U30 +Weather +,2013-03-13 08:41:00,
2013-03-13 04:42:00,44.3,44.4,29.69,East,100,0.0,0.0,100,0.00,,,-99.99,1.0,HOBO +U30 +Weather +,2013-03-13 08:42:00,
2013-03-13 04:43:00,44.3,44.3,29.69,East,100,0.0,0.0,100,0.00,,,-99.99,1.0,HOBO +U30 +Weather +,2013-03-13 08:43:00,
2013-03-13 04:44:00,44.3,44.3,29.69,East,100,0.0,0.0,100,0.00,,,-99.99,1.0,HOBO +U30 +Weather +,2013-03-13 08:44:00,
2013-03-13 04:45:00,44.3,44.3,29.68,East,100,0.0,0.0,100,0.00,,,-99.99,1.0,HOBO +U30 +Weather +,2013-03-13 08:45:00,
2013-03-13 04:46:00,44.3,44.3,29.68,East,100,0.0,0.0,100,0.00,,,-99.99,1.0,HOBO +U30 +Weather +,2013-03-13 08:46:00,
2013-03-13 04:47:00,44.2,44.2,29.68,East,100,0.0,0.0,100,0.00,,,-99.99,1.0,HOBO +U30 +Weather +,2013-03-13 08:47:00,
2013-03-13 04:48:00,44.2,44.2,29.68,East,100,0.0,0.0,100,0.00,,,-99.99,1.0,HOBO +U30 +Weather +,2013-03-13 08:48:00,
2013-03-13 04:49:00,44.1,44.2,29.68,East,100,0.0,0.0,100,0.00,,,-99.99,1.0,HOBO +U30 +Weather +,2013-03-13 08:49:00,
2013-03-13 04:50:00,44.1,44.2,29.69,East,100,0.0,0.0,100,0.00,,,-99.99,1.0,HOBO +U30 +Weather +,2013-03-13 08:50:00,
2013-03-13 04:51:00,44.1,44.1,29.68,East,100,0.0,0.0,100,0.00,,,-99.99,1.0,HOBO +U30 +Weather +,2013-03-13 08:51:00,
2013-03-13 04:52:00,44.1,44.1,29.68,East,100,0.0,0.0,100,0.00,,,-99.99,1.0,HOBO +U30 +Weather +,2013-03-13 08:52:00,
2013-03-13 04:53:00,44.0,44.1,29.68,East,100,0.0,0.0,100,0.00,,,-99.99,1.0,HOBO +U30 +Weather +,2013-03-13 08:53:00,
2013-03-13 04:54:00,44.0,44.0,29.69,East,100,0.0,0.0,100,0.00,,,-99.99,1.0,HOBO +U30 +Weather +,2013-03-13 08:54:00,
2013-03-13 04:55:00,44.0,44.0,29.69,East,100,0.0,0.0,100,0.00,,,-99.99,1.0,HOBO +U30 +Weather +,2013-03-13 08:55:00,
2013-03-13 04:56:00,44.0,44.0,29.69,East,100,0.0,0.0,100,0.00,,,-99.99,1.0,HOBO +U30 +Weather +,2013-03-13 08:56:00,
2013-03-13 04:57:00,43.9,43.9,29.68,East,100,0.0,0.0,100,0.00,,,-99.99,1.0,HOBO +U30 +Weather +,2013-03-13 08:57:00,
2013-03-13 04:58:00,43.9,43.9,29.68,East,100,0.0,0.0,100,0.00,,,-99.99,1.0,HOBO +U30 +Weather +,2013-03-13 08:58:00,
2013-03-13 04:59:00,43.9,43.9,29.67,East,100,0.0,0.0,100,0.00,,,-99.99,1.0,HOBO +U30 +Weather +,2013-03-13 08:59:00,
2013-03-13 05:00:00,43.9,43.9,29.68,East,100,0.0,0.0,100,0.00,,,-99.99,1.0,HOBO +U30 +Weather +,2013-03-13 09:00:00,
2013-03-13 05:01:00,43.8,43.8,29.68,East,100,0.0,0.0,100,0.00,,,-99.99,1.0,HOBO +U30 +Weather +,2013-03-13 09:01:00,
2013-03-13 05:02:00,43.8,43.8,29.68,East,100,0.0,0.0,100,0.00,,,-99.99,1.0,HOBO +U30 +Weather +,2013-03-13 09:02:00,
2013-03-13 05:03:00,43.8,43.8,29.68,East,100,0.0,0.0,100,0.00,,,-99.99,1.0,HOBO +U30 +Weather +,2013-03-13 09:03:00,
2013-03-13 05:04:00,43.7,43.7,29.69,East,100,0.0,0.0,100,0.00,,,-99.99,1.0,HOBO +U30 +Weather +,2013-03-13 09:04:00,
2013-03-13 05:05:00,43.7,43.7,29.69,East,100,0.0,0.0,100,0.00,,,-99.99,1.0,HOBO +U30 +Weather +,2013-03-13 09:05:00,
2013-03-13 05:06:00,43.7,43.7,29.69,East,100,0.0,0.0,100,0.00,,,-99.99,1.0,HOBO +U30 +Weather +,2013-03-13 09:06:00,
2013-03-13 05:07:00,43.7,43.7,29.69,East,100,0.0,0.0,100,0.00,,,-99.99,1.0,HOBO +U30 +Weather +,2013-03-13 09:07:00,
2013-03-13 05:08:00,43.7,43.7,29.69,East,100,0.0,0.0,100,0.00,,,-99.99,1.0,HOBO +U30 +Weather +,2013-03-13 09:08:00,
2013-03-13 05:09:00,43.7,43.7,29.69,East,100,0.0,0.0,100,0.00,,,-99.99,1.0,HOBO +U30 +Weather +,2013-03-13 09:09:00,
2013-03-13 05:10:00,43.7,43.7,29.69,East,100,0.0,0.0,100,0.00,,,-99.99,1.0,HOBO +U30 +Weather +,2013-03-13 09:10:00,
2013-03-13 05:11:00,43.7,43.7,29.69,East,100,0.0,0.0,100,0.00,,,-99.99,1.0,HOBO +U30 +Weather +,2013-03-13 09:11:00,
2013-03-13 05:12:00,43.7,43.7,29.69,East,100,0.0,0.0,100,0.00,,,-99.99,1.0,HOBO +U30 +Weather +,2013-03-13 09:12:00,
2013-03-13 05:13:00,43.7,43.7,29.69,East,100,0.0,0.0,100,0.00,,,-99.99,1.0,HOBO +U30 +Weather +,2013-03-13 09:13:00,
2013-03-13 05:14:00,43.7,43.7,29.69,East,100,0.0,0.0,100,0.00,,,-99.99,1.0,HOBO +U30 +Weather +,2013-03-13 09:14:00,
2013-03-13 05:15:00,43.6,43.6,29.69,East,100,0.0,0.0,100,0.00,,,-99.99,1.0,HOBO +U30 +Weather +,2013-03-13 09:15:00,
2013-03-13 05:16:00,43.6,43.6,29.69,East,100,0.0,0.0,100,0.00,,,-99.99,1.0,HOBO +U30 +Weather +,2013-03-13 09:16:00,
2013-03-13 05:17:00,43.6,43.6,29.69,East,100,0.0,0.0,100,0.00,,,-99.99,1.0,HOBO +U30 +Weather +,2013-03-13 09:17:00,
2013-03-13 05:18:00,43.6,43.6,29.69,East,100,0.0,0.0,100,0.00,,,-99.99,1.0,HOBO +U30 +Weather +,2013-03-13 09:18:00,
2013-03-13 05:19:00,43.5,43.6,29.70,East,100,0.0,0.0,100,0.00,,,-99.99,1.0,HOBO +U30 +Weather +,2013-03-13 09:19:00,
2013-03-13 05:20:00,43.5,43.6,29.69,East,100,0.0,0.0,100,0.00,,,-99.99,1.0,HOBO +U30 +Weather +,2013-03-13 09:20:00,
2013-03-13 05:21:00,43.5,43.5,29.69,East,100,0.0,0.0,100,0.00,,,-99.99,1.0,HOBO +U30 +Weather +,2013-03-13 09:21:00,
2013-03-13 05:22:00,43.4,43.5,29.69,East,100,0.0,0.0,100,0.00,,,-99.99,1.0,HOBO +U30 +Weather +,2013-03-13 09:22:00,
2013-03-13 05:23:00,43.4,43.4,29.69,East,100,0.0,0.0,100,0.00,,,-99.99,1.0,HOBO +U30 +Weather +,2013-03-13 09:23:00,
2013-03-13 05:24:00,43.4,43.4,29.69,East,100,0.0,0.0,100,0.00,,,-99.99,1.0,HOBO +U30 +Weather +,2013-03-13 09:24:00,
2013-03-13 05:25:00,43.4,43.4,29.69,East,100,0.0,0.0,100,0.00,,,-99.99,1.0,HOBO +U30 +Weather +,2013-03-13 09:25:00,
2013-03-13 05:26:00,43.4,43.4,29.69,East,100,0.0,0.0,100,0.00,,,-99.99,1.0,HOBO +U30 +Weather +,2013-03-13 09:26:00,
2013-03-13 05:27:00,43.3,43.3,29.69,East,100,0.0,0.0,100,0.00,,,-99.99,1.0,HOBO +U30 +Weather +,2013-03-13 09:27:00,
2013-03-13 05:28:00,43.3,43.3,29.69,East,100,0.0,0.0,100,0.00,,,-99.99,1.0,HOBO +U30 +Weather +,2013-03-13 09:28:00,
2013-03-13 05:29:00,43.3,43.3,29.69,East,100,0.0,0.0,100,0.00,,,-99.99,1.0,HOBO +U30 +Weather +,2013-03-13 09:29:00,
2013-03-13 05:30:00,43.3,43.3,29.69,East,100,0.0,0.0,100,0.00,,,-99.99,1.0,HOBO +U30 +Weather +,2013-03-13 09:30:00,
2013-03-13 05:31:00,43.2,43.2,29.69,East,100,0.0,0.0,100,0.00,,,-99.99,1.0,HOBO +U30 +Weather +,2013-03-13 09:31:00,
2013-03-13 05:32:00,43.2,43.2,29.70,East,100,0.0,0.0,100,0.00,,,-99.99,1.0,HOBO +U30 +Weather +,2013-03-13 09:32:00,
2013-03-13 05:33:00,43.2,43.2,29.70,East,100,0.0,0.0,100,0.00,,,-99.99,1.0,HOBO +U30 +Weather +,2013-03-13 09:33:00,
2013-03-13 05:34:00,43.2,43.2,29.70,East,100,0.0,0.0,100,0.00,,,-99.99,1.0,HOBO +U30 +Weather +,2013-03-13 09:34:00,
2013-03-13 05:35:00,43.2,43.2,29.70,East,100,0.0,0.0,100,0.00,,,-99.99,1.0,HOBO +U30 +Weather +,2013-03-13 09:35:00,
2013-03-13 05:36:00,43.1,43.1,29.70,East,100,0.0,0.0,100,0.00,,,-99.99,1.0,HOBO +U30 +Weather +,2013-03-13 09:36:00,
2013-03-13 05:37:00,43.1,43.1,29.70,East,100,0.0,0.0,100,0.00,,,-99.99,1.0,HOBO +U30 +Weather +,2013-03-13 09:37:00,
2013-03-13 05:38:00,43.1,43.1,29.70,East,100,0.0,0.0,100,0.00,,,-99.99,1.0,HOBO +U30 +Weather +,2013-03-13 09:38:00,
2013-03-13 05:39:00,43.0,43.0,29.70,East,100,0.0,0.0,100,0.00,,,-99.99,1.0,HOBO +U30 +Weather +,2013-03-13 09:39:00,
2013-03-13 05:40:00,43.0,43.0,29.70,East,100,0.0,0.0,100,0.00,,,-99.99,1.0,HOBO +U30 +Weather +,2013-03-13 09:40:00,
2013-03-13 05:41:00,43.0,43.0,29.70,East,100,0.0,0.0,100,0.00,,,-99.99,1.0,HOBO +U30 +Weather +,2013-03-13 09:41:00,
2013-03-13 05:42:00,42.9,42.9,29.71,East,100,0.0,0.0,100,0.00,,,-99.99,1.0,HOBO +U30 +Weather +,2013-03-13 09:42:00,
2013-03-13 05:43:00,42.9,42.9,29.70,East,100,0.0,0.0,100,0.00,,,-99.99,1.0,HOBO +U30 +Weather +,2013-03-13 09:43:00,
2013-03-13 05:44:00,42.9,42.9,29.71,East,100,0.0,0.0,100,0.00,,,-99.99,1.0,HOBO +U30 +Weather +,2013-03-13 09:44:00,
2013-03-13 05:45:00,42.7,42.7,29.69,East,100,0.0,0.0,100,0.00,,,-99.99,1.0,HOBO +U30 +Weather +,2013-03-13 09:45:00,
2013-03-13 05:46:00,42.7,42.7,29.70,East,100,0.0,0.0,100,0.00,,,-99.99,1.0,HOBO +U30 +Weather +,2013-03-13 09:46:00,
2013-03-13 05:47:00,42.7,42.7,29.70,East,100,0.0,0.0,100,0.00,,,-99.99,1.0,HOBO +U30 +Weather +,2013-03-13 09:47:00,
2013-03-13 05:48:00,42.7,42.7,29.70,East,100,0.0,0.0,100,0.00,,,-99.99,1.0,HOBO +U30 +Weather +,2013-03-13 09:48:00,
2013-03-13 05:49:00,42.7,42.7,29.70,East,100,0.0,0.0,100,0.00,,,-99.99,1.0,HOBO +U30 +Weather +,2013-03-13 09:49:00,
2013-03-13 05:50:00,42.7,42.7,29.70,East,100,0.0,0.0,100,0.00,,,-99.99,1.0,HOBO +U30 +Weather +,2013-03-13 09:50:00,
2013-03-13 05:51:00,42.7,42.7,29.70,East,100,0.0,0.0,100,0.00,,,-99.99,1.0,HOBO +U30 +Weather +,2013-03-13 09:51:00,
2013-03-13 05:52:00,42.7,42.7,29.69,East,100,0.0,0.0,100,0.00,,,-99.99,1.0,HOBO +U30 +Weather +,2013-03-13 09:52:00,
2013-03-13 05:53:00,42.7,42.7,29.69,East,100,0.0,0.0,100,0.00,,,-99.99,1.0,HOBO +U30 +Weather +,2013-03-13 09:53:00,
2013-03-13 05:54:00,42.7,42.7,29.69,East,100,0.0,0.0,100,0.00,,,-99.99,1.0,HOBO +U30 +Weather +,2013-03-13 09:54:00,
2013-03-13 05:55:00,42.6,42.6,29.70,East,100,0.0,0.0,100,0.00,,,-99.99,1.0,HOBO +U30 +Weather +,2013-03-13 09:55:00,
2013-03-13 05:56:00,42.7,42.7,29.70,East,100,0.0,0.0,100,0.00,,,-99.99,1.0,HOBO +U30 +Weather +,2013-03-13 09:56:00,
2013-03-13 05:57:00,42.6,42.6,29.70,East,100,0.0,0.0,100,0.00,,,-99.99,1.0,HOBO +U30 +Weather +,2013-03-13 09:57:00,
2013-03-13 05:58:00,42.5,42.5,29.70,East,100,0.0,0.0,100,0.00,,,-99.99,1.0,HOBO +U30 +Weather +,2013-03-13 09:58:00,
2013-03-13 05:59:00,42.5,42.5,29.70,East,100,0.0,0.0,100,0.00,,,-99.99,1.0,HOBO +U30 +Weather +,2013-03-13 09:59:00,
2013-03-13 06:00:00,42.4,42.4,29.70,East,100,0.0,0.0,100,0.00,,,-99.99,1.0,HOBO +U30 +Weather +,2013-03-13 10:00:00,
2013-03-13 06:01:00,42.4,42.4,29.70,East,100,0.0,0.0,100,0.00,,,-99.99,1.0,HOBO +U30 +Weather +,2013-03-13 10:01:00,
2013-03-13 06:02:00,42.3,42.3,29.70,East,100,0.0,0.0,100,0.00,,,-99.99,1.0,HOBO +U30 +Weather +,2013-03-13 10:02:00,
2013-03-13 06:03:00,42.2,42.2,29.69,East,100,0.0,0.0,100,0.00,,,-99.99,1.0,HOBO +U30 +Weather +,2013-03-13 10:03:00,
2013-03-13 06:04:00,42.2,42.2,29.69,East,100,0.0,0.0,100,0.00,,,-99.99,1.0,HOBO +U30 +Weather +,2013-03-13 10:04:00,
2013-03-13 06:05:00,42.1,42.1,29.69,East,100,0.0,0.0,100,0.00,,,-99.99,1.0,HOBO +U30 +Weather +,2013-03-13 10:05:00,
2013-03-13 06:06:00,41.9,41.9,29.69,East,100,0.0,0.0,100,0.00,,,-99.99,1.0,HOBO +U30 +Weather +,2013-03-13 10:06:00,
2013-03-13 06:07:00,41.8,41.8,29.69,East,100,0.0,0.0,100,0.00,,,-99.99,1.0,HOBO +U30 +Weather +,2013-03-13 10:07:00,
2013-03-13 06:08:00,41.6,41.6,29.69,East,100,0.0,0.0,100,0.00,,,-99.99,1.0,HOBO +U30 +Weather +,2013-03-13 10:08:00,
2013-03-13 06:09:00,41.4,41.4,29.69,East,100,0.0,0.0,100,0.00,,,-99.99,1.0,HOBO +U30 +Weather +,2013-03-13 10:09:00,
2013-03-13 06:10:00,41.3,41.3,29.70,East,100,0.0,0.0,100,0.00,,,-99.99,1.0,HOBO +U30 +Weather +,2013-03-13 10:10:00,
2013-03-13 06:11:00,41.2,41.2,29.70,East,100,0.0,0.0,100,0.00,,,-99.99,1.0,HOBO +U30 +Weather +,2013-03-13 10:11:00,
2013-03-13 06:12:00,41.1,41.1,29.70,East,100,0.0,0.0,100,0.00,,,-99.99,1.0,HOBO +U30 +Weather +,2013-03-13 10:12:00,
2013-03-13 06:13:00,41.2,41.2,29.70,East,100,0.0,0.0,100,0.00,,,-99.99,1.0,HOBO +U30 +Weather +,2013-03-13 10:13:00,
2013-03-13 06:14:00,41.1,41.1,29.70,East,100,0.0,0.0,100,0.00,,,-99.99,1.0,HOBO +U30 +Weather +,2013-03-13 10:14:00,
2013-03-13 06:15:00,41.1,41.1,29.70,East,100,0.0,0.0,100,0.00,,,-99.99,1.0,HOBO +U30 +Weather +,2013-03-13 10:15:00,
2013-03-13 06:16:00,41.1,41.1,29.70,East,100,0.0,0.0,100,0.00,,,-99.99,1.0,HOBO +U30 +Weather +,2013-03-13 10:16:00,
2013-03-13 06:17:00,41.1,41.1,29.70,East,100,0.0,0.0,100,0.00,,,-99.99,1.0,HOBO +U30 +Weather +,2013-03-13 10:17:00,
2013-03-13 06:18:00,41.1,41.1,29.70,East,100,0.0,0.0,100,0.00,,,-99.99,1.0,HOBO +U30 +Weather +,2013-03-13 10:18:00,
2013-03-13 06:19:00,41.1,41.1,29.70,East,100,0.0,0.0,100,0.00,,,-99.99,1.0,HOBO +U30 +Weather +,2013-03-13 10:19:00,
2013-03-13 06:20:00,41.1,41.1,29.70,East,100,0.0,0.0,100,0.00,,,-99.99,1.0,HOBO +U30 +Weather +,2013-03-13 10:20:00,
2013-03-13 06:21:00,41.1,41.1,29.70,East,100,0.0,0.0,100,0.00,,,-99.99,1.0,HOBO +U30 +Weather +,2013-03-13 10:21:00,
2013-03-13 06:22:00,41.1,41.1,29.71,East,100,0.0,0.0,100,0.00,,,-99.99,1.0,HOBO +U30 +Weather +,2013-03-13 10:22:00,
2013-03-13 06:23:00,41.2,41.2,29.71,East,100,0.0,0.0,100,0.00,,,-99.99,1.0,HOBO +U30 +Weather +,2013-03-13 10:23:00,
2013-03-13 06:24:00,41.2,41.2,29.71,East,100,0.0,0.0,100,0.00,,,-99.99,1.0,HOBO +U30 +Weather +,2013-03-13 10:24:00,
2013-03-13 06:28:00,41.0,41.0,29.71,East,100,0.0,0.0,100,0.00,,,-99.99,1.0,HOBO +U30 +Weather +,2013-03-13 10:28:00,
2013-03-13 06:29:00,40.9,40.9,29.71,East,100,0.0,0.0,100,0.00,,,-99.99,1.0,HOBO +U30 +Weather +,2013-03-13 10:29:00,
2013-03-13 06:30:00,40.9,40.9,29.71,East,100,0.0,0.0,100,0.00,,,-99.99,1.0,HOBO +U30 +Weather +,2013-03-13 10:30:00,
2013-03-13 06:31:00,40.9,40.9,29.71,East,100,0.0,0.0,100,0.00,,,-99.99,1.0,HOBO +U30 +Weather +,2013-03-13 10:31:00,
2013-03-13 06:32:00,40.8,40.8,29.71,East,100,0.0,0.0,100,0.00,,,-99.99,1.0,HOBO +U30 +Weather +,2013-03-13 10:32:00,
2013-03-13 06:33:00,40.7,40.7,29.71,East,100,0.0,0.0,100,0.00,,,-99.99,1.0,HOBO +U30 +Weather +,2013-03-13 10:33:00,
2013-03-13 06:34:00,40.7,40.7,29.72,East,100,0.0,0.0,100,0.00,,,-99.99,1.0,HOBO +U30 +Weather +,2013-03-13 10:34:00,
2013-03-13 06:35:00,40.7,40.7,29.71,East,100,0.0,0.0,100,0.00,,,-99.99,1.0,HOBO +U30 +Weather +,2013-03-13 10:35:00,
2013-03-13 06:36:00,40.7,40.7,29.71,East,100,0.0,0.0,100,0.00,,,-99.99,1.0,HOBO +U30 +Weather +,2013-03-13 10:36:00,
2013-03-13 06:37:00,40.7,40.7,29.71,East,100,0.0,0.0,100,0.00,,,-99.99,1.0,HOBO +U30 +Weather +,2013-03-13 10:37:00,
2013-03-13 06:38:00,40.7,40.7,29.71,East,100,0.0,0.0,100,0.00,,,-99.99,1.0,HOBO +U30 +Weather +,2013-03-13 10:38:00,
2013-03-13 06:39:00,40.7,40.7,29.71,East,100,0.0,0.0,100,0.00,,,-99.99,1.0,HOBO +U30 +Weather +,2013-03-13 10:39:00,
2013-03-13 06:40:00,40.6,40.6,29.71,East,100,0.0,0.0,100,0.00,,,-99.99,1.0,HOBO +U30 +Weather +,2013-03-13 10:40:00,
2013-03-13 06:41:00,40.6,40.6,29.71,East,100,0.0,0.0,100,0.00,,,-99.99,1.0,HOBO +U30 +Weather +,2013-03-13 10:41:00,
2013-03-13 06:42:00,40.6,40.6,29.71,East,100,0.0,0.0,100,0.00,,,-99.99,1.0,HOBO +U30 +Weather +,2013-03-13 10:42:00,
2013-03-13 06:43:00,40.6,40.6,29.71,East,100,0.0,0.0,100,0.00,,,-99.99,1.0,HOBO +U30 +Weather +,2013-03-13 10:43:00,
2013-03-13 06:44:00,40.5,40.5,29.71,East,100,0.0,0.0,100,0.00,,,-99.99,1.0,HOBO +U30 +Weather +,2013-03-13 10:44:00,
2013-03-13 06:45:00,40.5,40.5,29.71,East,100,0.0,0.0,100,0.00,,,-99.99,1.0,HOBO +U30 +Weather +,2013-03-13 10:45:00,
2013-03-13 06:46:00,40.4,40.4,29.70,East,100,0.0,0.0,100,0.00,,,-99.99,1.0,HOBO +U30 +Weather +,2013-03-13 10:46:00,
2013-03-13 06:47:00,40.4,40.4,29.71,East,100,0.0,0.0,100,0.00,,,-99.99,1.0,HOBO +U30 +Weather +,2013-03-13 10:47:00,
2013-03-13 06:48:00,40.3,40.3,29.71,East,100,0.0,0.0,100,0.00,,,-99.99,1.0,HOBO +U30 +Weather +,2013-03-13 10:48:00,
2013-03-13 06:49:00,40.4,40.4,29.71,East,100,0.0,0.0,100,0.00,,,-99.99,1.0,HOBO +U30 +Weather +,2013-03-13 10:49:00,
2013-03-13 06:50:00,40.3,40.3,29.71,East,100,0.0,0.0,100,0.00,,,-99.99,1.0,HOBO +U30 +Weather +,2013-03-13 10:50:00,
2013-03-13 06:51:00,40.3,40.3,29.71,East,100,0.0,0.0,100,0.00,,,-99.99,1.0,HOBO +U30 +Weather +,2013-03-13 10:51:00,
2013-03-13 06:52:00,40.3,40.3,29.72,East,100,0.0,0.0,100,0.00,,,-99.99,1.0,HOBO +U30 +Weather +,2013-03-13 10:52:00,
2013-03-13 06:53:00,40.3,40.3,29.72,East,100,0.0,0.0,100,0.00,,,-99.99,1.0,HOBO +U30 +Weather +,2013-03-13 10:53:00,
2013-03-13 06:54:00,40.3,40.3,29.71,East,100,0.0,0.0,100,0.00,,,-99.99,1.0,HOBO +U30 +Weather +,2013-03-13 10:54:00,
2013-03-13 06:55:00,40.4,40.4,29.72,East,100,0.0,0.0,100,0.00,,,-99.99,1.0,HOBO +U30 +Weather +,2013-03-13 10:55:00,
2013-03-13 06:56:00,40.4,40.4,29.71,East,100,0.0,0.0,100,0.00,,,-99.99,1.0,HOBO +U30 +Weather +,2013-03-13 10:56:00,
2013-03-13 06:57:00,40.4,40.4,29.71,East,100,0.0,0.0,100,0.00,,,-99.99,1.0,HOBO +U30 +Weather +,2013-03-13 10:57:00,
2013-03-13 06:58:00,40.4,40.4,29.71,East,100,0.0,0.0,100,0.00,,,-99.99,1.0,HOBO +U30 +Weather +,2013-03-13 10:58:00,
2013-03-13 06:59:00,40.4,40.4,29.71,East,100,0.0,0.0,100,0.00,,,-99.99,1.0,HOBO +U30 +Weather +,2013-03-13 10:59:00,
2013-03-13 07:00:00,40.4,40.4,29.72,East,100,0.0,0.0,100,0.00,,,-99.99,1.0,HOBO +U30 +Weather +,2013-03-13 11:00:00,
2013-03-13 07:01:00,40.4,40.4,29.72,East,100,0.0,0.0,100,0.00,,,-99.99,1.0,HOBO +U30 +Weather +,2013-03-13 11:01:00,
2013-03-13 07:02:00,40.4,40.4,29.72,East,100,0.0,0.0,100,0.00,,,-99.99,1.0,HOBO +U30 +Weather +,2013-03-13 11:02:00,
2013-03-13 07:03:00,40.4,40.4,29.72,East,100,0.0,0.0,100,0.00,,,-99.99,1.0,HOBO +U30 +Weather +,2013-03-13 11:03:00,
2013-03-13 07:04:00,40.4,40.4,29.72,East,100,0.0,0.0,100,0.00,,,-99.99,1.0,HOBO +U30 +Weather +,2013-03-13 11:04:00,
2013-03-13 07:05:00,40.4,40.4,29.72,East,100,0.0,0.0,100,0.00,,,-99.99,1.0,HOBO +U30 +Weather +,2013-03-13 11:05:00,
2013-03-13 07:06:00,40.4,40.4,29.72,East,100,0.0,0.0,100,0.00,,,-99.99,1.0,HOBO +U30 +Weather +,2013-03-13 11:06:00,
2013-03-13 07:07:00,40.4,40.4,29.72,East,100,0.0,0.0,100,0.00,,,-99.99,1.0,HOBO +U30 +Weather +,2013-03-13 11:07:00,
2013-03-13 07:08:00,40.4,40.4,29.72,East,100,0.0,0.0,100,0.00,,,-99.99,1.0,HOBO +U30 +Weather +,2013-03-13 11:08:00,
2013-03-13 07:09:00,40.4,40.4,29.72,East,100,0.0,0.0,100,0.00,,,-99.99,2.0,HOBO +U30 +Weather +,2013-03-13 11:09:00,
2013-03-13 07:10:00,40.5,40.5,29.71,East,100,0.0,0.0,100,0.00,,,-99.99,2.0,HOBO +U30 +Weather +,2013-03-13 11:10:00,
2013-03-13 07:11:00,40.5,40.5,29.71,East,100,0.0,0.0,100,0.00,,,-99.99,2.0,HOBO +U30 +Weather +,2013-03-13 11:11:00,
2013-03-13 07:12:00,40.5,40.5,29.72,East,100,0.0,0.0,100,0.00,,,-99.99,3.0,HOBO +U30 +Weather +,2013-03-13 11:12:00,
2013-03-13 07:13:00,40.5,40.5,29.71,East,100,0.0,0.0,100,0.00,,,-99.99,3.0,HOBO +U30 +Weather +,2013-03-13 11:13:00,
2013-03-13 07:14:00,40.4,40.4,29.71,East,100,0.0,0.0,100,0.00,,,-99.99,3.0,HOBO +U30 +Weather +,2013-03-13 11:14:00,
2013-03-13 07:15:00,40.4,40.4,29.70,East,100,0.0,0.0,100,0.00,,,-99.99,4.0,HOBO +U30 +Weather +,2013-03-13 11:15:00,
2013-03-13 07:16:00,40.4,40.4,29.70,East,100,0.0,0.0,100,0.00,,,-99.99,4.0,HOBO +U30 +Weather +,2013-03-13 11:16:00,
2013-03-13 07:17:00,40.4,40.4,29.70,East,100,0.0,0.0,100,0.00,,,-99.99,6.0,HOBO +U30 +Weather +,2013-03-13 11:17:00,
2013-03-13 07:18:00,40.3,40.3,29.70,East,100,0.0,0.0,100,0.00,,,-99.99,6.0,HOBO +U30 +Weather +,2013-03-13 11:18:00,
2013-03-13 07:19:00,40.2,40.2,29.71,East,100,0.0,0.0,100,0.00,,,-99.99,6.0,HOBO +U30 +Weather +,2013-03-13 11:19:00,
2013-03-13 07:20:00,40.2,40.2,29.71,East,100,0.0,0.0,100,0.00,,,-99.99,7.0,HOBO +U30 +Weather +,2013-03-13 11:20:00,
2013-03-13 07:21:00,40.1,40.1,29.71,East,100,0.0,0.0,100,0.00,,,-99.99,8.0,HOBO +U30 +Weather +,2013-03-13 11:21:00,
2013-03-13 07:22:00,40.0,40.0,29.71,East,100,0.0,0.0,100,0.00,,,-99.99,9.0,HOBO +U30 +Weather +,2013-03-13 11:22:00,
2013-03-13 07:23:00,40.0,40.0,29.71,East,100,0.0,0.0,100,0.00,,,-99.99,8.0,HOBO +U30 +Weather +,2013-03-13 11:23:00,
2013-03-13 07:24:00,40.0,40.0,29.71,East,100,0.0,0.0,100,0.00,,,-99.99,12.0,HOBO +U30 +Weather +,2013-03-13 11:24:00,
2013-03-13 07:25:00,40.0,40.0,29.71,East,100,0.0,0.0,100,0.00,,,-99.99,11.0,HOBO +U30 +Weather +,2013-03-13 11:25:00,
2013-03-13 07:26:00,39.9,39.9,29.71,East,100,0.0,0.0,100,0.00,,,-99.99,9.0,HOBO +U30 +Weather +,2013-03-13 11:26:00,
2013-03-13 07:27:00,39.9,39.9,29.71,East,100,0.0,0.0,100,0.00,,,-99.99,9.0,HOBO +U30 +Weather +,2013-03-13 11:27:00,
2013-03-13 07:28:00,39.9,39.9,29.71,East,100,0.0,0.0,100,0.00,,,-99.99,9.0,HOBO +U30 +Weather +,2013-03-13 11:28:00,
2013-03-13 07:29:00,39.9,39.9,29.71,East,100,0.0,0.0,100,0.00,,,-99.99,11.0,HOBO +U30 +Weather +,2013-03-13 11:29:00,
2013-03-13 07:30:00,39.8,39.8,29.72,East,100,0.0,0.0,100,0.00,,,-99.99,11.0,HOBO +U30 +Weather +,2013-03-13 11:30:00,
2013-03-13 07:31:00,39.8,39.8,29.72,East,100,0.0,0.0,100,0.00,,,-99.99,12.0,HOBO +U30 +Weather +,2013-03-13 11:31:00,
2013-03-13 07:32:00,39.7,39.7,29.72,East,100,0.0,0.0,100,0.00,,,-99.99,12.0,HOBO +U30 +Weather +,2013-03-13 11:32:00,
2013-03-13 07:33:00,39.7,39.7,29.72,East,100,0.0,0.0,100,0.00,,,-99.99,12.0,HOBO +U30 +Weather +,2013-03-13 11:33:00,
2013-03-13 07:34:00,39.7,39.7,29.72,East,100,0.0,0.0,100,0.00,,,-99.99,13.0,HOBO +U30 +Weather +,2013-03-13 11:34:00,
2013-03-13 07:35:00,39.7,39.7,29.72,East,100,0.0,0.0,100,0.00,,,-99.99,13.0,HOBO +U30 +Weather +,2013-03-13 11:35:00,
2013-03-13 07:36:00,39.7,39.7,29.71,East,100,0.0,0.0,100,0.00,,,-99.99,13.0,HOBO +U30 +Weather +,2013-03-13 11:36:00,
2013-03-13 07:37:00,39.7,39.7,29.72,East,100,0.0,0.0,100,0.00,,,-99.99,13.0,HOBO +U30 +Weather +,2013-03-13 11:37:00,
2013-03-13 07:38:00,39.8,39.8,29.71,East,100,0.0,0.0,100,0.00,,,-99.99,14.0,HOBO +U30 +Weather +,2013-03-13 11:38:00,
2013-03-13 07:39:00,39.7,39.7,29.71,East,100,0.0,0.0,100,0.00,,,-99.99,14.0,HOBO +U30 +Weather +,2013-03-13 11:39:00,
2013-03-13 07:40:00,39.8,39.8,29.71,East,100,0.0,0.0,100,0.00,,,-99.99,16.0,HOBO +U30 +Weather +,2013-03-13 11:40:00,
2013-03-13 07:41:00,39.8,39.8,29.71,East,100,0.0,0.0,100,0.00,,,-99.99,17.0,HOBO +U30 +Weather +,2013-03-13 11:41:00,
2013-03-13 07:42:00,39.7,39.7,29.71,East,100,0.0,0.0,100,0.00,,,-99.99,18.0,HOBO +U30 +Weather +,2013-03-13 11:42:00,
2013-03-13 07:43:00,39.7,39.7,29.72,East,100,0.0,0.0,100,0.00,,,-99.99,18.0,HOBO +U30 +Weather +,2013-03-13 11:43:00,
2013-03-13 07:44:00,39.7,39.7,29.72,East,100,0.0,0.0,100,0.00,,,-99.99,19.0,HOBO +U30 +Weather +,2013-03-13 11:44:00,
2013-03-13 07:45:00,39.7,39.7,29.72,East,100,0.0,0.0,100,0.00,,,-99.99,21.0,HOBO +U30 +Weather +,2013-03-13 11:45:00,
2013-03-13 07:46:00,39.7,39.7,29.72,East,100,0.0,0.0,100,0.00,,,-99.99,21.0,HOBO +U30 +Weather +,2013-03-13 11:46:00,
2013-03-13 07:47:00,39.7,39.7,29.71,East,100,0.0,0.0,100,0.00,,,-99.99,22.0,HOBO +U30 +Weather +,2013-03-13 11:47:00,
2013-03-13 07:48:00,39.8,39.8,29.72,East,100,0.0,0.0,100,0.00,,,-99.99,22.0,HOBO +U30 +Weather +,2013-03-13 11:48:00,
2013-03-13 07:49:00,39.8,39.8,29.72,East,100,0.0,0.0,100,0.00,,,-99.99,23.0,HOBO +U30 +Weather +,2013-03-13 11:49:00,
2013-03-13 07:50:00,39.8,39.8,29.72,East,100,0.0,0.0,100,0.00,,,-99.99,24.0,HOBO +U30 +Weather +,2013-03-13 11:50:00,
2013-03-13 07:51:00,39.9,39.9,29.72,East,100,0.0,0.0,100,0.00,,,-99.99,26.0,HOBO +U30 +Weather +,2013-03-13 11:51:00,
2013-03-13 07:52:00,40.0,40.0,29.72,East,100,0.0,0.0,100,0.00,,,-99.99,26.0,HOBO +U30 +Weather +,2013-03-13 11:52:00,
2013-03-13 07:53:00,39.9,39.9,29.72,East,100,0.0,0.0,100,0.00,,,-99.99,26.0,HOBO +U30 +Weather +,2013-03-13 11:53:00,
2013-03-13 07:54:00,39.9,39.9,29.72,East,100,0.0,0.0,100,0.00,,,-99.99,26.0,HOBO +U30 +Weather +,2013-03-13 11:54:00,
2013-03-13 07:55:00,40.0,40.0,29.72,East,100,0.0,0.0,100,0.00,,,-99.99,27.0,HOBO +U30 +Weather +,2013-03-13 11:55:00,
2013-03-13 07:56:00,39.9,39.9,29.72,East,100,0.0,0.0,100,0.00,,,-99.99,27.0,HOBO +U30 +Weather +,2013-03-13 11:56:00,
2013-03-13 07:57:00,40.0,40.0,29.72,East,100,0.0,0.0,100,0.00,,,-99.99,28.0,HOBO +U30 +Weather +,2013-03-13 11:57:00,
2013-03-13 07:58:00,40.1,40.1,29.72,East,100,0.0,0.0,100,0.00,,,-99.99,29.0,HOBO +U30 +Weather +,2013-03-13 11:58:00,
2013-03-13 07:59:00,40.1,40.1,29.72,East,100,0.0,0.0,100,0.00,,,-99.99,32.0,HOBO +U30 +Weather +,2013-03-13 11:59:00,
2013-03-13 08:00:00,40.2,40.2,29.72,East,100,0.0,0.0,100,0.00,,,-99.99,33.0,HOBO +U30 +Weather +,2013-03-13 12:00:00,
2013-03-13 08:01:00,40.2,40.2,29.72,East,100,0.0,0.0,100,0.00,,,-99.99,33.0,HOBO +U30 +Weather +,2013-03-13 12:01:00,
2013-03-13 08:02:00,40.2,40.2,29.72,East,100,0.0,0.0,100,0.00,,,-99.99,34.0,HOBO +U30 +Weather +,2013-03-13 12:02:00,
2013-03-13 08:03:00,40.2,40.2,29.73,East,100,0.0,0.0,100,0.00,,,-99.99,36.0,HOBO +U30 +Weather +,2013-03-13 12:03:00,
2013-03-13 08:04:00,40.2,40.2,29.72,East,100,0.0,0.0,100,0.00,,,-99.99,36.0,HOBO +U30 +Weather +,2013-03-13 12:04:00,
2013-03-13 08:05:00,40.2,40.2,29.72,East,100,0.0,0.0,100,0.00,,,-99.99,36.0,HOBO +U30 +Weather +,2013-03-13 12:05:00,
2013-03-13 08:06:00,40.2,40.2,29.72,East,100,0.0,0.0,100,0.00,,,-99.99,36.0,HOBO +U30 +Weather +,2013-03-13 12:06:00,
2013-03-13 08:07:00,40.2,40.2,29.72,East,100,0.0,0.0,100,0.00,,,-99.99,36.0,HOBO +U30 +Weather +,2013-03-13 12:07:00,
2013-03-13 08:08:00,40.3,40.3,29.72,East,100,0.0,0.0,100,0.00,,,-99.99,33.0,HOBO +U30 +Weather +,2013-03-13 12:08:00,
2013-03-13 08:09:00,40.3,40.3,29.72,East,100,0.0,0.0,100,0.00,,,-99.99,29.0,HOBO +U30 +Weather +,2013-03-13 12:09:00,
2013-03-13 08:10:00,40.4,40.4,29.72,East,100,0.0,0.0,100,0.00,,,-99.99,28.0,HOBO +U30 +Weather +,2013-03-13 12:10:00,
2013-03-13 08:11:00,40.4,40.4,29.73,East,100,0.0,0.0,100,0.00,,,-99.99,28.0,HOBO +U30 +Weather +,2013-03-13 12:11:00,
2013-03-13 08:12:00,40.3,40.3,29.72,East,100,0.0,0.0,100,0.00,,,-99.99,29.0,HOBO +U30 +Weather +,2013-03-13 12:12:00,
2013-03-13 08:13:00,40.2,40.2,29.72,East,100,0.0,0.0,100,0.00,,,-99.99,29.0,HOBO +U30 +Weather +,2013-03-13 12:13:00,
2013-03-13 08:14:00,40.2,40.2,29.73,East,100,0.0,0.0,100,0.00,,,-99.99,28.0,HOBO +U30 +Weather +,2013-03-13 12:14:00,
2013-03-13 08:15:00,40.4,40.4,29.73,East,100,0.0,0.0,100,0.00,,,-99.99,24.0,HOBO +U30 +Weather +,2013-03-13 12:15:00,
2013-03-13 08:16:00,40.4,40.4,29.73,East,100,0.0,0.0,100,0.00,,,-99.99,23.0,HOBO +U30 +Weather +,2013-03-13 12:16:00,
2013-03-13 08:17:00,40.3,40.3,29.72,East,100,0.0,0.0,100,0.00,,,-99.99,22.0,HOBO +U30 +Weather +,2013-03-13 12:17:00,
2013-03-13 08:18:00,40.2,40.2,29.72,East,100,0.0,0.0,100,0.00,,,-99.99,22.0,HOBO +U30 +Weather +,2013-03-13 12:18:00,
2013-03-13 08:19:00,40.1,40.1,29.72,East,100,0.0,0.0,100,0.00,,,-99.99,22.0,HOBO +U30 +Weather +,2013-03-13 12:19:00,
2013-03-13 08:20:00,39.9,39.9,29.72,East,100,0.0,0.0,100,0.00,,,-99.99,23.0,HOBO +U30 +Weather +,2013-03-13 12:20:00,
2013-03-13 08:21:00,39.8,39.8,29.72,East,100,0.0,0.0,100,0.00,,,-99.99,24.0,HOBO +U30 +Weather +,2013-03-13 12:21:00,
2013-03-13 08:22:00,39.8,39.8,29.73,East,100,0.0,0.0,100,0.00,,,-99.99,27.0,HOBO +U30 +Weather +,2013-03-13 12:22:00,
2013-03-13 08:23:00,39.8,39.8,29.72,East,100,0.0,0.0,100,0.00,,,-99.99,29.0,HOBO +U30 +Weather +,2013-03-13 12:23:00,
2013-03-13 08:24:00,39.8,39.8,29.72,East,100,0.0,0.0,100,0.00,,,-99.99,32.0,HOBO +U30 +Weather +,2013-03-13 12:24:00,
2013-03-13 08:25:00,39.8,39.8,29.72,East,100,0.0,0.0,100,0.00,,,-99.99,36.0,HOBO +U30 +Weather +,2013-03-13 12:25:00,
2013-03-13 08:26:00,40.0,40.0,29.72,East,100,0.0,0.0,100,0.00,,,-99.99,32.0,HOBO +U30 +Weather +,2013-03-13 12:26:00,
2013-03-13 08:27:00,40.2,40.2,29.73,East,100,0.0,0.0,100,0.00,,,-99.99,33.0,HOBO +U30 +Weather +,2013-03-13 12:27:00,
2013-03-13 08:28:00,40.4,40.4,29.72,East,100,0.0,0.0,100,0.00,,,-99.99,39.0,HOBO +U30 +Weather +,2013-03-13 12:28:00,
2013-03-13 08:29:00,40.5,40.5,29.73,East,100,0.0,0.0,100,0.00,,,-99.99,36.0,HOBO +U30 +Weather +,2013-03-13 12:29:00,
2013-03-13 08:30:00,40.7,40.7,29.72,East,100,0.0,0.0,100,0.00,,,-99.99,34.0,HOBO +U30 +Weather +,2013-03-13 12:30:00,
2013-03-13 08:31:00,40.8,40.8,29.72,East,100,0.0,0.0,100,0.00,,,-99.99,28.0,HOBO +U30 +Weather +,2013-03-13 12:31:00,
2013-03-13 08:32:00,40.7,40.7,29.72,East,100,0.0,0.0,100,0.00,,,-99.99,26.0,HOBO +U30 +Weather +,2013-03-13 12:32:00,
2013-03-13 08:33:00,40.5,40.5,29.72,East,100,0.0,0.0,100,0.00,,,-99.99,23.0,HOBO +U30 +Weather +,2013-03-13 12:33:00,
2013-03-13 08:34:00,40.2,40.2,29.72,East,100,0.0,0.0,100,0.00,,,-99.99,19.0,HOBO +U30 +Weather +,2013-03-13 12:34:00,
2013-03-13 08:35:00,40.1,40.1,29.72,East,100,0.0,0.0,100,0.00,,,-99.99,18.0,HOBO +U30 +Weather +,2013-03-13 12:35:00,
2013-03-13 08:36:00,39.9,39.9,29.72,East,100,0.0,0.0,100,0.00,,,-99.99,19.0,HOBO +U30 +Weather +,2013-03-13 12:36:00,
2013-03-13 08:37:00,39.8,39.8,29.72,East,100,0.0,0.0,100,0.00,,,-99.99,21.0,HOBO +U30 +Weather +,2013-03-13 12:37:00,
2013-03-13 08:38:00,39.7,39.7,29.73,East,100,0.0,0.0,100,0.00,,,-99.99,19.0,HOBO +U30 +Weather +,2013-03-13 12:38:00,
2013-03-13 08:39:00,39.5,39.5,29.72,East,100,0.0,0.0,100,0.00,,,-99.99,19.0,HOBO +U30 +Weather +,2013-03-13 12:39:00,
2013-03-13 08:40:00,39.5,39.5,29.72,East,100,0.0,0.0,100,0.00,,,-99.99,21.0,HOBO +U30 +Weather +,2013-03-13 12:40:00,
2013-03-13 08:41:00,39.4,39.4,29.72,East,100,0.0,0.0,100,0.00,,,-99.99,27.0,HOBO +U30 +Weather +,2013-03-13 12:41:00,
2013-03-13 08:42:00,39.5,39.5,29.72,East,100,0.0,0.0,100,0.00,,,-99.99,21.0,HOBO +U30 +Weather +,2013-03-13 12:42:00,
2013-03-13 08:43:00,39.4,39.4,29.72,East,100,0.0,0.0,100,0.00,,,-99.99,23.0,HOBO +U30 +Weather +,2013-03-13 12:43:00,
2013-03-13 08:44:00,39.4,39.4,29.73,East,100,0.0,0.0,100,0.00,,,-99.99,21.0,HOBO +U30 +Weather +,2013-03-13 12:44:00,
2013-03-13 08:45:00,39.5,39.5,29.72,East,100,0.0,0.0,100,0.00,,,-99.99,24.0,HOBO +U30 +Weather +,2013-03-13 12:45:00,
2013-03-13 08:46:00,39.6,39.6,29.72,East,100,0.0,0.0,100,0.00,,,-99.99,24.0,HOBO +U30 +Weather +,2013-03-13 12:46:00,
2013-03-13 08:47:00,39.7,39.7,29.72,East,100,0.0,0.0,100,0.00,,,-99.99,53.0,HOBO +U30 +Weather +,2013-03-13 12:47:00,
2013-03-13 08:48:00,40.1,40.1,29.72,East,100,0.0,0.0,100,0.00,,,-99.99,44.0,HOBO +U30 +Weather +,2013-03-13 12:48:00,
2013-03-13 08:49:00,40.4,40.4,29.72,East,100,0.0,0.0,100,0.00,,,-99.99,53.0,HOBO +U30 +Weather +,2013-03-13 12:49:00,
2013-03-13 08:50:00,40.7,40.7,29.72,East,98,0.0,0.0,100,0.00,,,-99.99,53.0,HOBO +U30 +Weather +,2013-03-13 12:50:00,
2013-03-13 08:51:00,40.9,40.9,29.72,East,98,0.0,0.0,100,0.00,,,-99.99,53.0,HOBO +U30 +Weather +,2013-03-13 12:51:00,
2013-03-13 08:52:00,41.1,41.1,29.72,East,98,0.0,0.0,100,0.00,,,-99.99,49.0,HOBO +U30 +Weather +,2013-03-13 12:52:00,
2013-03-13 08:53:00,41.5,41.5,29.72,East,98,0.0,0.0,100,0.00,,,-99.99,54.0,HOBO +U30 +Weather +,2013-03-13 12:53:00,
2013-03-13 08:54:00,41.6,41.6,29.72,East,98,0.0,0.0,100,0.00,,,-99.99,54.0,HOBO +U30 +Weather +,2013-03-13 12:54:00,
2013-03-13 08:55:00,41.8,41.8,29.72,East,98,0.0,0.0,100,0.00,,,-99.99,53.0,HOBO +U30 +Weather +,2013-03-13 12:55:00,
2013-03-13 08:56:00,41.9,41.9,29.72,East,98,0.0,0.0,100,0.00,,,-99.99,53.0,HOBO +U30 +Weather +,2013-03-13 12:56:00,
2013-03-13 08:57:00,42.0,42.0,29.72,East,98,0.0,0.0,100,0.00,,,-99.99,53.0,HOBO +U30 +Weather +,2013-03-13 12:57:00,
2013-03-13 08:58:00,42.2,42.2,29.71,East,98,0.0,0.0,100,0.00,,,-99.99,53.0,HOBO +U30 +Weather +,2013-03-13 12:58:00,
2013-03-13 08:59:00,42.1,42.1,29.72,East,98,0.0,0.0,100,0.00,,,-99.99,53.0,HOBO +U30 +Weather +,2013-03-13 12:59:00,
2013-03-13 09:00:00,42.4,42.4,29.71,East,98,0.0,0.0,100,0.00,,,-99.99,53.0,HOBO +U30 +Weather +,2013-03-13 13:00:00,
2013-03-13 09:01:00,42.7,42.7,29.71,East,98,0.0,0.0,100,0.00,,,-99.99,53.0,HOBO +U30 +Weather +,2013-03-13 13:01:00,
2013-03-13 09:02:00,42.7,42.7,29.72,East,98,0.0,0.0,100,0.00,,,-99.99,54.0,HOBO +U30 +Weather +,2013-03-13 13:02:00,
2013-03-13 09:03:00,42.9,42.9,29.71,East,98,0.0,0.0,100,0.00,,,-99.99,54.0,HOBO +U30 +Weather +,2013-03-13 13:03:00,
2013-03-13 09:04:00,43.2,43.2,29.71,East,98,0.0,0.0,100,0.00,,,-99.99,54.0,HOBO +U30 +Weather +,2013-03-13 13:04:00,
2013-03-13 09:05:00,43.3,43.3,29.71,East,98,0.0,0.0,100,0.00,,,-99.99,54.0,HOBO +U30 +Weather +,2013-03-13 13:05:00,
2013-03-13 09:06:00,43.6,43.6,29.72,East,98,0.0,0.0,100,0.00,,,-99.99,56.0,HOBO +U30 +Weather +,2013-03-13 13:06:00,
2013-03-13 09:07:00,43.7,43.7,29.72,East,98,0.0,0.0,100,0.00,,,-99.99,56.0,HOBO +U30 +Weather +,2013-03-13 13:07:00,
2013-03-13 09:08:00,43.8,43.8,29.72,East,98,0.0,0.0,100,0.00,,,-99.99,56.0,HOBO +U30 +Weather +,2013-03-13 13:08:00,
2013-03-13 09:09:00,43.9,43.9,29.72,East,98,0.0,0.0,100,0.00,,,-99.99,57.0,HOBO +U30 +Weather +,2013-03-13 13:09:00,
2013-03-13 09:10:00,43.9,43.9,29.72,East,98,0.0,0.0,100,0.00,,,-99.99,57.0,HOBO +U30 +Weather +,2013-03-13 13:10:00,
2013-03-13 09:11:00,44.0,44.0,29.72,East,98,0.0,0.0,100,0.00,,,-99.99,57.0,HOBO +U30 +Weather +,2013-03-13 13:11:00,
2013-03-13 09:12:00,44.0,44.0,29.72,East,98,0.0,0.0,100,0.00,,,-99.99,58.0,HOBO +U30 +Weather +,2013-03-13 13:12:00,
2013-03-13 09:13:00,44.0,44.0,29.71,East,98,0.0,0.0,100,0.00,,,-99.99,58.0,HOBO +U30 +Weather +,2013-03-13 13:13:00,
2013-03-13 09:14:00,44.0,44.0,29.72,East,98,0.0,0.0,100,0.00,,,-99.99,58.0,HOBO +U30 +Weather +,2013-03-13 13:14:00,
2013-03-13 09:15:00,44.0,44.0,29.72,East,98,0.0,0.0,100,0.00,,,-99.99,59.0,HOBO +U30 +Weather +,2013-03-13 13:15:00,
2013-03-13 09:16:00,44.1,44.2,29.72,East,98,0.0,0.0,100,0.00,,,-99.99,59.0,HOBO +U30 +Weather +,2013-03-13 13:16:00,
2013-03-13 09:17:00,44.4,44.5,29.72,East,98,0.0,0.0,100,0.00,,,-99.99,59.0,HOBO +U30 +Weather +,2013-03-13 13:17:00,
2013-03-13 09:18:00,44.6,44.7,29.71,East,98,0.0,0.0,100,0.00,,,-99.99,59.0,HOBO +U30 +Weather +,2013-03-13 13:18:00,
2013-03-13 09:19:00,44.5,44.5,29.72,East,98,0.0,0.0,100,0.00,,,-99.99,61.0,HOBO +U30 +Weather +,2013-03-13 13:19:00,
2013-03-13 09:20:00,44.5,44.5,29.71,East,98,0.0,0.0,100,0.00,,,-99.99,61.0,HOBO +U30 +Weather +,2013-03-13 13:20:00,
2013-03-13 09:21:00,44.7,44.7,29.71,East,98,0.0,0.0,100,0.00,,,-99.99,62.0,HOBO +U30 +Weather +,2013-03-13 13:21:00,
2013-03-13 09:22:00,45.0,45.0,29.72,East,98,0.0,0.0,100,0.00,,,-99.99,62.0,HOBO +U30 +Weather +,2013-03-13 13:22:00,
2013-03-13 09:23:00,45.0,45.0,29.71,East,98,0.0,0.0,100,0.00,,,-99.99,62.0,HOBO +U30 +Weather +,2013-03-13 13:23:00,
2013-03-13 09:24:00,45.1,45.1,29.71,East,98,0.0,0.0,100,0.00,,,-99.99,63.0,HOBO +U30 +Weather +,2013-03-13 13:24:00,
2013-03-13 09:25:00,45.2,45.0,29.71,East,98,0.0,0.0,99,0.00,,,-99.99,63.0,HOBO +U30 +Weather +,2013-03-13 13:25:00,
2013-03-13 09:26:00,45.1,44.7,29.72,East,98,0.0,0.0,98,0.00,,,-99.99,63.0,HOBO +U30 +Weather +,2013-03-13 13:26:00,
2013-03-13 09:27:00,45.0,44.4,29.71,East,98,0.0,0.0,97,0.00,,,-99.99,63.0,HOBO +U30 +Weather +,2013-03-13 13:27:00,
2013-03-13 09:28:00,45.1,44.2,29.72,East,98,0.0,0.0,96,0.00,,,-99.99,64.0,HOBO +U30 +Weather +,2013-03-13 13:28:00,
2013-03-13 09:29:00,45.2,44.1,29.72,East,98,0.0,0.0,96,0.00,,,-99.99,64.0,HOBO +U30 +Weather +,2013-03-13 13:29:00,
2013-03-13 09:30:00,45.4,44.2,29.71,East,98,0.0,0.0,95,0.00,,,-99.99,66.0,HOBO +U30 +Weather +,2013-03-13 13:30:00,
2013-03-13 09:31:00,45.5,44.2,29.71,East,98,0.0,0.0,95,0.00,,,-99.99,66.0,HOBO +U30 +Weather +,2013-03-13 13:31:00,
2013-03-13 09:32:00,45.6,44.1,29.71,East,98,0.0,0.0,94,0.00,,,-99.99,66.0,HOBO +U30 +Weather +,2013-03-13 13:32:00,
2013-03-13 09:33:00,45.9,44.4,29.71,East,98,0.0,0.0,94,0.00,,,-99.99,66.0,HOBO +U30 +Weather +,2013-03-13 13:33:00,
2013-03-13 09:34:00,45.8,43.9,29.70,East,98,0.0,0.0,93,0.00,,,-99.99,67.0,HOBO +U30 +Weather +,2013-03-13 13:34:00,
2013-03-13 09:35:00,45.7,43.5,29.71,East,98,0.0,0.0,92,0.00,,,-99.99,67.0,HOBO +U30 +Weather +,2013-03-13 13:35:00,
2013-03-13 09:36:00,45.5,43.1,29.71,East,98,0.0,0.0,91,0.00,,,-99.99,67.0,HOBO +U30 +Weather +,2013-03-13 13:36:00,
2013-03-13 09:37:00,45.5,43.1,29.71,East,98,0.0,0.0,91,0.00,,,-99.99,67.0,HOBO +U30 +Weather +,2013-03-13 13:37:00,
2013-03-13 09:38:00,45.7,43.2,29.70,East,98,0.0,0.0,91,0.00,,,-99.99,68.0,HOBO +U30 +Weather +,2013-03-13 13:38:00,
2013-03-13 09:39:00,45.5,42.4,29.71,East,98,0.0,0.0,88,0.00,,,-99.99,68.0,HOBO +U30 +Weather +,2013-03-13 13:39:00,
2013-03-13 09:40:00,45.5,42.4,29.71,East,98,0.0,0.0,88,0.00,,,-99.99,69.0,HOBO +U30 +Weather +,2013-03-13 13:40:00,
2013-03-13 09:41:00,45.8,42.9,29.71,East,98,0.0,0.0,89,0.00,,,-99.99,69.0,HOBO +U30 +Weather +,2013-03-13 13:41:00,
2013-03-13 09:42:00,46.1,43.3,29.70,East,98,0.0,0.0,89,0.00,,,-99.99,71.0,HOBO +U30 +Weather +,2013-03-13 13:42:00,
2013-03-13 09:43:00,46.5,43.9,29.70,East,98,0.0,0.0,90,0.00,,,-99.99,71.0,HOBO +U30 +Weather +,2013-03-13 13:43:00,
2013-03-13 09:44:00,46.9,44.2,29.70,East,98,0.0,0.0,90,0.00,,,-99.99,72.0,HOBO +U30 +Weather +,2013-03-13 13:44:00,
2013-03-13 09:45:00,46.8,43.5,29.71,East,98,0.0,0.0,88,0.00,,,-99.99,72.0,HOBO +U30 +Weather +,2013-03-13 13:45:00,
2013-03-13 09:46:00,46.8,43.5,29.70,East,98,0.0,0.0,88,0.00,,,-99.99,73.0,HOBO +U30 +Weather +,2013-03-13 13:46:00,
2013-03-13 09:47:00,47.2,44.1,29.70,East,98,0.0,0.0,89,0.00,,,-99.99,73.0,HOBO +U30 +Weather +,2013-03-13 13:47:00,
2013-03-13 09:48:00,47.4,44.0,29.70,East,98,0.0,0.0,87,0.00,,,-99.99,74.0,HOBO +U30 +Weather +,2013-03-13 13:48:00,
2013-03-13 09:49:00,47.5,44.1,29.71,East,98,0.0,0.0,87,0.00,,,-99.99,74.0,HOBO +U30 +Weather +,2013-03-13 13:49:00,
2013-03-13 09:50:00,47.6,43.7,29.71,East,98,0.0,0.0,86,0.00,,,-99.99,76.0,HOBO +U30 +Weather +,2013-03-13 13:50:00,
2013-03-13 09:51:00,47.7,44.0,29.70,East,98,0.0,0.0,86,0.00,,,-99.99,76.0,HOBO +U30 +Weather +,2013-03-13 13:51:00,
2013-03-13 09:52:00,47.8,44.0,29.70,East,98,0.0,0.0,86,0.00,,,-99.99,76.0,HOBO +U30 +Weather +,2013-03-13 13:52:00,
2013-03-13 09:53:00,47.7,43.6,29.71,East,98,0.0,0.0,85,0.00,,,-99.99,77.0,HOBO +U30 +Weather +,2013-03-13 13:53:00,
2013-03-13 09:54:00,47.9,44.0,29.70,East,98,0.0,0.0,86,0.00,,,-99.99,77.0,HOBO +U30 +Weather +,2013-03-13 13:54:00,
2013-03-13 09:55:00,48.3,44.6,29.70,East,98,0.0,0.0,87,0.00,,,-99.99,78.0,HOBO +U30 +Weather +,2013-03-13 13:55:00,
2013-03-13 09:56:00,48.1,43.9,29.70,East,98,0.0,0.0,85,0.00,,,-99.99,78.0,HOBO +U30 +Weather +,2013-03-13 13:56:00,
2013-03-13 09:57:00,48.4,44.2,29.71,East,98,0.0,0.0,85,0.00,,,-99.99,79.0,HOBO +U30 +Weather +,2013-03-13 13:57:00,
2013-03-13 09:58:00,48.8,45.0,29.71,East,98,0.0,0.0,86,0.00,,,-99.99,81.0,HOBO +U30 +Weather +,2013-03-13 13:58:00,
2013-03-13 09:59:00,49.1,44.9,29.71,East,98,0.0,0.0,85,0.00,,,-99.99,83.0,HOBO +U30 +Weather +,2013-03-13 13:59:00,
2013-03-13 10:00:00,48.8,43.4,29.70,East,98,0.0,0.0,81,0.00,,,-99.99,84.0,HOBO +U30 +Weather +,2013-03-13 14:00:00,
2013-03-13 10:01:00,48.8,44.0,29.70,East,98,0.0,0.0,83,0.00,,,-99.99,87.0,HOBO +U30 +Weather +,2013-03-13 14:01:00,
2013-03-13 10:02:00,48.9,44.1,29.70,East,98,0.0,0.0,83,0.00,,,-99.99,89.0,HOBO +U30 +Weather +,2013-03-13 14:02:00,
2013-03-13 10:03:00,49.0,44.0,29.70,East,98,0.0,0.0,82,0.00,,,-99.99,92.0,HOBO +U30 +Weather +,2013-03-13 14:03:00,
2013-03-13 10:04:00,49.2,44.0,29.70,East,98,0.0,0.0,82,0.00,,,-99.99,94.0,HOBO +U30 +Weather +,2013-03-13 14:04:00,
2013-03-13 10:05:00,49.5,44.1,29.70,East,98,0.0,0.0,81,0.00,,,-99.99,97.0,HOBO +U30 +Weather +,2013-03-13 14:05:00,
2013-03-13 10:06:00,49.2,43.4,29.70,East,98,0.0,0.0,80,0.00,,,-99.99,97.0,HOBO +U30 +Weather +,2013-03-13 14:06:00,
2013-03-13 10:07:00,49.2,43.9,29.69,East,98,0.0,0.0,81,0.00,,,-99.99,97.0,HOBO +U30 +Weather +,2013-03-13 14:07:00,
2013-03-13 10:08:00,49.4,43.8,29.70,East,98,0.0,0.0,80,0.00,,,-99.99,88.0,HOBO +U30 +Weather +,2013-03-13 14:08:00,
2013-03-13 10:09:00,49.3,43.4,29.70,East,98,0.0,0.0,80,0.00,,,-99.99,87.0,HOBO +U30 +Weather +,2013-03-13 14:09:00,
2013-03-13 10:10:00,49.1,42.8,29.69,East,98,0.0,0.0,78,0.00,,,-99.99,69.0,HOBO +U30 +Weather +,2013-03-13 14:10:00,
2013-03-13 10:11:00,48.8,43.2,29.70,East,98,0.0,0.0,80,0.00,,,-99.99,68.0,HOBO +U30 +Weather +,2013-03-13 14:11:00,
2013-03-13 10:12:00,48.8,43.3,29.69,East,98,0.0,0.0,81,0.00,,,-99.99,73.0,HOBO +U30 +Weather +,2013-03-13 14:12:00,
2013-03-13 10:13:00,48.3,42.2,29.69,East,98,0.0,0.0,79,0.00,,,-99.99,76.0,HOBO +U30 +Weather +,2013-03-13 14:13:00,
2013-03-13 10:14:00,48.3,42.3,29.69,East,98,0.0,0.0,79,0.00,,,-99.99,97.0,HOBO +U30 +Weather +,2013-03-13 14:14:00,
2013-03-13 10:15:00,48.8,43.1,29.69,East,98,0.0,0.0,80,0.00,,,-99.99,101.0,HOBO +U30 +Weather +,2013-03-13 14:15:00,
2013-03-13 10:16:00,48.8,42.6,29.69,East,98,0.0,0.0,79,0.00,,,-99.99,97.0,HOBO +U30 +Weather +,2013-03-13 14:16:00,
2013-03-13 10:17:00,49.7,44.8,29.69,East,98,0.0,0.0,83,0.00,,,-99.99,101.0,HOBO +U30 +Weather +,2013-03-13 14:17:00,
2013-03-13 10:18:00,50.5,45.0,29.70,East,98,0.0,0.0,81,0.00,,,-99.99,106.0,HOBO +U30 +Weather +,2013-03-13 14:18:00,
2013-03-13 10:19:00,50.5,44.0,29.70,East,98,0.0,0.0,78,0.00,,,-99.99,103.0,HOBO +U30 +Weather +,2013-03-13 14:19:00,
2013-03-13 10:20:00,51.0,45.7,29.69,East,98,0.0,0.0,81,0.00,,,-99.99,102.0,HOBO +U30 +Weather +,2013-03-13 14:20:00,
2013-03-13 10:21:00,51.2,45.0,29.68,East,98,0.0,0.0,79,0.00,,,-99.99,96.0,HOBO +U30 +Weather +,2013-03-13 14:21:00,
2013-03-13 10:25:00,50.8,45.0,29.69,East,98,0.0,0.0,80,0.00,,,-99.99,132.0,HOBO +U30 +Weather +,2013-03-13 14:25:00,
2013-03-13 10:27:00,50.9,43.8,29.69,East,98,0.0,0.0,76,0.00,,,-99.99,131.0,HOBO +U30 +Weather +,2013-03-13 14:27:00,
2013-03-13 10:28:00,51.0,44.3,29.69,East,98,0.0,0.0,77,0.00,,,-99.99,147.0,HOBO +U30 +Weather +,2013-03-13 14:28:00,
2013-03-13 10:29:00,51.1,43.9,29.69,East,98,0.0,0.0,76,0.00,,,-99.99,154.0,HOBO +U30 +Weather +,2013-03-13 14:29:00,
2013-03-13 10:30:00,51.2,44.0,29.69,East,98,0.0,0.0,76,0.00,,,-99.99,157.0,HOBO +U30 +Weather +,2013-03-13 14:30:00,
2013-03-13 10:31:00,51.3,43.8,29.69,East,98,0.0,0.0,75,0.00,,,-99.99,171.0,HOBO +U30 +Weather +,2013-03-13 14:31:00,
2013-03-13 10:32:00,51.3,44.4,29.69,East,98,0.0,0.0,77,0.00,,,-99.99,167.0,HOBO +U30 +Weather +,2013-03-13 14:32:00,
2013-03-13 10:33:00,51.3,43.9,29.69,East,98,0.0,0.0,75,0.00,,,-99.99,171.0,HOBO +U30 +Weather +,2013-03-13 14:33:00,
2013-03-13 10:34:00,51.2,43.6,29.69,East,98,0.0,0.0,74,0.00,,,-99.99,152.0,HOBO +U30 +Weather +,2013-03-13 14:34:00,
2013-03-13 10:35:00,51.0,43.9,29.69,East,98,0.0,0.0,76,0.00,,,-99.99,189.0,HOBO +U30 +Weather +,2013-03-13 14:35:00,
2013-03-13 10:36:00,51.4,44.1,29.69,East,98,0.0,0.0,76,0.00,,,-99.99,173.0,HOBO +U30 +Weather +,2013-03-13 14:36:00,
2013-03-13 10:37:00,51.3,43.1,29.69,East,98,0.0,0.0,73,0.00,,,-99.99,158.0,HOBO +U30 +Weather +,2013-03-13 14:37:00,
2013-03-13 10:38:00,51.2,43.2,29.68,East,98,0.0,0.0,74,0.00,,,-99.99,156.0,HOBO +U30 +Weather +,2013-03-13 14:38:00,
2013-03-13 10:39:00,51.2,43.8,29.69,East,98,0.0,0.0,75,0.00,,,-99.99,164.0,HOBO +U30 +Weather +,2013-03-13 14:39:00,
2013-03-13 10:40:00,51.5,44.0,29.69,East,98,0.0,0.0,75,0.00,,,-99.99,173.0,HOBO +U30 +Weather +,2013-03-13 14:40:00,
2013-03-13 10:41:00,51.5,43.5,29.68,East,98,0.0,0.0,73,0.00,,,-99.99,148.0,HOBO +U30 +Weather +,2013-03-13 14:41:00,
2013-03-13 10:42:00,51.5,43.4,29.68,East,98,0.0,0.0,73,0.00,,,-99.99,127.0,HOBO +U30 +Weather +,2013-03-13 14:42:00,
2013-03-13 10:43:00,51.2,42.7,29.68,East,98,0.0,0.0,72,0.00,,,-99.99,126.0,HOBO +U30 +Weather +,2013-03-13 14:43:00,
2013-03-13 10:44:00,50.8,42.9,29.68,East,98,0.0,0.0,74,0.00,,,-99.99,129.0,HOBO +U30 +Weather +,2013-03-13 14:44:00,
2013-03-13 10:45:00,50.6,42.3,29.68,East,98,0.0,0.0,72,0.00,,,-99.99,126.0,HOBO +U30 +Weather +,2013-03-13 14:45:00,
2013-03-13 10:46:00,50.2,41.8,29.68,East,98,0.0,0.0,72,0.00,,,-99.99,126.0,HOBO +U30 +Weather +,2013-03-13 14:46:00,
2013-03-13 10:47:00,50.2,42.5,29.68,East,98,0.0,0.0,74,0.00,,,-99.99,132.0,HOBO +U30 +Weather +,2013-03-13 14:47:00,
2013-03-13 10:48:00,50.9,43.5,29.69,East,98,0.0,0.0,75,0.00,,,-99.99,133.0,HOBO +U30 +Weather +,2013-03-13 14:48:00,
2013-03-13 10:49:00,51.2,43.2,29.69,East,98,0.0,0.0,74,0.00,,,-99.99,142.0,HOBO +U30 +Weather +,2013-03-13 14:49:00,
2013-03-13 10:50:00,51.4,43.3,29.69,East,98,0.0,0.0,73,0.00,,,-99.99,119.0,HOBO +U30 +Weather +,2013-03-13 14:50:00,
2013-03-13 10:51:00,51.3,43.4,29.69,East,98,0.0,0.0,74,0.00,,,-99.99,126.0,HOBO +U30 +Weather +,2013-03-13 14:51:00,
2013-03-13 10:52:00,51.1,43.2,29.68,East,98,0.0,0.0,74,0.00,,,-99.99,129.0,HOBO +U30 +Weather +,2013-03-13 14:52:00,
2013-03-13 10:53:00,51.0,43.3,29.69,East,98,0.0,0.0,74,0.00,,,-99.99,132.0,HOBO +U30 +Weather +,2013-03-13 14:53:00,
2013-03-13 10:54:00,50.6,42.3,29.69,East,98,0.0,0.0,73,0.00,,,-99.99,136.0,HOBO +U30 +Weather +,2013-03-13 14:54:00,
2013-03-13 10:57:00,50.4,42.1,29.68,East,98,0.0,0.0,73,0.00,,,-99.99,149.0,HOBO +U30 +Weather +,2013-03-13 14:57:00,
2013-03-13 10:58:00,50.3,42.1,29.69,East,98,0.0,0.0,73,0.00,,,-99.99,148.0,HOBO +U30 +Weather +,2013-03-13 14:58:00,
2013-03-13 10:59:00,51.1,43.9,29.69,East,98,0.0,0.0,76,0.00,,,-99.99,157.0,HOBO +U30 +Weather +,2013-03-13 14:59:00,
2013-03-13 11:00:00,51.4,43.3,29.69,East,98,0.0,0.0,73,0.00,,,-99.99,157.0,HOBO +U30 +Weather +,2013-03-13 15:00:00,
2013-03-13 11:01:00,51.7,43.7,29.69,East,98,0.0,0.0,74,0.00,,,-99.99,167.0,HOBO +U30 +Weather +,2013-03-13 15:01:00,
2013-03-13 11:02:00,52.1,43.7,29.69,East,98,0.0,0.0,73,0.00,,,-99.99,159.0,HOBO +U30 +Weather +,2013-03-13 15:02:00,
2013-03-13 11:03:00,51.8,42.7,29.69,East,98,0.0,0.0,71,0.00,,,-99.99,153.0,HOBO +U30 +Weather +,2013-03-13 15:03:00,
2013-03-13 11:04:00,51.1,41.9,29.69,East,98,0.0,0.0,70,0.00,,,-99.99,156.0,HOBO +U30 +Weather +,2013-03-13 15:04:00,
2013-03-13 11:05:00,50.9,42.6,29.69,East,98,0.0,0.0,73,0.00,,,-99.99,162.0,HOBO +U30 +Weather +,2013-03-13 15:05:00,
2013-03-13 11:06:00,51.0,43.1,29.69,East,98,0.0,0.0,74,0.00,,,-99.99,163.0,HOBO +U30 +Weather +,2013-03-13 15:06:00,
2013-03-13 11:07:00,51.4,43.6,29.69,East,98,0.0,0.0,74,0.00,,,-99.99,164.0,HOBO +U30 +Weather +,2013-03-13 15:07:00,
2013-03-13 11:08:00,51.5,43.1,29.69,East,98,0.0,0.0,72,0.00,,,-99.99,166.0,HOBO +U30 +Weather +,2013-03-13 15:08:00,
2013-03-13 11:09:00,51.4,43.2,29.69,East,98,0.0,0.0,73,0.00,,,-99.99,158.0,HOBO +U30 +Weather +,2013-03-13 15:09:00,
2013-03-13 11:10:00,51.3,42.9,29.70,East,100,0.0,0.0,73,0.00,,,-99.99,152.0,HOBO +U30 +Weather +,2013-03-13 15:10:00,
2013-03-13 11:11:00,51.2,43.1,29.69,East,100,0.0,0.0,73,0.00,,,-99.99,152.0,HOBO +U30 +Weather +,2013-03-13 15:11:00,
2013-03-13 11:12:00,50.8,42.1,29.69,East,100,0.0,0.0,72,0.00,,,-99.99,153.0,HOBO +U30 +Weather +,2013-03-13 15:12:00,
2013-03-13 11:13:00,50.5,41.8,29.69,East,98,0.0,0.0,72,0.00,,,-99.99,149.0,HOBO +U30 +Weather +,2013-03-13 15:13:00,
2013-03-13 11:14:00,50.5,42.2,29.69,East,100,0.0,0.0,72,0.00,,,-99.99,147.0,HOBO +U30 +Weather +,2013-03-13 15:14:00,
2013-03-13 11:15:00,50.7,42.6,29.69,East,100,0.0,0.0,73,0.00,,,-99.99,143.0,HOBO +U30 +Weather +,2013-03-13 15:15:00,
2013-03-13 11:16:00,50.6,41.9,29.69,East,100,0.0,0.0,72,0.00,,,-99.99,146.0,HOBO +U30 +Weather +,2013-03-13 15:16:00,
2013-03-13 11:17:00,50.1,41.5,29.69,East,100,0.0,0.0,71,0.00,,,-99.99,142.0,HOBO +U30 +Weather +,2013-03-13 15:17:00,
2013-03-13 11:18:00,49.9,41.8,29.69,East,100,0.0,0.0,73,0.00,,,-99.99,139.0,HOBO +U30 +Weather +,2013-03-13 15:18:00,
2013-03-13 11:19:00,50.1,42.4,29.69,East,100,0.0,0.0,74,0.00,,,-99.99,136.0,HOBO +U30 +Weather +,2013-03-13 15:19:00,
2013-03-13 11:20:00,50.2,42.1,29.69,East,100,0.0,0.0,73,0.00,,,-99.99,136.0,HOBO +U30 +Weather +,2013-03-13 15:20:00,
2013-03-13 11:21:00,50.1,41.7,29.69,East,100,0.0,0.0,72,0.00,,,-99.99,139.0,HOBO +U30 +Weather +,2013-03-13 15:21:00,
2013-03-13 11:22:00,50.3,42.0,29.69,East,100,0.0,0.0,73,0.00,,,-99.99,146.0,HOBO +U30 +Weather +,2013-03-13 15:22:00,
2013-03-13 11:23:00,50.4,42.2,29.69,East,100,0.0,0.0,73,0.00,,,-99.99,141.0,HOBO +U30 +Weather +,2013-03-13 15:23:00,
2013-03-13 11:24:00,50.1,41.3,29.69,East,98,0.0,0.0,71,0.00,,,-99.99,142.0,HOBO +U30 +Weather +,2013-03-13 15:24:00,
2013-03-13 11:25:00,50.2,41.7,29.70,East,98,0.0,0.0,72,0.00,,,-99.99,143.0,HOBO +U30 +Weather +,2013-03-13 15:25:00,
2013-03-13 11:26:00,50.8,43.2,29.69,East,98,0.0,0.0,74,0.00,,,-99.99,144.0,HOBO +U30 +Weather +,2013-03-13 15:26:00,
2013-03-13 11:27:00,51.0,42.3,29.69,East,98,0.0,0.0,71,0.00,,,-99.99,128.0,HOBO +U30 +Weather +,2013-03-13 15:27:00,
2013-03-13 11:28:00,51.3,43.7,29.69,East,98,0.0,0.0,74,0.00,,,-99.99,128.0,HOBO +U30 +Weather +,2013-03-13 15:28:00,
2013-03-13 11:29:00,51.6,44.0,29.69,East,100,0.0,0.0,75,0.00,,,-99.99,132.0,HOBO +U30 +Weather +,2013-03-13 15:29:00,
2013-03-13 11:30:00,51.9,44.0,29.70,East,100,0.0,0.0,74,0.00,,,-99.99,132.0,HOBO +U30 +Weather +,2013-03-13 15:30:00,
2013-03-13 11:31:00,51.5,42.1,29.69,East,98,0.0,0.0,70,0.00,,,-99.99,131.0,HOBO +U30 +Weather +,2013-03-13 15:31:00,
2013-03-13 11:32:00,51.3,42.9,29.69,East,100,0.0,0.0,72,0.00,,,-99.99,128.0,HOBO +U30 +Weather +,2013-03-13 15:32:00,
2013-03-13 11:33:00,51.3,43.6,29.70,East,100,0.0,0.0,74,0.00,,,-99.99,132.0,HOBO +U30 +Weather +,2013-03-13 15:33:00,
2013-03-13 11:34:00,51.2,43.1,29.69,East,100,0.0,0.0,73,0.00,,,-99.99,136.0,HOBO +U30 +Weather +,2013-03-13 15:34:00,
2013-03-13 11:35:00,51.1,42.7,29.69,East,100,0.0,0.0,72,0.00,,,-99.99,133.0,HOBO +U30 +Weather +,2013-03-13 15:35:00,
2013-03-13 11:36:00,51.2,42.5,29.69,East,98,0.0,0.0,72,0.00,,,-99.99,152.0,HOBO +U30 +Weather +,2013-03-13 15:36:00,
2013-03-13 11:37:00,51.8,43.8,29.69,East,98,0.0,0.0,74,0.00,,,-99.99,143.0,HOBO +U30 +Weather +,2013-03-13 15:37:00,
2013-03-13 11:38:00,51.9,43.3,29.69,East,98,0.0,0.0,72,0.00,,,-99.99,166.0,HOBO +U30 +Weather +,2013-03-13 15:38:00,
2013-03-13 11:45:00,55.7,46.0,29.69,East,98,0.0,0.0,69,0.00,,,-99.99,166.0,HOBO +U30 +Weather +,2013-03-13 15:45:00,
2013-03-13 11:46:00,55.0,44.1,29.70,East,98,0.0,0.0,66,0.00,,,-99.99,161.0,HOBO +U30 +Weather +,2013-03-13 15:46:00,
2013-03-13 11:47:00,54.8,44.6,29.69,East,98,0.0,0.0,68,0.00,,,-99.99,157.0,HOBO +U30 +Weather +,2013-03-13 15:47:00,
2013-03-13 11:48:00,54.4,43.9,29.69,East,98,0.0,0.0,67,0.00,,,-99.99,161.0,HOBO +U30 +Weather +,2013-03-13 15:48:00,
2013-03-13 11:49:00,53.4,42.4,29.69,East,98,0.0,0.0,66,0.00,,,-99.99,159.0,HOBO +U30 +Weather +,2013-03-13 15:49:00,
2013-03-13 11:50:00,53.4,43.4,29.69,East,98,0.0,0.0,68,0.00,,,-99.99,178.0,HOBO +U30 +Weather +,2013-03-13 15:50:00,
2013-03-13 11:51:00,53.3,43.1,29.69,East,98,0.0,0.0,68,0.00,,,-99.99,173.0,HOBO +U30 +Weather +,2013-03-13 15:51:00,
2013-03-13 11:52:00,53.3,43.8,29.68,East,98,0.0,0.0,70,0.00,,,-99.99,151.0,HOBO +U30 +Weather +,2013-03-13 15:52:00,
2013-03-13 11:53:00,53.5,43.2,29.69,East,98,0.0,0.0,68,0.00,,,-99.99,157.0,HOBO +U30 +Weather +,2013-03-13 15:53:00,
2013-03-13 11:54:00,53.5,43.1,29.69,East,98,0.0,0.0,67,0.00,,,-99.99,147.0,HOBO +U30 +Weather +,2013-03-13 15:54:00,
2013-03-13 11:55:00,52.7,42.0,29.69,East,98,0.0,0.0,66,0.00,,,-99.99,139.0,HOBO +U30 +Weather +,2013-03-13 15:55:00,
2013-03-13 11:56:00,52.8,43.6,29.69,East,98,0.0,0.0,70,0.00,,,-99.99,148.0,HOBO +U30 +Weather +,2013-03-13 15:56:00,
2013-03-13 11:57:00,53.1,43.8,29.69,East,98,0.0,0.0,70,0.00,,,-99.99,156.0,HOBO +U30 +Weather +,2013-03-13 15:57:00,
2013-03-13 11:58:00,52.6,42.1,29.69,East,98,0.0,0.0,67,0.00,,,-99.99,138.0,HOBO +U30 +Weather +,2013-03-13 15:58:00,
2013-03-13 11:59:00,52.6,43.5,29.69,East,98,0.0,0.0,70,0.00,,,-99.99,154.0,HOBO +U30 +Weather +,2013-03-13 15:59:00,
2013-03-13 12:00:00,52.9,43.1,29.70,East,98,0.0,0.0,69,0.00,,,-99.99,139.0,HOBO +U30 +Weather +,2013-03-13 16:00:00,
2013-03-13 12:01:00,53.2,43.9,29.69,East,98,0.0,0.0,70,0.00,,,-99.99,156.0,HOBO +U30 +Weather +,2013-03-13 16:01:00,
2013-03-13 12:02:00,53.4,43.1,29.69,East,98,0.0,0.0,67,0.00,,,-99.99,177.0,HOBO +U30 +Weather +,2013-03-13 16:02:00,
2013-03-13 12:03:00,53.5,43.1,29.69,East,98,0.0,0.0,67,0.00,,,-99.99,177.0,HOBO +U30 +Weather +,2013-03-13 16:03:00,
2013-03-13 12:04:00,53.8,43.4,29.69,East,98,0.0,0.0,67,0.00,,,-99.99,199.0,HOBO +U30 +Weather +,2013-03-13 16:04:00,
2013-03-13 12:05:00,53.7,42.9,29.68,East,98,0.0,0.0,66,0.00,,,-99.99,202.0,HOBO +U30 +Weather +,2013-03-13 16:05:00,
2013-03-13 12:06:00,53.8,43.9,29.68,East,98,0.0,0.0,69,0.00,,,-99.99,192.0,HOBO +U30 +Weather +,2013-03-13 16:06:00,
2013-03-13 12:07:00,53.8,43.1,29.69,East,98,0.0,0.0,67,0.00,,,-99.99,207.0,HOBO +U30 +Weather +,2013-03-13 16:07:00,
2013-03-13 12:08:00,53.7,43.2,29.69,East,98,0.0,0.0,67,0.00,,,-99.99,211.0,HOBO +U30 +Weather +,2013-03-13 16:08:00,
2013-03-13 12:09:00,53.7,43.4,29.69,East,98,0.0,0.0,68,0.00,,,-99.99,212.0,HOBO +U30 +Weather +,2013-03-13 16:09:00,
2013-03-13 12:10:00,53.0,41.5,29.69,East,98,0.0,0.0,64,0.00,,,-99.99,231.0,HOBO +U30 +Weather +,2013-03-13 16:10:00,
2013-03-13 12:11:00,53.6,44.1,29.69,East,98,0.0,0.0,70,0.00,,,-99.99,211.0,HOBO +U30 +Weather +,2013-03-13 16:11:00,
2013-03-13 12:12:00,53.9,43.1,29.69,East,98,0.0,0.0,66,0.00,,,-99.99,223.0,HOBO +U30 +Weather +,2013-03-13 16:12:00,
2013-03-13 12:13:00,53.7,42.7,29.69,East,98,0.0,0.0,66,0.00,,,-99.99,219.0,HOBO +U30 +Weather +,2013-03-13 16:13:00,
2013-03-13 12:14:00,53.5,42.5,29.69,East,98,0.0,0.0,66,0.00,,,-99.99,206.0,HOBO +U30 +Weather +,2013-03-13 16:14:00,
2013-03-13 12:15:00,53.9,44.5,29.68,East,98,0.0,0.0,70,0.00,,,-99.99,201.0,HOBO +U30 +Weather +,2013-03-13 16:15:00,
2013-03-13 12:16:00,53.5,41.9,29.69,East,98,0.0,0.0,64,0.00,,,-99.99,206.0,HOBO +U30 +Weather +,2013-03-13 16:16:00,
2013-03-13 12:17:00,53.4,42.5,29.69,East,98,0.0,0.0,66,0.00,,,-99.99,209.0,HOBO +U30 +Weather +,2013-03-13 16:17:00,
2013-03-13 12:18:00,53.9,44.2,29.68,East,98,0.0,0.0,69,0.00,,,-99.99,211.0,HOBO +U30 +Weather +,2013-03-13 16:18:00,
2013-03-13 12:19:00,54.0,43.1,29.68,East,98,0.0,0.0,66,0.00,,,-99.99,231.0,HOBO +U30 +Weather +,2013-03-13 16:19:00,
2013-03-13 12:20:00,53.8,42.7,29.68,East,98,0.0,0.0,65,0.00,,,-99.99,209.0,HOBO +U30 +Weather +,2013-03-13 16:20:00,
2013-03-13 12:21:00,54.2,44.7,29.69,East,98,0.0,0.0,69,0.00,,,-99.99,241.0,HOBO +U30 +Weather +,2013-03-13 16:21:00,
2013-03-13 12:22:00,54.9,44.1,29.68,East,98,0.0,0.0,66,0.00,,,-99.99,252.0,HOBO +U30 +Weather +,2013-03-13 16:22:00,
2013-03-13 12:23:00,55.1,44.1,29.68,East,98,0.0,0.0,66,0.00,,,-99.99,239.0,HOBO +U30 +Weather +,2013-03-13 16:23:00,
2013-03-13 12:24:00,56.0,46.3,29.68,East,98,0.0,0.0,69,0.00,,,-99.99,259.0,HOBO +U30 +Weather +,2013-03-13 16:24:00,
2013-03-13 12:25:00,56.3,44.6,29.68,East,98,0.0,0.0,64,0.00,,,-99.99,229.0,HOBO +U30 +Weather +,2013-03-13 16:25:00,
2013-03-13 12:26:00,56.2,45.0,29.69,East,98,0.0,0.0,65,0.00,,,-99.99,256.0,HOBO +U30 +Weather +,2013-03-13 16:26:00,
2013-03-13 12:27:00,55.6,43.7,29.69,East,98,0.0,0.0,64,0.00,,,-99.99,281.0,HOBO +U30 +Weather +,2013-03-13 16:27:00,
2013-03-13 12:28:00,55.4,42.2,29.69,East,98,0.0,0.0,60,0.00,,,-99.99,251.0,HOBO +U30 +Weather +,2013-03-13 16:28:00,
2013-03-13 12:29:00,54.5,41.7,29.68,East,98,0.0,0.0,61,0.00,,,-99.99,228.0,HOBO +U30 +Weather +,2013-03-13 16:29:00,
2013-03-13 12:30:00,54.1,41.3,29.69,East,98,0.0,0.0,61,0.00,,,-99.99,237.0,HOBO +U30 +Weather +,2013-03-13 16:30:00,
2013-03-13 12:31:00,53.3,40.3,29.68,East,98,0.0,0.0,61,0.00,,,-99.99,232.0,HOBO +U30 +Weather +,2013-03-13 16:31:00,
2013-03-13 12:32:00,54.1,43.9,29.68,East,98,0.0,0.0,68,0.00,,,-99.99,262.0,HOBO +U30 +Weather +,2013-03-13 16:32:00,
2013-03-13 12:33:00,54.8,43.5,29.68,East,98,0.0,0.0,65,0.00,,,-99.99,239.0,HOBO +U30 +Weather +,2013-03-13 16:33:00,
2013-03-13 12:34:00,55.5,44.6,29.68,East,98,0.0,0.0,66,0.00,,,-99.99,254.0,HOBO +U30 +Weather +,2013-03-13 16:34:00,
2013-03-13 12:35:00,55.4,42.2,29.68,East,98,0.0,0.0,61,0.00,,,-99.99,242.0,HOBO +U30 +Weather +,2013-03-13 16:35:00,
2013-03-13 12:36:00,55.2,41.9,29.69,East,98,0.0,0.0,60,0.00,,,-99.99,251.0,HOBO +U30 +Weather +,2013-03-13 16:36:00,
2013-03-13 12:37:00,55.1,42.1,29.68,East,98,0.0,0.0,61,0.00,,,-99.99,246.0,HOBO +U30 +Weather +,2013-03-13 16:37:00,
2013-03-13 12:38:00,55.0,43.3,29.68,East,98,0.0,0.0,64,0.00,,,-99.99,253.0,HOBO +U30 +Weather +,2013-03-13 16:38:00,
2013-03-13 12:39:00,55.1,42.4,29.68,East,98,0.0,0.0,62,0.00,,,-99.99,257.0,HOBO +U30 +Weather +,2013-03-13 16:39:00,
2013-03-13 12:40:00,54.7,41.3,29.68,East,98,0.0,0.0,60,0.00,,,-99.99,259.0,HOBO +U30 +Weather +,2013-03-13 16:40:00,
2013-03-13 12:41:00,54.3,41.7,29.67,East,98,0.0,0.0,62,0.00,,,-99.99,247.0,HOBO +U30 +Weather +,2013-03-13 16:41:00,
2013-03-13 12:42:00,54.4,43.3,29.68,East,98,0.0,0.0,66,0.00,,,-99.99,273.0,HOBO +U30 +Weather +,2013-03-13 16:42:00,
2013-03-13 12:43:00,53.8,40.6,29.68,East,98,0.0,0.0,60,0.00,,,-99.99,292.0,HOBO +U30 +Weather +,2013-03-13 16:43:00,
2013-03-13 12:44:00,53.7,41.6,29.68,East,98,0.0,0.0,63,0.00,,,-99.99,253.0,HOBO +U30 +Weather +,2013-03-13 16:44:00,
2013-03-13 12:45:00,54.2,42.6,29.67,East,98,0.0,0.0,64,0.00,,,-99.99,291.0,HOBO +U30 +Weather +,2013-03-13 16:45:00,
2013-03-13 12:46:00,54.4,42.5,29.68,East,98,0.0,0.0,64,0.00,,,-99.99,291.0,HOBO +U30 +Weather +,2013-03-13 16:46:00,
2013-03-13 12:47:00,54.1,41.9,29.67,East,98,0.0,0.0,63,0.00,,,-99.99,302.0,HOBO +U30 +Weather +,2013-03-13 16:47:00,
2013-03-13 12:48:00,53.9,42.0,29.67,East,98,0.0,0.0,63,0.00,,,-99.99,244.0,HOBO +U30 +Weather +,2013-03-13 16:48:00,
2013-03-13 12:49:00,54.2,42.7,29.67,East,98,0.0,0.0,64,0.00,,,-99.99,266.0,HOBO +U30 +Weather +,2013-03-13 16:49:00,
2013-03-13 12:50:00,54.1,42.2,29.68,East,98,0.0,0.0,63,0.00,,,-99.99,223.0,HOBO +U30 +Weather +,2013-03-13 16:50:00,
2013-03-13 12:52:00,54.1,42.9,29.68,East,98,0.0,0.0,65,0.00,,,-99.99,219.0,HOBO +U30 +Weather +,2013-03-13 16:52:00,
2013-03-13 12:53:00,54.5,43.4,29.68,East,98,0.0,0.0,65,0.00,,,-99.99,221.0,HOBO +U30 +Weather +,2013-03-13 16:53:00,
2013-03-13 12:54:00,54.5,42.6,29.68,East,100,0.0,0.0,64,0.00,,,-99.99,207.0,HOBO +U30 +Weather +,2013-03-13 16:54:00,
2013-03-13 12:55:00,54.2,41.6,29.68,East,100,0.0,0.0,62,0.00,,,-99.99,277.0,HOBO +U30 +Weather +,2013-03-13 16:55:00,
2013-03-13 12:56:00,53.6,41.0,29.68,East,98,0.0,0.0,62,0.00,,,-99.99,254.0,HOBO +U30 +Weather +,2013-03-13 16:56:00,
2013-03-13 12:57:00,53.4,41.3,29.68,East,98,0.0,0.0,63,0.00,,,-99.99,254.0,HOBO +U30 +Weather +,2013-03-13 16:57:00,
2013-03-13 12:58:00,53.1,40.5,29.67,East,98,0.0,0.0,62,0.00,,,-99.99,326.0,HOBO +U30 +Weather +,2013-03-13 16:58:00,
2013-03-13 12:59:00,53.2,42.0,29.68,East,98,0.0,0.0,65,0.00,,,-99.99,303.0,HOBO +U30 +Weather +,2013-03-13 16:59:00,
2013-03-13 13:00:00,53.4,40.9,29.68,East,98,0.0,0.0,62,0.00,,,-99.99,277.0,HOBO +U30 +Weather +,2013-03-13 17:00:00,
2013-03-13 13:01:00,53.1,40.4,29.67,East,98,0.0,0.0,61,0.00,,,-99.99,334.0,HOBO +U30 +Weather +,2013-03-13 17:01:00,
2013-03-13 13:02:00,53.8,42.9,29.68,East,98,0.0,0.0,66,0.00,,,-99.99,282.0,HOBO +U30 +Weather +,2013-03-13 17:02:00,
2013-03-13 13:03:00,53.9,40.8,29.67,East,98,0.0,0.0,61,0.00,,,-99.99,306.0,HOBO +U30 +Weather +,2013-03-13 17:03:00,
2013-03-13 13:04:00,53.7,42.0,29.67,East,98,0.0,0.0,64,0.00,,,-99.99,323.0,HOBO +U30 +Weather +,2013-03-13 17:04:00,
2013-03-13 13:05:00,54.2,42.5,29.67,East,98,0.0,0.0,64,0.00,,,-99.99,302.0,HOBO +U30 +Weather +,2013-03-13 17:05:00,
2013-03-13 13:06:00,54.2,42.0,29.67,East,98,0.0,0.0,63,0.00,,,-99.99,287.0,HOBO +U30 +Weather +,2013-03-13 17:06:00,
2013-03-13 13:07:00,54.2,41.5,29.68,East,98,0.0,0.0,61,0.00,,,-99.99,362.0,HOBO +U30 +Weather +,2013-03-13 17:07:00,
2013-03-13 13:08:00,54.3,41.8,29.67,East,98,0.0,0.0,62,0.00,,,-99.99,387.0,HOBO +U30 +Weather +,2013-03-13 17:08:00,
2013-03-13 13:09:00,54.6,43.5,29.67,East,98,0.0,0.0,66,0.00,,,-99.99,323.0,HOBO +U30 +Weather +,2013-03-13 17:09:00,
2013-03-13 13:10:00,55.1,42.6,29.67,East,98,0.0,0.0,62,0.00,,,-99.99,334.0,HOBO +U30 +Weather +,2013-03-13 17:10:00,
2013-03-13 13:11:00,55.6,43.6,29.67,East,98,0.0,0.0,64,0.00,,,-99.99,331.0,HOBO +U30 +Weather +,2013-03-13 17:11:00,
2013-03-13 13:12:00,56.0,44.1,29.67,East,98,0.0,0.0,64,0.00,,,-99.99,332.0,HOBO +U30 +Weather +,2013-03-13 17:12:00,
2013-03-13 13:13:00,55.7,42.0,29.67,East,98,0.0,0.0,59,0.00,,,-99.99,311.0,HOBO +U30 +Weather +,2013-03-13 17:13:00,
2013-03-13 13:14:00,55.4,42.4,29.67,East,98,0.0,0.0,61,0.00,,,-99.99,327.0,HOBO +U30 +Weather +,2013-03-13 17:14:00,
2013-03-13 13:15:00,55.4,42.9,29.67,East,98,0.0,0.0,62,0.00,,,-99.99,308.0,HOBO +U30 +Weather +,2013-03-13 17:15:00,
2013-03-13 13:16:00,54.6,41.3,29.67,East,100,0.0,0.0,60,0.00,,,-99.99,288.0,HOBO +U30 +Weather +,2013-03-13 17:16:00,
2013-03-13 13:17:00,54.4,41.3,29.67,East,98,0.0,0.0,61,0.00,,,-99.99,346.0,HOBO +U30 +Weather +,2013-03-13 17:17:00,
2013-03-13 13:18:00,54.6,41.8,29.67,East,98,0.0,0.0,61,0.00,,,-99.99,291.0,HOBO +U30 +Weather +,2013-03-13 17:18:00,
2013-03-13 13:19:00,54.6,41.7,29.67,East,98,0.0,0.0,61,0.00,,,-99.99,374.0,HOBO +U30 +Weather +,2013-03-13 17:19:00,
2013-03-13 13:20:00,54.7,41.9,29.67,East,98,0.0,0.0,61,0.00,,,-99.99,302.0,HOBO +U30 +Weather +,2013-03-13 17:20:00,
2013-03-13 13:21:00,54.5,40.5,29.67,East,100,0.0,0.0,59,0.00,,,-99.99,284.0,HOBO +U30 +Weather +,2013-03-13 17:21:00,
2013-03-13 13:22:00,54.0,41.0,29.67,East,100,0.0,0.0,61,0.00,,,-99.99,273.0,HOBO +U30 +Weather +,2013-03-13 17:22:00,
2013-03-13 13:23:00,53.7,39.9,29.67,East,100,0.0,0.0,59,0.00,,,-99.99,274.0,HOBO +U30 +Weather +,2013-03-13 17:23:00,
2013-03-13 13:24:00,53.4,40.1,29.67,East,100,0.0,0.0,60,0.00,,,-99.99,248.0,HOBO +U30 +Weather +,2013-03-13 17:24:00,
2013-03-13 13:25:00,53.2,39.6,29.67,East,100,0.0,0.0,59,0.00,,,-99.99,252.0,HOBO +U30 +Weather +,2013-03-13 17:25:00,
2013-03-13 13:26:00,53.2,41.1,29.67,East,100,0.0,0.0,63,0.00,,,-99.99,256.0,HOBO +U30 +Weather +,2013-03-13 17:26:00,
2013-03-13 13:27:00,53.4,40.8,29.67,East,100,0.0,0.0,62,0.00,,,-99.99,247.0,HOBO +U30 +Weather +,2013-03-13 17:27:00,
2013-03-13 13:28:00,53.4,40.9,29.67,East,100,0.0,0.0,62,0.00,,,-99.99,237.0,HOBO +U30 +Weather +,2013-03-13 17:28:00,
2013-03-13 13:29:00,53.6,40.9,29.67,East,100,0.0,0.0,61,0.00,,,-99.99,237.0,HOBO +U30 +Weather +,2013-03-13 17:29:00,
2013-03-13 13:30:00,53.5,40.6,29.67,East,100,0.0,0.0,61,0.00,,,-99.99,226.0,HOBO +U30 +Weather +,2013-03-13 17:30:00,
2013-03-13 13:31:00,53.3,39.5,29.67,East,100,0.0,0.0,59,0.00,,,-99.99,216.0,HOBO +U30 +Weather +,2013-03-13 17:31:00,
2013-03-13 13:33:00,52.6,39.7,29.67,East,100,0.0,0.0,61,0.00,,,-99.99,216.0,HOBO +U30 +Weather +,2013-03-13 17:33:00,
2013-03-13 13:34:00,52.2,39.3,29.67,East,100,0.0,0.0,61,0.00,,,-99.99,218.0,HOBO +U30 +Weather +,2013-03-13 17:34:00,
2013-03-13 13:35:00,51.9,39.1,29.67,East,100,0.0,0.0,61,0.00,,,-99.99,221.0,HOBO +U30 +Weather +,2013-03-13 17:35:00,
2013-03-13 13:36:00,51.9,39.7,29.67,East,100,0.0,0.0,63,0.00,,,-99.99,223.0,HOBO +U30 +Weather +,2013-03-13 17:36:00,
2013-03-13 13:38:00,52.5,41.2,29.67,East,100,0.0,0.0,65,0.00,,,-99.99,226.0,HOBO +U30 +Weather +,2013-03-13 17:38:00,
2013-03-13 13:42:00,52.6,39.6,29.67,East,100,0.0,0.0,61,0.00,,,-99.99,216.0,HOBO +U30 +Weather +,2013-03-13 17:42:00,
2013-03-13 13:44:00,52.3,39.8,29.67,East,100,0.0,0.0,62,0.00,,,-99.99,221.0,HOBO +U30 +Weather +,2013-03-13 17:44:00,
2013-03-13 13:45:00,52.4,40.2,29.67,East,100,0.0,0.0,63,0.00,,,-99.99,212.0,HOBO +U30 +Weather +,2013-03-13 17:45:00,
2013-03-13 13:46:00,52.2,39.1,29.67,East,100,0.0,0.0,60,0.00,,,-99.99,209.0,HOBO +U30 +Weather +,2013-03-13 17:46:00,
2013-03-13 13:47:00,52.0,40.0,29.67,East,100,0.0,0.0,63,0.00,,,-99.99,207.0,HOBO +U30 +Weather +,2013-03-13 17:47:00,
2013-03-13 13:48:00,52.3,40.8,29.67,East,100,0.0,0.0,64,0.00,,,-99.99,208.0,HOBO +U30 +Weather +,2013-03-13 17:48:00,
2013-03-13 13:49:00,52.6,41.0,29.67,East,100,0.0,0.0,64,0.00,,,-99.99,211.0,HOBO +U30 +Weather +,2013-03-13 17:49:00,
2013-03-13 13:50:00,53.1,42.0,29.67,East,100,0.0,0.0,66,0.00,,,-99.99,226.0,HOBO +U30 +Weather +,2013-03-13 17:50:00,
2013-03-13 13:55:00,52.3,38.8,29.67,East,100,0.0,0.0,60,0.00,,,-99.99,232.0,HOBO +U30 +Weather +,2013-03-13 17:55:00,
2013-03-13 13:57:00,52.2,39.5,29.67,East,100,0.0,0.0,61,0.00,,,-99.99,251.0,HOBO +U30 +Weather +,2013-03-13 17:57:00,
2013-03-13 13:58:00,52.5,40.5,29.67,East,100,0.0,0.0,63,0.00,,,-99.99,238.0,HOBO +U30 +Weather +,2013-03-13 17:58:00,
2013-03-13 13:59:00,52.3,39.2,29.66,East,100,0.0,0.0,60,0.00,,,-99.99,237.0,HOBO +U30 +Weather +,2013-03-13 17:59:00,
2013-03-13 14:00:00,52.3,39.9,29.66,East,100,0.0,0.0,62,0.00,,,-99.99,257.0,HOBO +U30 +Weather +,2013-03-13 18:00:00,
2013-03-13 14:01:00,52.4,39.9,29.67,East,100,0.0,0.0,62,0.00,,,-99.99,261.0,HOBO +U30 +Weather +,2013-03-13 18:01:00,
2013-03-13 14:02:00,52.5,40.3,29.67,East,100,0.0,0.0,62,0.00,,,-99.99,266.0,HOBO +U30 +Weather +,2013-03-13 18:02:00,
2013-03-13 14:03:00,52.7,39.5,29.67,East,100,0.0,0.0,60,0.00,,,-99.99,286.0,HOBO +U30 +Weather +,2013-03-13 18:03:00,
2013-03-13 14:04:00,52.5,39.6,29.67,East,100,0.0,0.0,61,0.00,,,-99.99,367.0,HOBO +U30 +Weather +,2013-03-13 18:04:00,
2013-03-13 14:05:00,53.0,41.1,29.67,East,98,0.0,0.0,63,0.00,,,-99.99,416.0,HOBO +U30 +Weather +,2013-03-13 18:05:00,
2013-03-13 14:06:00,53.7,41.4,29.67,East,98,0.0,0.0,62,0.00,,,-99.99,436.0,HOBO +U30 +Weather +,2013-03-13 18:06:00,
2013-03-13 14:07:00,54.1,41.2,29.67,East,98,0.0,0.0,61,0.00,,,-99.99,433.0,HOBO +U30 +Weather +,2013-03-13 18:07:00,
2013-03-13 14:08:00,54.6,41.5,29.66,East,98,0.0,0.0,61,0.00,,,-99.99,529.0,HOBO +U30 +Weather +,2013-03-13 18:08:00,
2013-03-13 14:09:00,55.3,42.6,29.67,East,98,0.0,0.0,62,0.00,,,-99.99,427.0,HOBO +U30 +Weather +,2013-03-13 18:09:00,
2013-03-13 14:10:00,55.8,42.9,29.66,East,98,0.0,0.0,61,0.00,,,-99.99,264.0,HOBO +U30 +Weather +,2013-03-13 18:10:00,
2013-03-13 14:11:00,55.4,41.2,29.66,East,98,0.0,0.0,58,0.00,,,-99.99,242.0,HOBO +U30 +Weather +,2013-03-13 18:11:00,
2013-03-13 14:12:00,55.3,41.9,29.66,East,98,0.0,0.0,60,0.00,,,-99.99,298.0,HOBO +U30 +Weather +,2013-03-13 18:12:00,
2013-03-13 14:13:00,54.8,40.4,29.66,East,98,0.0,0.0,58,0.00,,,-99.99,372.0,HOBO +U30 +Weather +,2013-03-13 18:13:00,
2013-03-13 14:18:00,53.8,40.0,29.66,East,98,0.0,0.0,59,0.00,,,-99.99,372.0,HOBO +U30 +Weather +,2013-03-13 18:18:00,
2013-03-13 14:19:00,54.0,40.8,29.66,East,98,0.0,0.0,60,0.00,,,-99.99,408.0,HOBO +U30 +Weather +,2013-03-13 18:19:00,
2013-03-13 14:20:00,54.3,40.9,29.66,East,98,0.0,0.0,60,0.00,,,-99.99,454.0,HOBO +U30 +Weather +,2013-03-13 18:20:00,
2013-03-13 14:21:00,54.2,40.6,29.65,East,98,0.0,0.0,59,0.00,,,-99.99,447.0,HOBO +U30 +Weather +,2013-03-13 18:21:00,
2013-03-13 14:22:00,54.9,42.2,29.66,East,98,0.0,0.0,62,0.00,,,-99.99,389.0,HOBO +U30 +Weather +,2013-03-13 18:22:00,
2013-03-13 14:23:00,55.5,43.5,29.65,East,98,0.0,0.0,63,0.00,,,-99.99,416.0,HOBO +U30 +Weather +,2013-03-13 18:23:00,
2013-03-13 14:24:00,56.1,43.8,29.65,East,98,0.0,0.0,63,0.00,,,-99.99,299.0,HOBO +U30 +Weather +,2013-03-13 18:24:00,
2013-03-13 14:25:00,56.3,43.3,29.66,East,98,0.0,0.0,61,0.00,,,-99.99,232.0,HOBO +U30 +Weather +,2013-03-13 18:25:00,
2013-03-13 14:26:00,55.8,41.4,29.66,East,100,0.0,0.0,58,0.00,,,-99.99,336.0,HOBO +U30 +Weather +,2013-03-13 18:26:00,
2013-03-13 14:27:00,55.6,41.9,29.66,East,98,0.0,0.0,59,0.00,,,-99.99,532.0,HOBO +U30 +Weather +,2013-03-13 18:27:00,
2013-03-13 14:28:00,55.9,42.8,29.66,East,98,0.0,0.0,61,0.00,,,-99.99,628.0,HOBO +U30 +Weather +,2013-03-13 18:28:00,
2013-03-13 14:29:00,55.8,40.9,29.65,East,98,0.0,0.0,57,0.00,,,-99.99,641.0,HOBO +U30 +Weather +,2013-03-13 18:29:00,
2013-03-13 14:30:00,55.6,41.7,29.66,East,98,0.0,0.0,59,0.00,,,-99.99,596.0,HOBO +U30 +Weather +,2013-03-13 18:30:00,
2013-03-13 14:32:00,56.2,42.5,29.66,East,98,0.0,0.0,59,0.00,,,-99.99,636.0,HOBO +U30 +Weather +,2013-03-13 18:32:00,
2013-03-13 14:33:00,56.3,43.3,29.65,East,98,0.0,0.0,61,0.00,,,-99.99,626.0,HOBO +U30 +Weather +,2013-03-13 18:33:00,
2013-03-13 14:34:00,56.9,43.5,29.65,East,98,0.0,0.0,60,0.00,,,-99.99,619.0,HOBO +U30 +Weather +,2013-03-13 18:34:00,
2013-03-13 14:35:00,57.5,44.5,29.66,East,98,0.0,0.0,61,0.00,,,-99.99,613.0,HOBO +U30 +Weather +,2013-03-13 18:35:00,
2013-03-13 14:36:00,57.2,42.3,29.65,East,98,0.0,0.0,57,0.00,,,-99.99,572.0,HOBO +U30 +Weather +,2013-03-13 18:36:00,
2013-03-13 14:37:00,56.9,42.2,29.66,East,98,0.0,0.0,57,0.00,,,-99.99,604.0,HOBO +U30 +Weather +,2013-03-13 18:37:00,
2013-03-13 14:38:00,56.8,42.9,29.66,East,98,0.0,0.0,59,0.00,,,-99.99,578.0,HOBO +U30 +Weather +,2013-03-13 18:38:00,
2013-03-13 14:39:00,56.8,43.2,29.65,East,98,0.0,0.0,60,0.00,,,-99.99,473.0,HOBO +U30 +Weather +,2013-03-13 18:39:00,
2013-03-13 14:45:00,55.1,41.3,29.65,East,98,0.0,0.0,59,0.00,,,-99.99,478.0,HOBO +U30 +Weather +,2013-03-13 18:45:00,
2013-03-13 14:46:00,54.6,38.7,29.65,East,98,0.0,0.0,54,0.00,,,-99.99,592.0,HOBO +U30 +Weather +,2013-03-13 18:46:00,
2013-03-13 14:47:00,54.2,38.9,29.65,East,98,0.0,0.0,56,0.00,,,-99.99,638.0,HOBO +U30 +Weather +,2013-03-13 18:47:00,
2013-03-13 14:48:00,54.3,40.1,29.65,East,98,0.0,0.0,58,0.00,,,-99.99,494.0,HOBO +U30 +Weather +,2013-03-13 18:48:00,
2013-03-13 14:49:00,54.6,40.0,29.65,East,98,0.0,0.0,57,0.00,,,-99.99,482.0,HOBO +U30 +Weather +,2013-03-13 18:49:00,
2013-03-13 14:50:00,54.6,40.1,29.65,East,98,0.0,0.0,58,0.00,,,-99.99,617.0,HOBO +U30 +Weather +,2013-03-13 18:50:00,
2013-03-13 14:51:00,54.5,38.9,29.65,East,98,0.0,0.0,55,0.00,,,-99.99,617.0,HOBO +U30 +Weather +,2013-03-13 18:51:00,
2013-03-13 14:52:00,54.6,40.1,29.65,East,98,0.0,0.0,57,0.00,,,-99.99,614.0,HOBO +U30 +Weather +,2013-03-13 18:52:00,
2013-03-13 14:53:00,54.9,39.8,29.65,East,98,0.0,0.0,56,0.00,,,-99.99,616.0,HOBO +U30 +Weather +,2013-03-13 18:53:00,
2013-03-13 14:54:00,55.0,40.0,29.65,East,98,0.0,0.0,56,0.00,,,-99.99,616.0,HOBO +U30 +Weather +,2013-03-13 18:54:00,
2013-03-13 14:55:00,55.0,39.1,29.65,East,98,0.0,0.0,54,0.00,,,-99.99,619.0,HOBO +U30 +Weather +,2013-03-13 18:55:00,
2013-03-13 14:56:00,55.1,39.5,29.65,East,98,0.0,0.0,55,0.00,,,-99.99,623.0,HOBO +U30 +Weather +,2013-03-13 18:56:00,
2013-03-13 14:58:00,54.8,38.1,29.65,East,98,0.0,0.0,53,0.00,,,-99.99,629.0,HOBO +U30 +Weather +,2013-03-13 18:58:00,
2013-03-13 14:59:00,54.3,38.3,29.64,East,98,0.0,0.0,54,0.00,,,-99.99,627.0,HOBO +U30 +Weather +,2013-03-13 18:59:00,
2013-03-13 15:00:00,54.6,39.8,29.65,East,98,0.0,0.0,57,0.00,,,-99.99,629.0,HOBO +U30 +Weather +,2013-03-13 19:00:00,
2013-03-13 15:01:00,55.0,40.0,29.65,East,98,0.0,0.0,56,0.00,,,-99.99,631.0,HOBO +U30 +Weather +,2013-03-13 19:01:00,
2013-03-13 15:02:00,54.9,37.5,29.65,East,98,0.0,0.0,51,0.00,,,-99.99,631.0,HOBO +U30 +Weather +,2013-03-13 19:02:00,
2013-03-13 15:03:00,54.6,38.0,29.65,East,98,0.0,0.0,53,0.00,,,-99.99,634.0,HOBO +U30 +Weather +,2013-03-13 19:03:00,
2013-03-13 15:04:00,54.7,39.1,29.65,East,98,0.0,0.0,55,0.00,,,-99.99,637.0,HOBO +U30 +Weather +,2013-03-13 19:04:00,
2013-03-13 15:05:00,55.2,40.3,29.65,East,98,0.0,0.0,57,0.00,,,-99.99,637.0,HOBO +U30 +Weather +,2013-03-13 19:05:00,
2013-03-13 15:06:00,55.2,38.9,29.65,East,98,0.0,0.0,54,0.00,,,-99.99,638.0,HOBO +U30 +Weather +,2013-03-13 19:06:00,
2013-03-13 15:07:00,54.9,38.8,29.65,East,98,0.0,0.0,54,0.00,,,-99.99,641.0,HOBO +U30 +Weather +,2013-03-13 19:07:00,
2013-03-13 15:08:00,54.7,38.1,29.65,East,98,0.0,0.0,53,0.00,,,-99.99,642.0,HOBO +U30 +Weather +,2013-03-13 19:08:00,
2013-03-13 15:09:00,55.0,40.9,29.65,East,98,0.0,0.0,58,0.00,,,-99.99,642.0,HOBO +U30 +Weather +,2013-03-13 19:09:00,
2013-03-13 15:10:00,54.9,39.0,29.65,East,98,0.0,0.0,54,0.00,,,-99.99,646.0,HOBO +U30 +Weather +,2013-03-13 19:10:00,
2013-03-13 15:12:00,55.0,39.3,29.65,East,98,0.0,0.0,55,0.00,,,-99.99,646.0,HOBO +U30 +Weather +,2013-03-13 19:12:00,
2013-03-13 15:13:00,54.5,37.8,29.65,East,98,0.0,0.0,53,0.00,,,-99.99,646.0,HOBO +U30 +Weather +,2013-03-13 19:13:00,
2013-03-13 15:14:00,54.3,38.5,29.65,East,98,0.0,0.0,55,0.00,,,-99.99,649.0,HOBO +U30 +Weather +,2013-03-13 19:14:00,
2013-03-13 15:15:00,54.2,38.2,29.64,East,98,0.0,0.0,54,0.00,,,-99.99,651.0,HOBO +U30 +Weather +,2013-03-13 19:15:00,
2013-03-13 15:16:00,54.5,39.0,29.64,East,98,0.0,0.0,55,0.00,,,-99.99,651.0,HOBO +U30 +Weather +,2013-03-13 19:16:00,
2013-03-13 15:17:00,54.4,38.5,29.65,East,98,0.0,0.0,54,0.00,,,-99.99,654.0,HOBO +U30 +Weather +,2013-03-13 19:17:00,
2013-03-13 15:18:00,54.4,37.9,29.64,East,98,0.0,0.0,53,0.00,,,-99.99,657.0,HOBO +U30 +Weather +,2013-03-13 19:18:00,
2013-03-13 15:21:00,54.4,37.5,29.64,East,98,0.0,0.0,52,0.00,,,-99.99,659.0,HOBO +U30 +Weather +,2013-03-13 19:21:00,
2013-03-13 15:22:00,54.6,39.9,29.64,East,98,0.0,0.0,57,0.00,,,-99.99,659.0,HOBO +U30 +Weather +,2013-03-13 19:22:00,
2013-03-13 15:24:00,54.7,39.3,29.64,East,98,0.0,0.0,55,0.00,,,-99.99,662.0,HOBO +U30 +Weather +,2013-03-13 19:24:00,
2013-03-13 15:25:00,54.8,39.3,29.64,East,98,0.0,0.0,55,0.00,,,-99.99,661.0,HOBO +U30 +Weather +,2013-03-13 19:25:00,
2013-03-13 15:26:00,54.9,39.2,29.64,East,98,0.0,0.0,55,0.00,,,-99.99,664.0,HOBO +U30 +Weather +,2013-03-13 19:26:00,
2013-03-13 15:27:00,55.0,39.7,29.64,East,98,0.0,0.0,56,0.00,,,-99.99,668.0,HOBO +U30 +Weather +,2013-03-13 19:27:00,
2013-03-13 15:28:00,55.1,38.5,29.64,East,98,0.0,0.0,53,0.00,,,-99.99,663.0,HOBO +U30 +Weather +,2013-03-13 19:28:00,
2013-03-13 15:32:00,55.3,40.8,29.64,East,98,0.0,0.0,58,0.00,,,-99.99,379.0,HOBO +U30 +Weather +,2013-03-13 19:32:00,
2013-03-13 15:33:00,55.7,40.8,29.64,East,98,0.0,0.0,57,0.00,,,-99.99,478.0,HOBO +U30 +Weather +,2013-03-13 19:33:00,
2013-03-13 15:34:00,55.9,39.8,29.64,East,98,0.0,0.0,54,0.00,,,-99.99,501.0,HOBO +U30 +Weather +,2013-03-13 19:34:00,
2013-03-13 15:35:00,56.0,40.5,29.64,East,98,0.0,0.0,55,0.00,,,-99.99,349.0,HOBO +U30 +Weather +,2013-03-13 19:35:00,
2013-03-13 15:36:00,56.3,41.8,29.63,East,98,0.0,0.0,58,0.00,,,-99.99,364.0,HOBO +U30 +Weather +,2013-03-13 19:36:00,
2013-03-13 15:37:00,56.5,41.6,29.64,East,98,0.0,0.0,57,0.00,,,-99.99,376.0,HOBO +U30 +Weather +,2013-03-13 19:37:00,
2013-03-13 15:38:00,56.6,41.2,29.64,East,98,0.0,0.0,56,0.00,,,-99.99,413.0,HOBO +U30 +Weather +,2013-03-13 19:38:00,
2013-03-13 15:39:00,56.7,42.4,29.63,East,100,0.0,0.0,58,0.00,,,-99.99,648.0,HOBO +U30 +Weather +,2013-03-13 19:39:00,
2013-03-13 15:40:00,56.7,42.1,29.63,East,98,0.0,0.0,57,0.00,,,-99.99,524.0,HOBO +U30 +Weather +,2013-03-13 19:40:00,
2013-03-13 15:41:00,56.8,42.0,29.63,East,98,0.0,0.0,57,0.00,,,-99.99,666.0,HOBO +U30 +Weather +,2013-03-13 19:41:00,
2013-03-13 15:42:00,56.8,41.0,29.63,East,98,0.0,0.0,55,0.00,,,-99.99,631.0,HOBO +U30 +Weather +,2013-03-13 19:42:00,
2013-03-13 15:43:00,56.9,42.0,29.64,East,98,0.0,0.0,57,0.00,,,-99.99,682.0,HOBO +U30 +Weather +,2013-03-13 19:43:00,
2013-03-13 15:44:00,57.0,41.2,29.64,East,98,0.0,0.0,55,0.00,,,-99.99,688.0,HOBO +U30 +Weather +,2013-03-13 19:44:00,
2013-03-13 15:45:00,56.5,39.8,29.63,East,98,0.0,0.0,53,0.00,,,-99.99,684.0,HOBO +U30 +Weather +,2013-03-13 19:45:00,
2013-03-13 15:46:00,56.5,41.2,29.63,East,98,0.0,0.0,56,0.00,,,-99.99,688.0,HOBO +U30 +Weather +,2013-03-13 19:46:00,
2013-03-13 15:47:00,56.7,42.0,29.63,East,100,0.0,0.0,57,0.00,,,-99.99,688.0,HOBO +U30 +Weather +,2013-03-13 19:47:00,
2013-03-13 15:48:00,56.9,42.3,29.63,East,98,0.0,0.0,58,0.00,,,-99.99,689.0,HOBO +U30 +Weather +,2013-03-13 19:48:00,
2013-03-13 15:49:00,57.0,42.5,29.64,East,98,0.0,0.0,58,0.00,,,-99.99,689.0,HOBO +U30 +Weather +,2013-03-13 19:49:00,
2013-03-13 15:50:00,57.3,43.9,29.63,East,98,0.0,0.0,60,0.00,,,-99.99,693.0,HOBO +U30 +Weather +,2013-03-13 19:50:00,
2013-03-13 15:51:00,56.9,41.2,29.64,East,98,0.0,0.0,55,0.00,,,-99.99,693.0,HOBO +U30 +Weather +,2013-03-13 19:51:00,
2013-03-13 15:52:00,56.3,41.1,29.64,East,98,0.0,0.0,56,0.00,,,-99.99,694.0,HOBO +U30 +Weather +,2013-03-13 19:52:00,
2013-03-13 15:53:00,56.0,40.0,29.63,East,100,0.0,0.0,54,0.00,,,-99.99,694.0,HOBO +U30 +Weather +,2013-03-13 19:53:00,
2013-03-13 15:54:00,55.1,39.8,29.63,East,98,0.0,0.0,56,0.00,,,-99.99,696.0,HOBO +U30 +Weather +,2013-03-13 19:54:00,
2013-03-13 15:55:00,54.7,40.8,29.64,East,98,0.0,0.0,59,0.00,,,-99.99,697.0,HOBO +U30 +Weather +,2013-03-13 19:55:00,
2013-03-13 15:56:00,54.8,41.2,29.64,East,98,0.0,0.0,60,0.00,,,-99.99,697.0,HOBO +U30 +Weather +,2013-03-13 19:56:00,
2013-03-13 15:57:00,55.1,42.1,29.63,East,98,0.0,0.0,61,0.00,,,-99.99,696.0,HOBO +U30 +Weather +,2013-03-13 19:57:00,
2013-03-13 15:58:00,55.1,41.3,29.63,East,98,0.0,0.0,59,0.00,,,-99.99,699.0,HOBO +U30 +Weather +,2013-03-13 19:58:00,
2013-03-13 15:59:00,55.2,41.9,29.64,East,98,0.0,0.0,60,0.00,,,-99.99,699.0,HOBO +U30 +Weather +,2013-03-13 19:59:00,
2013-03-13 16:00:00,55.3,42.3,29.64,East,100,0.0,0.0,61,0.00,,,-99.99,701.0,HOBO +U30 +Weather +,2013-03-13 20:00:00,
2013-03-13 16:01:00,55.4,42.3,29.64,East,100,0.0,0.0,61,0.00,,,-99.99,701.0,HOBO +U30 +Weather +,2013-03-13 20:01:00,
2013-03-13 16:02:00,55.4,41.0,29.64,East,98,0.0,0.0,58,0.00,,,-99.99,703.0,HOBO +U30 +Weather +,2013-03-13 20:02:00,
2013-03-13 16:03:00,55.2,41.0,29.63,East,100,0.0,0.0,58,0.00,,,-99.99,704.0,HOBO +U30 +Weather +,2013-03-13 20:03:00,
2013-03-13 16:04:00,55.0,42.2,29.64,East,100,0.0,0.0,62,0.00,,,-99.99,703.0,HOBO +U30 +Weather +,2013-03-13 20:04:00,
2013-03-13 16:05:00,55.1,42.3,29.64,East,100,0.0,0.0,61,0.00,,,-99.99,703.0,HOBO +U30 +Weather +,2013-03-13 20:05:00,
2013-03-13 16:06:00,55.3,42.4,29.63,East,100,0.0,0.0,61,0.00,,,-99.99,707.0,HOBO +U30 +Weather +,2013-03-13 20:06:00,
2013-03-13 16:07:00,55.1,41.1,29.63,East,100,0.0,0.0,59,0.00,,,-99.99,707.0,HOBO +U30 +Weather +,2013-03-13 20:07:00,
2013-03-13 16:08:00,55.0,41.9,29.63,East,100,0.0,0.0,61,0.00,,,-99.99,703.0,HOBO +U30 +Weather +,2013-03-13 20:08:00,
2013-03-13 16:09:00,55.1,42.3,29.64,East,100,0.0,0.0,61,0.00,,,-99.99,703.0,HOBO +U30 +Weather +,2013-03-13 20:09:00,
2013-03-13 16:10:00,55.3,42.6,29.63,East,100,0.0,0.0,62,0.00,,,-99.99,707.0,HOBO +U30 +Weather +,2013-03-13 20:10:00,
2013-03-13 16:11:00,55.3,42.2,29.63,East,100,0.0,0.0,61,0.00,,,-99.99,707.0,HOBO +U30 +Weather +,2013-03-13 20:11:00,
2013-03-13 16:12:00,55.4,42.8,29.63,East,100,0.0,0.0,62,0.00,,,-99.99,706.0,HOBO +U30 +Weather +,2013-03-13 20:12:00,
2013-03-13 16:13:00,55.4,42.4,29.64,East,100,0.0,0.0,61,0.00,,,-99.99,708.0,HOBO +U30 +Weather +,2013-03-13 20:13:00,
2013-03-13 16:14:00,55.5,42.6,29.64,East,100,0.0,0.0,61,0.00,,,-99.99,708.0,HOBO +U30 +Weather +,2013-03-13 20:14:00,
2013-03-13 16:15:00,55.7,43.1,29.63,East,100,0.0,0.0,62,0.00,,,-99.99,708.0,HOBO +U30 +Weather +,2013-03-13 20:15:00,
2013-03-13 16:16:00,55.7,42.6,29.63,East,98,0.0,0.0,61,0.00,,,-99.99,709.0,HOBO +U30 +Weather +,2013-03-13 20:16:00,
2013-03-13 16:17:00,55.4,41.7,29.63,East,98,0.0,0.0,59,0.00,,,-99.99,708.0,HOBO +U30 +Weather +,2013-03-13 20:17:00,
2013-03-13 16:18:00,55.2,41.1,29.64,East,100,0.0,0.0,58,0.00,,,-99.99,706.0,HOBO +U30 +Weather +,2013-03-13 20:18:00,
2013-03-13 16:19:00,55.1,41.6,29.64,East,100,0.0,0.0,60,0.00,,,-99.99,703.0,HOBO +U30 +Weather +,2013-03-13 20:19:00,
2013-03-13 16:20:00,55.0,41.6,29.64,East,100,0.0,0.0,60,0.00,,,-99.99,709.0,HOBO +U30 +Weather +,2013-03-13 20:20:00,
2013-03-13 16:21:00,54.6,39.9,29.64,East,98,0.0,0.0,57,0.00,,,-99.99,707.0,HOBO +U30 +Weather +,2013-03-13 20:21:00,
2013-03-13 16:22:00,54.6,41.4,29.63,East,100,0.0,0.0,60,0.00,,,-99.99,708.0,HOBO +U30 +Weather +,2013-03-13 20:22:00,
2013-03-13 16:23:00,54.5,40.6,29.63,East,100,0.0,0.0,59,0.00,,,-99.99,706.0,HOBO +U30 +Weather +,2013-03-13 20:23:00,
2013-03-13 16:24:00,54.6,41.2,29.64,East,100,0.0,0.0,60,0.00,,,-99.99,708.0,HOBO +U30 +Weather +,2013-03-13 20:24:00,
2013-03-13 16:25:00,54.6,41.7,29.64,East,100,0.0,0.0,61,0.00,,,-99.99,708.0,HOBO +U30 +Weather +,2013-03-13 20:25:00,
2013-03-13 16:26:00,54.7,41.2,29.63,East,100,0.0,0.0,60,0.00,,,-99.99,708.0,HOBO +U30 +Weather +,2013-03-13 20:26:00,
2013-03-13 16:27:00,54.7,41.5,29.63,East,100,0.0,0.0,60,0.00,,,-99.99,708.0,HOBO +U30 +Weather +,2013-03-13 20:27:00,
2013-03-13 16:28:00,54.8,41.5,29.63,East,100,0.0,0.0,60,0.00,,,-99.99,708.0,HOBO +U30 +Weather +,2013-03-13 20:28:00,
2013-03-13 16:29:00,54.3,39.5,29.63,East,98,0.0,0.0,57,0.00,,,-99.99,709.0,HOBO +U30 +Weather +,2013-03-13 20:29:00,
2013-03-13 16:30:00,54.0,39.8,29.63,East,100,0.0,0.0,58,0.00,,,-99.99,711.0,HOBO +U30 +Weather +,2013-03-13 20:30:00,
2013-03-13 16:31:00,54.1,41.3,29.63,East,100,0.0,0.0,61,0.00,,,-99.99,709.0,HOBO +U30 +Weather +,2013-03-13 20:31:00,
2013-03-13 16:32:00,54.2,40.7,29.64,East,100,0.0,0.0,60,0.00,,,-99.99,709.0,HOBO +U30 +Weather +,2013-03-13 20:32:00,
2013-03-13 16:33:00,54.2,40.9,29.63,East,100,0.0,0.0,60,0.00,,,-99.99,707.0,HOBO +U30 +Weather +,2013-03-13 20:33:00,
2013-03-13 16:34:00,54.2,41.1,29.63,East,100,0.0,0.0,60,0.00,,,-99.99,707.0,HOBO +U30 +Weather +,2013-03-13 20:34:00,
2013-03-13 16:35:00,54.1,40.2,29.64,East,100,0.0,0.0,59,0.00,,,-99.99,704.0,HOBO +U30 +Weather +,2013-03-13 20:35:00,
2013-03-13 16:36:00,54.0,40.7,29.64,East,100,0.0,0.0,60,0.00,,,-99.99,698.0,HOBO +U30 +Weather +,2013-03-13 20:36:00,
2013-03-13 16:37:00,53.9,41.0,29.63,East,100,0.0,0.0,61,0.00,,,-99.99,697.0,HOBO +U30 +Weather +,2013-03-13 20:37:00,
2013-03-13 16:38:00,54.1,41.8,29.64,East,100,0.0,0.0,62,0.00,,,-99.99,702.0,HOBO +U30 +Weather +,2013-03-13 20:38:00,
2013-03-13 16:39:00,54.1,40.7,29.63,East,100,0.0,0.0,60,0.00,,,-99.99,696.0,HOBO +U30 +Weather +,2013-03-13 20:39:00,
2013-03-13 16:40:00,53.8,40.9,29.63,East,100,0.0,0.0,61,0.00,,,-99.99,682.0,HOBO +U30 +Weather +,2013-03-13 20:40:00,
2013-03-13 16:41:00,53.9,41.4,29.64,East,100,0.0,0.0,62,0.00,,,-99.99,656.0,HOBO +U30 +Weather +,2013-03-13 20:41:00,
2013-03-13 16:42:00,53.9,40.8,29.64,East,100,0.0,0.0,61,0.00,,,-99.99,634.0,HOBO +U30 +Weather +,2013-03-13 20:42:00,
2013-03-13 16:43:00,53.5,39.1,29.64,East,100,0.0,0.0,58,0.00,,,-99.99,617.0,HOBO +U30 +Weather +,2013-03-13 20:43:00,
2013-03-13 16:44:00,53.3,39.2,29.64,East,100,0.0,0.0,58,0.00,,,-99.99,604.0,HOBO +U30 +Weather +,2013-03-13 20:44:00,
2013-03-13 16:45:00,53.3,39.8,29.64,East,100,0.0,0.0,60,0.00,,,-99.99,536.0,HOBO +U30 +Weather +,2013-03-13 20:45:00,
2013-03-13 16:46:00,53.1,39.3,29.64,East,100,0.0,0.0,59,0.00,,,-99.99,512.0,HOBO +U30 +Weather +,2013-03-13 20:46:00,
2013-03-13 16:47:00,52.6,37.3,29.63,East,100,0.0,0.0,55,0.00,,,-99.99,439.0,HOBO +U30 +Weather +,2013-03-13 20:47:00,
2013-03-13 16:48:00,52.4,36.8,29.64,East,100,0.0,0.0,55,0.00,,,-99.99,357.0,HOBO +U30 +Weather +,2013-03-13 20:48:00,
2013-03-13 16:49:00,52.2,37.8,29.64,East,100,0.0,0.0,57,0.00,,,-99.99,183.0,HOBO +U30 +Weather +,2013-03-13 20:49:00,
2013-03-13 16:50:00,52.1,37.5,29.63,East,100,0.0,0.0,57,0.00,,,-99.99,101.0,HOBO +U30 +Weather +,2013-03-13 20:50:00,
2013-03-13 16:51:00,52.0,36.9,29.64,East,100,0.0,0.0,56,0.00,,,-99.99,102.0,HOBO +U30 +Weather +,2013-03-13 20:51:00,
2013-03-13 16:52:00,51.8,35.7,29.64,East,100,0.0,0.0,53,0.00,,,-99.99,74.0,HOBO +U30 +Weather +,2013-03-13 20:52:00,
2013-03-13 16:53:00,51.6,35.4,29.64,East,100,0.0,0.0,53,0.00,,,-99.99,49.0,HOBO +U30 +Weather +,2013-03-13 20:53:00,
2013-03-13 16:54:00,51.4,36.2,29.64,East,100,0.0,0.0,55,0.00,,,-99.99,67.0,HOBO +U30 +Weather +,2013-03-13 20:54:00,
2013-03-13 16:55:00,51.3,36.0,29.63,East,100,0.0,0.0,55,0.00,,,-99.99,54.0,HOBO +U30 +Weather +,2013-03-13 20:55:00,
2013-03-13 16:56:00,51.2,34.4,29.64,East,100,0.0,0.0,52,0.00,,,-99.99,46.0,HOBO +U30 +Weather +,2013-03-13 20:56:00,
2013-03-13 16:57:00,51.1,35.7,29.64,East,100,0.0,0.0,55,0.00,,,-99.99,62.0,HOBO +U30 +Weather +,2013-03-13 20:57:00,
2013-03-13 16:58:00,50.9,35.0,29.64,East,100,0.0,0.0,54,0.00,,,-99.99,53.0,HOBO +U30 +Weather +,2013-03-13 20:58:00,
2013-03-13 16:59:00,50.8,33.8,29.64,East,100,0.0,0.0,52,0.00,,,-99.99,51.0,HOBO +U30 +Weather +,2013-03-13 20:59:00,
2013-03-13 17:00:00,50.6,34.1,29.64,East,100,0.0,0.0,53,0.00,,,-99.99,43.0,HOBO +U30 +Weather +,2013-03-13 21:00:00,
2013-03-13 17:01:00,50.5,33.9,29.64,East,100,0.0,0.0,52,0.00,,,-99.99,48.0,HOBO +U30 +Weather +,2013-03-13 21:01:00,
2013-03-13 17:02:00,50.5,34.6,29.64,East,100,0.0,0.0,54,0.00,,,-99.99,84.0,HOBO +U30 +Weather +,2013-03-13 21:02:00,
2013-03-13 17:03:00,50.4,34.8,29.64,East,100,0.0,0.0,54,0.00,,,-99.99,162.0,HOBO +U30 +Weather +,2013-03-13 21:03:00,
2013-03-13 17:04:00,50.5,35.8,29.65,East,100,0.0,0.0,57,0.00,,,-99.99,148.0,HOBO +U30 +Weather +,2013-03-13 21:04:00,
2013-03-13 17:05:00,50.5,34.6,29.64,East,100,0.0,0.0,54,0.00,,,-99.99,83.0,HOBO +U30 +Weather +,2013-03-13 21:05:00,
2013-03-13 17:06:00,50.5,34.0,29.65,East,100,0.0,0.0,52,0.00,,,-99.99,66.0,HOBO +U30 +Weather +,2013-03-13 21:06:00,
2013-03-13 17:07:00,50.5,34.1,29.65,East,100,0.0,0.0,53,0.00,,,-99.99,71.0,HOBO +U30 +Weather +,2013-03-13 21:07:00,
2013-03-13 17:08:00,50.5,34.1,29.65,East,100,0.0,0.0,53,0.00,,,-99.99,79.0,HOBO +U30 +Weather +,2013-03-13 21:08:00,
2013-03-13 17:09:00,50.5,34.9,29.64,East,100,0.0,0.0,54,0.00,,,-99.99,127.0,HOBO +U30 +Weather +,2013-03-13 21:09:00,
2013-03-13 17:10:00,50.4,33.7,29.65,East,100,0.0,0.0,52,0.00,,,-99.99,129.0,HOBO +U30 +Weather +,2013-03-13 21:10:00,
2013-03-13 17:11:00,50.4,33.5,29.65,East,100,0.0,0.0,52,0.00,,,-99.99,84.0,HOBO +U30 +Weather +,2013-03-13 21:11:00,
2013-03-13 17:12:00,50.3,33.9,29.65,East,100,0.0,0.0,53,0.00,,,-99.99,76.0,HOBO +U30 +Weather +,2013-03-13 21:12:00,
2013-03-13 17:13:00,50.2,33.4,29.64,East,100,0.0,0.0,52,0.00,,,-99.99,53.0,HOBO +U30 +Weather +,2013-03-13 21:13:00,
2013-03-13 17:14:00,50.0,32.5,29.65,East,100,0.0,0.0,50,0.00,,,-99.99,42.0,HOBO +U30 +Weather +,2013-03-13 21:14:00,
2013-03-13 17:15:00,49.8,32.8,29.65,East,100,0.0,0.0,51,0.00,,,-99.99,42.0,HOBO +U30 +Weather +,2013-03-13 21:15:00,
2013-03-13 17:16:00,49.8,33.2,29.65,East,100,0.0,0.0,52,0.00,,,-99.99,41.0,HOBO +U30 +Weather +,2013-03-13 21:16:00,
2013-03-13 17:17:00,49.8,32.9,29.65,East,100,0.0,0.0,52,0.00,,,-99.99,43.0,HOBO +U30 +Weather +,2013-03-13 21:17:00,
2013-03-13 17:18:00,49.7,32.5,29.65,East,100,0.0,0.0,51,0.00,,,-99.99,54.0,HOBO +U30 +Weather +,2013-03-13 21:18:00,
2013-03-13 17:19:00,49.8,31.8,29.65,East,100,0.0,0.0,49,0.00,,,-99.99,66.0,HOBO +U30 +Weather +,2013-03-13 21:19:00,
2013-03-13 17:20:00,49.7,32.4,29.65,East,100,0.0,0.0,51,0.00,,,-99.99,64.0,HOBO +U30 +Weather +,2013-03-13 21:20:00,
2013-03-13 17:21:00,49.6,33.3,29.65,East,100,0.0,0.0,53,0.00,,,-99.99,66.0,HOBO +U30 +Weather +,2013-03-13 21:21:00,
2013-03-13 17:22:00,49.5,33.4,29.65,East,100,0.0,0.0,53,0.00,,,-99.99,84.0,HOBO +U30 +Weather +,2013-03-13 21:22:00,
2013-03-13 17:24:00,49.4,32.4,29.65,East,100,0.0,0.0,51,0.00,,,-99.99,48.0,HOBO +U30 +Weather +,2013-03-13 21:24:00,
2013-03-13 17:25:00,49.3,32.3,29.65,East,100,0.0,0.0,51,0.00,,,-99.99,83.0,HOBO +U30 +Weather +,2013-03-13 21:25:00,
2013-03-13 17:26:00,49.1,32.0,29.65,East,100,0.0,0.0,51,0.00,,,-99.99,89.0,HOBO +U30 +Weather +,2013-03-13 21:26:00,
2013-03-13 17:27:00,48.9,32.0,29.65,East,100,0.0,0.0,51,0.00,,,-99.99,76.0,HOBO +U30 +Weather +,2013-03-13 21:27:00,
2013-03-13 17:28:00,48.8,31.7,29.65,East,100,0.0,0.0,51,0.00,,,-99.99,67.0,HOBO +U30 +Weather +,2013-03-13 21:28:00,
2013-03-13 17:29:00,48.8,31.8,29.65,East,100,0.0,0.0,51,0.00,,,-99.99,56.0,HOBO +U30 +Weather +,2013-03-13 21:29:00,
2013-03-13 17:30:00,48.7,31.9,29.64,East,100,0.0,0.0,52,0.00,,,-99.99,47.0,HOBO +U30 +Weather +,2013-03-13 21:30:00,
2013-03-13 17:31:00,48.6,31.9,29.65,East,100,0.0,0.0,52,0.00,,,-99.99,37.0,HOBO +U30 +Weather +,2013-03-13 21:31:00,
2013-03-13 17:32:00,48.7,31.9,29.65,East,100,0.0,0.0,52,0.00,,,-99.99,34.0,HOBO +U30 +Weather +,2013-03-13 21:32:00,
2013-03-13 17:33:00,48.6,31.9,29.65,East,100,0.0,0.0,52,0.00,,,-99.99,33.0,HOBO +U30 +Weather +,2013-03-13 21:33:00,
2013-03-13 17:34:00,48.6,31.9,29.65,East,100,0.0,0.0,52,0.00,,,-99.99,34.0,HOBO +U30 +Weather +,2013-03-13 21:34:00,
2013-03-13 17:35:00,48.5,31.9,29.65,East,100,0.0,0.0,52,0.00,,,-99.99,33.0,HOBO +U30 +Weather +,2013-03-13 21:35:00,
2013-03-13 17:36:00,48.4,31.4,29.65,East,100,0.0,0.0,51,0.00,,,-99.99,32.0,HOBO +U30 +Weather +,2013-03-13 21:36:00,
2013-03-13 17:37:00,48.2,32.1,29.65,East,100,0.0,0.0,53,0.00,,,-99.99,59.0,HOBO +U30 +Weather +,2013-03-13 21:37:00,
2013-03-13 17:38:00,48.1,32.2,29.66,East,100,0.0,0.0,53,0.00,,,-99.99,94.0,HOBO +U30 +Weather +,2013-03-13 21:38:00,
2013-03-13 17:39:00,47.9,32.9,29.65,East,100,0.0,0.0,55,0.00,,,-99.99,99.0,HOBO +U30 +Weather +,2013-03-13 21:39:00,
2013-03-13 17:40:00,48.0,32.1,29.65,East,100,0.0,0.0,53,0.00,,,-99.99,78.0,HOBO +U30 +Weather +,2013-03-13 21:40:00,
2013-03-13 17:41:00,47.8,31.9,29.65,East,100,0.0,0.0,53,0.00,,,-99.99,53.0,HOBO +U30 +Weather +,2013-03-13 21:41:00,
2013-03-13 17:42:00,48.0,31.6,29.65,East,100,0.0,0.0,52,0.00,,,-99.99,48.0,HOBO +U30 +Weather +,2013-03-13 21:42:00,
2013-03-13 17:43:00,47.9,31.5,29.65,East,100,0.0,0.0,52,0.00,,,-99.99,31.0,HOBO +U30 +Weather +,2013-03-13 21:43:00,
2013-03-13 17:44:00,47.9,31.6,29.65,East,100,0.0,0.0,53,0.00,,,-99.99,33.0,HOBO +U30 +Weather +,2013-03-13 21:44:00,
2013-03-13 17:45:00,47.9,31.5,29.65,East,100,0.0,0.0,52,0.00,,,-99.99,32.0,HOBO +U30 +Weather +,2013-03-13 21:45:00,
2013-03-13 17:46:00,47.9,31.4,29.66,East,100,0.0,0.0,52,0.00,,,-99.99,28.0,HOBO +U30 +Weather +,2013-03-13 21:46:00,
2013-03-13 17:47:00,47.8,31.5,29.66,East,100,0.0,0.0,52,0.00,,,-99.99,28.0,HOBO +U30 +Weather +,2013-03-13 21:47:00,
2013-03-13 17:48:00,47.7,32.2,29.65,East,100,0.0,0.0,54,0.00,,,-99.99,28.0,HOBO +U30 +Weather +,2013-03-13 21:48:00,
2013-03-13 17:49:00,47.6,31.9,29.65,East,100,0.0,0.0,54,0.00,,,-99.99,28.0,HOBO +U30 +Weather +,2013-03-13 21:49:00,
2013-03-13 17:50:00,47.4,31.5,29.66,East,100,0.0,0.0,53,0.00,,,-99.99,27.0,HOBO +U30 +Weather +,2013-03-13 21:50:00,
2013-03-13 17:51:00,47.3,31.5,29.66,East,100,0.0,0.0,53,0.00,,,-99.99,27.0,HOBO +U30 +Weather +,2013-03-13 21:51:00,
2013-03-13 17:52:00,47.3,31.1,29.66,East,100,0.0,0.0,53,0.00,,,-99.99,26.0,HOBO +U30 +Weather +,2013-03-13 21:52:00,
2013-03-13 17:53:00,47.2,31.6,29.65,East,100,0.0,0.0,54,0.00,,,-99.99,26.0,HOBO +U30 +Weather +,2013-03-13 21:53:00,
2013-03-13 17:54:00,47.0,32.0,29.65,East,100,0.0,0.0,55,0.00,,,-99.99,26.0,HOBO +U30 +Weather +,2013-03-13 21:54:00,
2013-03-13 17:55:00,46.7,32.1,29.66,East,100,0.0,0.0,56,0.00,,,-99.99,24.0,HOBO +U30 +Weather +,2013-03-13 21:55:00,
2013-03-13 17:56:00,46.6,31.5,29.65,East,100,0.0,0.0,55,0.00,,,-99.99,24.0,HOBO +U30 +Weather +,2013-03-13 21:56:00,
2013-03-13 17:57:00,46.8,30.6,29.65,East,100,0.0,0.0,52,0.00,,,-99.99,24.0,HOBO +U30 +Weather +,2013-03-13 21:57:00,
2013-03-13 17:58:00,47.1,31.1,29.65,East,100,0.0,0.0,53,0.00,,,-99.99,24.0,HOBO +U30 +Weather +,2013-03-13 21:58:00,
2013-03-13 18:02:00,46.7,31.2,29.66,East,100,0.0,0.0,54,0.00,,,-99.99,24.0,HOBO +U30 +Weather +,2013-03-13 22:02:00,
2013-03-13 18:03:00,46.6,31.2,29.66,East,100,0.0,0.0,54,0.00,,,-99.99,24.0,HOBO +U30 +Weather +,2013-03-13 22:03:00,
2013-03-13 18:05:00,46.4,31.5,29.66,East,100,0.0,0.0,55,0.00,,,-99.99,24.0,HOBO +U30 +Weather +,2013-03-13 22:05:00,
2013-03-13 18:06:00,46.3,32.0,29.66,East,100,0.0,0.0,57,0.00,,,-99.99,24.0,HOBO +U30 +Weather +,2013-03-13 22:06:00,
2013-03-13 18:07:00,46.2,31.2,29.66,East,100,0.0,0.0,55,0.00,,,-99.99,23.0,HOBO +U30 +Weather +,2013-03-13 22:07:00,
2013-03-13 18:08:00,46.1,31.1,29.66,East,100,0.0,0.0,55,0.00,,,-99.99,23.0,HOBO +U30 +Weather +,2013-03-13 22:08:00,
2013-03-13 18:09:00,45.8,32.1,29.66,East,100,0.0,0.0,58,0.00,,,-99.99,22.0,HOBO +U30 +Weather +,2013-03-13 22:09:00,
2013-03-13 18:10:00,45.6,31.3,29.66,East,100,0.0,0.0,57,0.00,,,-99.99,21.0,HOBO +U30 +Weather +,2013-03-13 22:10:00,
2013-03-13 18:11:00,45.6,30.9,29.67,East,100,0.0,0.0,56,0.00,,,-99.99,21.0,HOBO +U30 +Weather +,2013-03-13 22:11:00,
2013-03-13 18:12:00,45.3,32.6,29.66,East,100,0.0,0.0,60,0.00,,,-99.99,21.0,HOBO +U30 +Weather +,2013-03-13 22:12:00,
2013-03-13 18:13:00,45.0,32.5,29.66,East,100,0.0,0.0,61,0.00,,,-99.99,21.0,HOBO +U30 +Weather +,2013-03-13 22:13:00,
2013-03-13 18:14:00,45.1,31.4,29.67,East,100,0.0,0.0,58,0.00,,,-99.99,21.0,HOBO +U30 +Weather +,2013-03-13 22:14:00,
2013-03-13 18:15:00,45.3,31.2,29.66,East,100,0.0,0.0,57,0.00,,,-99.99,19.0,HOBO +U30 +Weather +,2013-03-13 22:15:00,
2013-03-13 18:16:00,45.4,31.0,29.66,East,100,0.0,0.0,56,0.00,,,-99.99,19.0,HOBO +U30 +Weather +,2013-03-13 22:16:00,
2013-03-13 18:23:00,44.5,31.3,29.66,East,100,0.0,0.0,59,0.00,,,-99.99,16.0,HOBO +U30 +Weather +,2013-03-13 22:23:00,
2013-03-13 18:24:00,44.3,31.3,29.66,East,100,0.0,0.0,60,0.00,,,-99.99,16.0,HOBO +U30 +Weather +,2013-03-13 22:24:00,
2013-03-13 18:25:00,44.3,31.2,29.67,East,100,0.0,0.0,59,0.00,,,-99.99,16.0,HOBO +U30 +Weather +,2013-03-13 22:25:00,
2013-03-13 18:26:00,44.1,31.4,29.67,East,100,0.0,0.0,60,0.00,,,-99.99,16.0,HOBO +U30 +Weather +,2013-03-13 22:26:00,
2013-03-13 18:27:00,44.1,31.0,29.66,East,100,0.0,0.0,59,0.00,,,-99.99,16.0,HOBO +U30 +Weather +,2013-03-13 22:27:00,
2013-03-13 18:28:00,44.0,31.1,29.66,East,100,0.0,0.0,60,0.00,,,-99.99,14.0,HOBO +U30 +Weather +,2013-03-13 22:28:00,
2013-03-13 18:29:00,44.0,30.8,29.67,East,100,0.0,0.0,59,0.00,,,-99.99,14.0,HOBO +U30 +Weather +,2013-03-13 22:29:00,
2013-03-13 18:30:00,44.0,30.8,29.67,East,100,0.0,0.0,59,0.00,,,-99.99,13.0,HOBO +U30 +Weather +,2013-03-13 22:30:00,
2013-03-13 18:31:00,44.0,31.2,29.67,East,100,0.0,0.0,60,0.00,,,-99.99,12.0,HOBO +U30 +Weather +,2013-03-13 22:31:00,
2013-03-13 18:32:00,44.2,30.8,29.67,East,100,0.0,0.0,58,0.00,,,-99.99,11.0,HOBO +U30 +Weather +,2013-03-13 22:32:00,
2013-03-13 18:33:00,44.3,30.7,29.67,East,100,0.0,0.0,58,0.00,,,-99.99,11.0,HOBO +U30 +Weather +,2013-03-13 22:33:00,
2013-03-13 18:34:00,44.3,30.5,29.67,East,100,0.0,0.0,57,0.00,,,-99.99,11.0,HOBO +U30 +Weather +,2013-03-13 22:34:00,
2013-03-13 18:35:00,44.1,30.5,29.67,East,100,0.0,0.0,58,0.00,,,-99.99,9.0,HOBO +U30 +Weather +,2013-03-13 22:35:00,
2013-03-13 18:36:00,44.0,30.8,29.67,East,100,0.0,0.0,59,0.00,,,-99.99,9.0,HOBO +U30 +Weather +,2013-03-13 22:36:00,
2013-03-13 18:37:00,44.2,30.2,29.67,East,100,0.0,0.0,57,0.00,,,-99.99,9.0,HOBO +U30 +Weather +,2013-03-13 22:37:00,
2013-03-13 18:38:00,44.6,30.1,29.67,East,100,0.0,0.0,56,0.00,,,-99.99,8.0,HOBO +U30 +Weather +,2013-03-13 22:38:00,
2013-03-13 18:39:00,44.7,29.8,29.67,East,100,0.0,0.0,55,0.00,,,-99.99,7.0,HOBO +U30 +Weather +,2013-03-13 22:39:00,
2013-03-13 18:40:00,44.6,30.1,29.68,East,100,0.0,0.0,56,0.00,,,-99.99,7.0,HOBO +U30 +Weather +,2013-03-13 22:40:00,
2013-03-13 18:41:00,44.7,29.6,29.67,East,100,0.0,0.0,55,0.00,,,-99.99,7.0,HOBO +U30 +Weather +,2013-03-13 22:41:00,
2013-03-13 18:42:00,44.7,29.5,29.67,East,100,0.0,0.0,54,0.00,,,-99.99,6.0,HOBO +U30 +Weather +,2013-03-13 22:42:00,
2013-03-13 18:43:00,44.6,29.6,29.68,East,100,0.0,0.0,55,0.00,,,-99.99,6.0,HOBO +U30 +Weather +,2013-03-13 22:43:00,
2013-03-13 18:44:00,44.4,29.5,29.67,East,100,0.0,0.0,55,0.00,,,-99.99,6.0,HOBO +U30 +Weather +,2013-03-13 22:44:00,
2013-03-13 18:45:00,44.4,28.9,29.68,East,100,0.0,0.0,54,0.00,,,-99.99,4.0,HOBO +U30 +Weather +,2013-03-13 22:45:00,
2013-03-13 18:46:00,44.5,29.0,29.67,East,100,0.0,0.0,54,0.00,,,-99.99,4.0,HOBO +U30 +Weather +,2013-03-13 22:46:00,
2013-03-13 18:47:00,44.3,28.9,29.68,East,100,0.0,0.0,54,0.00,,,-99.99,3.0,HOBO +U30 +Weather +,2013-03-13 22:47:00,
2013-03-13 18:48:00,44.3,29.0,29.68,East,100,0.0,0.0,54,0.00,,,-99.99,3.0,HOBO +U30 +Weather +,2013-03-13 22:48:00,
2013-03-13 18:49:00,44.3,28.6,29.68,East,100,0.0,0.0,53,0.00,,,-99.99,3.0,HOBO +U30 +Weather +,2013-03-13 22:49:00,
2013-03-13 18:50:00,44.3,28.6,29.68,East,100,0.0,0.0,53,0.00,,,-99.99,2.0,HOBO +U30 +Weather +,2013-03-13 22:50:00,
2013-03-13 18:51:00,44.4,28.1,29.68,East,100,0.0,0.0,52,0.00,,,-99.99,2.0,HOBO +U30 +Weather +,2013-03-13 22:51:00,
2013-03-13 18:52:00,44.3,28.5,29.68,East,100,0.0,0.0,53,0.00,,,-99.99,2.0,HOBO +U30 +Weather +,2013-03-13 22:52:00,
2013-03-13 18:53:00,44.2,28.2,29.68,East,100,0.0,0.0,53,0.00,,,-99.99,2.0,HOBO +U30 +Weather +,2013-03-13 22:53:00,
2013-03-13 18:54:00,44.3,28.4,29.69,East,100,0.0,0.0,53,0.00,,,-99.99,2.0,HOBO +U30 +Weather +,2013-03-13 22:54:00,
2013-03-13 18:55:00,44.1,28.9,29.68,East,100,0.0,0.0,54,0.00,,,-99.99,1.0,HOBO +U30 +Weather +,2013-03-13 22:55:00,
2013-03-13 18:56:00,44.0,28.4,29.68,East,100,0.0,0.0,53,0.00,,,-99.99,1.0,HOBO +U30 +Weather +,2013-03-13 22:56:00,
2013-03-13 18:57:00,44.0,28.5,29.69,East,100,0.0,0.0,54,0.00,,,-99.99,1.0,HOBO +U30 +Weather +,2013-03-13 22:57:00,
2013-03-13 18:58:00,43.8,28.1,29.68,East,100,0.0,0.0,53,0.00,,,-99.99,1.0,HOBO +U30 +Weather +,2013-03-13 22:58:00,
2013-03-13 18:59:00,43.7,28.5,29.68,East,100,0.0,0.0,54,0.00,,,-99.99,1.0,HOBO +U30 +Weather +,2013-03-13 22:59:00,
2013-03-13 19:00:00,43.7,28.4,29.68,East,100,0.0,0.0,54,0.00,,,-99.99,1.0,HOBO +U30 +Weather +,2013-03-13 23:00:00,
2013-03-13 19:01:00,43.9,28.0,29.68,East,100,0.0,0.0,53,0.00,,,-99.99,1.0,HOBO +U30 +Weather +,2013-03-13 23:01:00,
2013-03-13 19:02:00,43.9,27.8,29.68,East,100,0.0,0.0,52,0.00,,,-99.99,1.0,HOBO +U30 +Weather +,2013-03-13 23:02:00,
2013-03-13 19:03:00,43.9,27.6,29.68,East,100,0.0,0.0,52,0.00,,,-99.99,1.0,HOBO +U30 +Weather +,2013-03-13 23:03:00,
2013-03-13 19:04:00,43.7,27.8,29.69,East,100,0.0,0.0,53,0.00,,,-99.99,1.0,HOBO +U30 +Weather +,2013-03-13 23:04:00,
2013-03-13 19:05:00,43.9,27.2,29.69,East,100,0.0,0.0,51,0.00,,,-99.99,1.0,HOBO +U30 +Weather +,2013-03-13 23:05:00,
2013-03-13 19:06:00,44.0,27.4,29.69,East,100,0.0,0.0,51,0.00,,,-99.99,1.0,HOBO +U30 +Weather +,2013-03-13 23:06:00,
2013-03-13 19:07:00,44.1,26.9,29.69,East,100,0.0,0.0,50,0.00,,,-99.99,1.0,HOBO +U30 +Weather +,2013-03-13 23:07:00,
2013-03-13 19:08:00,44.1,27.2,29.69,East,100,0.0,0.0,51,0.00,,,-99.99,1.0,HOBO +U30 +Weather +,2013-03-13 23:08:00,
2013-03-13 19:09:00,44.0,26.9,29.68,East,100,0.0,0.0,50,0.00,,,-99.99,1.0,HOBO +U30 +Weather +,2013-03-13 23:09:00,
2013-03-13 19:10:00,43.7,27.0,29.68,East,100,0.0,0.0,51,0.00,,,-99.99,1.0,HOBO +U30 +Weather +,2013-03-13 23:10:00,
2013-03-13 19:11:00,43.6,27.0,29.69,East,100,0.0,0.0,51,0.00,,,-99.99,1.0,HOBO +U30 +Weather +,2013-03-13 23:11:00,
2013-03-13 19:12:00,43.6,26.8,29.69,East,100,0.0,0.0,51,0.00,,,-99.99,1.0,HOBO +U30 +Weather +,2013-03-13 23:12:00,
2013-03-13 19:13:00,44.0,26.5,29.69,East,100,0.0,0.0,50,0.00,,,-99.99,1.0,HOBO +U30 +Weather +,2013-03-13 23:13:00,
2013-03-13 19:14:00,43.8,26.7,29.69,East,100,0.0,0.0,50,0.00,,,-99.99,1.0,HOBO +U30 +Weather +,2013-03-13 23:14:00,
2013-03-13 19:15:00,43.6,26.8,29.70,East,100,0.0,0.0,51,0.00,,,-99.99,1.0,HOBO +U30 +Weather +,2013-03-13 23:15:00,
2013-03-13 19:16:00,43.5,27.2,29.69,East,100,0.0,0.0,52,0.00,,,-99.99,1.0,HOBO +U30 +Weather +,2013-03-13 23:16:00,
2013-03-13 19:20:00,43.2,27.1,29.69,East,100,0.0,0.0,52,0.00,,,-99.99,1.0,HOBO +U30 +Weather +,2013-03-13 23:20:00,
2013-03-13 19:25:00,42.7,26.8,29.69,East,100,0.0,0.0,53,0.00,,,-99.99,1.0,HOBO +U30 +Weather +,2013-03-13 23:25:00,
2013-03-13 19:26:00,42.7,26.6,29.69,East,100,0.0,0.0,52,0.00,,,-99.99,1.0,HOBO +U30 +Weather +,2013-03-13 23:26:00,
2013-03-13 19:27:00,42.5,26.3,29.69,East,100,0.0,0.0,52,0.00,,,-99.99,1.0,HOBO +U30 +Weather +,2013-03-13 23:27:00,
2013-03-13 19:28:00,42.6,26.5,29.70,East,100,0.0,0.0,52,0.00,,,-99.99,1.0,HOBO +U30 +Weather +,2013-03-13 23:28:00,
2013-03-13 19:29:00,42.3,26.6,29.70,East,100,0.0,0.0,53,0.00,,,-99.99,1.0,HOBO +U30 +Weather +,2013-03-13 23:29:00,
2013-03-13 19:30:00,42.1,26.8,29.70,East,100,0.0,0.0,54,0.00,,,-99.99,1.0,HOBO +U30 +Weather +,2013-03-13 23:30:00,
2013-03-13 19:31:00,42.2,26.5,29.70,East,100,0.0,0.0,53,0.00,,,-99.99,1.0,HOBO +U30 +Weather +,2013-03-13 23:31:00,
2013-03-13 19:32:00,42.3,26.5,29.70,East,100,0.0,0.0,53,0.00,,,-99.99,1.0,HOBO +U30 +Weather +,2013-03-13 23:32:00,
2013-03-13 19:33:00,42.3,26.5,29.70,East,100,0.0,0.0,53,0.00,,,-99.99,1.0,HOBO +U30 +Weather +,2013-03-13 23:33:00,
2013-03-13 19:34:00,42.2,26.7,29.70,East,100,0.0,0.0,53,0.00,,,-99.99,1.0,HOBO +U30 +Weather +,2013-03-13 23:34:00,
2013-03-13 19:35:00,42.2,27.0,29.70,East,100,0.0,0.0,54,0.00,,,-99.99,1.0,HOBO +U30 +Weather +,2013-03-13 23:35:00,
2013-03-13 19:36:00,42.2,26.7,29.70,East,100,0.0,0.0,53,0.00,,,-99.99,1.0,HOBO +U30 +Weather +,2013-03-13 23:36:00,
2013-03-13 19:37:00,42.3,27.0,29.70,East,100,0.0,0.0,54,0.00,,,-99.99,1.0,HOBO +U30 +Weather +,2013-03-13 23:37:00,
2013-03-13 19:38:00,42.3,26.9,29.70,East,100,0.0,0.0,54,0.00,,,-99.99,1.0,HOBO +U30 +Weather +,2013-03-13 23:38:00,
2013-03-13 19:40:00,42.6,26.6,29.70,East,100,0.0,0.0,52,0.00,,,-99.99,1.0,HOBO +U30 +Weather +,2013-03-13 23:40:00,
2013-03-13 19:41:00,42.5,26.5,29.70,East,100,0.0,0.0,52,0.00,,,-99.99,1.0,HOBO +U30 +Weather +,2013-03-13 23:41:00,
2013-03-13 19:44:00,42.5,26.9,29.70,East,100,0.0,0.0,53,0.00,,,-99.99,1.0,HOBO +U30 +Weather +,2013-03-13 23:44:00,
2013-03-13 19:45:00,42.5,26.6,29.70,East,100,0.0,0.0,52,0.00,,,-99.99,1.0,HOBO +U30 +Weather +,2013-03-13 23:45:00,
2013-03-13 19:55:00,40.8,26.7,29.70,East,100,0.0,0.0,56,0.00,,,-99.99,1.0,HOBO +U30 +Weather +,2013-03-13 23:55:00,
2013-03-13 19:56:00,40.5,26.6,29.70,East,100,0.0,0.0,57,0.00,,,-99.99,1.0,HOBO +U30 +Weather +,2013-03-13 23:56:00,
2013-03-13 19:57:00,40.5,26.4,29.71,East,100,0.0,0.0,56,0.00,,,-99.99,1.0,HOBO +U30 +Weather +,2013-03-13 23:57:00,
2013-03-13 19:58:00,40.4,26.2,29.71,East,100,0.0,0.0,56,0.00,,,-99.99,1.0,HOBO +U30 +Weather +,2013-03-13 23:58:00,
2013-03-13 19:59:00,40.1,26.3,29.71,East,100,0.0,0.0,57,0.00,,,-99.99,1.0,HOBO +U30 +Weather +,2013-03-13 23:59:00,
2013-03-13 20:00:00,39.7,26.6,29.70,East,100,0.0,0.0,59,0.00,,,-99.99,1.0,HOBO +U30 +Weather +,2013-03-14 00:00:00,
2013-03-13 20:01:00,39.5,26.5,29.71,East,100,0.0,0.0,59,0.00,,,-99.99,1.0,HOBO +U30 +Weather +,2013-03-14 00:01:00,
2013-03-13 20:03:00,39.3,26.4,29.71,East,100,0.0,0.0,59,0.00,,,-99.99,1.0,HOBO +U30 +Weather +,2013-03-14 00:03:00,
2013-03-13 20:05:00,39.5,26.5,29.71,East,100,0.0,0.0,59,0.00,,,-99.99,1.0,HOBO +U30 +Weather +,2013-03-14 00:05:00,
2013-03-13 20:06:00,39.6,26.6,29.72,East,100,0.0,0.0,59,0.00,,,-99.99,1.0,HOBO +U30 +Weather +,2013-03-14 00:06:00,
2013-03-13 20:07:00,39.8,26.5,29.71,East,100,0.0,0.0,58,0.00,,,-99.99,1.0,HOBO +U30 +Weather +,2013-03-14 00:07:00,
2013-03-13 20:09:00,40.8,26.9,29.72,East,100,0.0,0.0,57,0.00,,,-99.99,1.0,HOBO +U30 +Weather +,2013-03-14 00:09:00,
2013-03-13 20:10:00,40.8,26.9,29.72,East,100,0.0,0.0,57,0.00,,,-99.99,1.0,HOBO +U30 +Weather +,2013-03-14 00:10:00,
2013-03-13 20:11:00,40.8,26.9,29.72,East,100,0.0,0.0,57,0.00,,,-99.99,1.0,HOBO +U30 +Weather +,2013-03-14 00:11:00,
2013-03-13 20:12:00,40.7,27.1,29.72,East,100,0.0,0.0,58,0.00,,,-99.99,1.0,HOBO +U30 +Weather +,2013-03-14 00:12:00,
2013-03-13 20:13:00,40.5,27.2,29.72,East,100,0.0,0.0,58,0.00,,,-99.99,1.0,HOBO +U30 +Weather +,2013-03-14 00:13:00,
2013-03-13 20:14:00,40.8,26.9,29.72,East,100,0.0,0.0,57,0.00,,,-99.99,1.0,HOBO +U30 +Weather +,2013-03-14 00:14:00,
2013-03-13 20:15:00,40.9,26.8,29.72,East,100,0.0,0.0,56,0.00,,,-99.99,1.0,HOBO +U30 +Weather +,2013-03-14 00:15:00,
2013-03-13 20:25:00,40.4,26.9,29.72,East,100,0.0,0.0,58,0.00,,,-99.99,1.0,HOBO +U30 +Weather +,2013-03-14 00:25:00,
2013-03-13 20:26:00,40.4,26.7,29.73,East,100,0.0,0.0,57,0.00,,,-99.99,1.0,HOBO +U30 +Weather +,2013-03-14 00:26:00,
2013-03-13 20:27:00,40.5,26.5,29.73,East,100,0.0,0.0,57,0.00,,,-99.99,1.0,HOBO +U30 +Weather +,2013-03-14 00:27:00,
2013-03-13 20:28:00,40.5,26.4,29.73,East,100,0.0,0.0,56,0.00,,,-99.99,1.0,HOBO +U30 +Weather +,2013-03-14 00:28:00,
2013-03-13 20:29:00,40.4,26.4,29.73,East,100,0.0,0.0,57,0.00,,,-99.99,1.0,HOBO +U30 +Weather +,2013-03-14 00:29:00,
2013-03-13 20:30:00,40.2,26.3,29.73,East,100,0.0,0.0,57,0.00,,,-99.99,1.0,HOBO +U30 +Weather +,2013-03-14 00:30:00,
2013-03-13 20:31:00,40.1,26.2,29.73,East,100,0.0,0.0,57,0.00,,,-99.99,1.0,HOBO +U30 +Weather +,2013-03-14 00:31:00,
2013-03-13 20:32:00,39.8,26.1,29.72,East,100,0.0,0.0,57,0.00,,,-99.99,1.0,HOBO +U30 +Weather +,2013-03-14 00:32:00,
2013-03-13 20:33:00,39.7,26.2,29.72,East,100,0.0,0.0,58,0.00,,,-99.99,1.0,HOBO +U30 +Weather +,2013-03-14 00:33:00,
2013-03-13 20:34:00,39.7,26.2,29.73,East,100,0.0,0.0,58,0.00,,,-99.99,1.0,HOBO +U30 +Weather +,2013-03-14 00:34:00,
2013-03-13 20:35:00,39.8,26.5,29.72,East,100,0.0,0.0,58,0.00,,,-99.99,1.0,HOBO +U30 +Weather +,2013-03-14 00:35:00,
2013-03-13 20:41:00,40.4,26.3,29.73,East,100,0.0,0.0,56,0.00,,,-99.99,1.0,HOBO +U30 +Weather +,2013-03-14 00:41:00,
2013-03-13 20:45:00,39.4,26.3,29.73,East,100,0.0,0.0,59,0.00,,,-99.99,1.0,HOBO +U30 +Weather +,2013-03-14 00:45:00,
2013-03-13 20:46:00,39.3,26.5,29.74,East,100,0.0,0.0,59,0.00,,,-99.99,1.0,HOBO +U30 +Weather +,2013-03-14 00:46:00,
2013-03-13 20:49:00,38.6,26.5,29.73,East,100,0.0,0.0,61,0.00,,,-99.99,1.0,HOBO +U30 +Weather +,2013-03-14 00:49:00,
2013-03-13 20:50:00,38.4,26.4,29.73,East,100,0.0,0.0,61,0.00,,,-99.99,1.0,HOBO +U30 +Weather +,2013-03-14 00:50:00,
2013-03-13 20:51:00,38.1,26.1,29.74,East,100,0.0,0.0,61,0.00,,,-99.99,1.0,HOBO +U30 +Weather +,2013-03-14 00:51:00,
2013-03-13 20:52:00,38.7,26.0,29.74,East,100,0.0,0.0,60,0.00,,,-99.99,1.0,HOBO +U30 +Weather +,2013-03-14 00:52:00,
2013-03-13 20:53:00,39.0,26.2,29.73,East,100,0.0,0.0,59,0.00,,,-99.99,1.0,HOBO +U30 +Weather +,2013-03-14 00:53:00,
2013-03-13 20:54:00,39.1,26.0,29.73,East,100,0.0,0.0,59,0.00,,,-99.99,1.0,HOBO +U30 +Weather +,2013-03-14 00:54:00,
2013-03-13 20:55:00,39.2,26.0,29.73,East,100,0.0,0.0,58,0.00,,,-99.99,1.0,HOBO +U30 +Weather +,2013-03-14 00:55:00,
2013-03-13 21:04:00,38.3,25.5,29.74,East,100,0.0,0.0,59,0.00,,,-99.99,1.0,HOBO +U30 +Weather +,2013-03-14 01:04:00,
2013-03-13 21:05:00,38.1,26.1,29.74,East,100,0.0,0.0,61,0.00,,,-99.99,1.0,HOBO +U30 +Weather +,2013-03-14 01:05:00,
2013-03-13 21:06:00,37.7,26.0,29.74,East,100,0.0,0.0,62,0.00,,,-99.99,1.0,HOBO +U30 +Weather +,2013-03-14 01:06:00,
2013-03-13 21:07:00,37.3,25.5,29.73,East,100,0.0,0.0,62,0.00,,,-99.99,1.0,HOBO +U30 +Weather +,2013-03-14 01:07:00,
2013-03-13 21:08:00,36.9,25.3,29.74,East,100,0.0,0.0,62,0.00,,,-99.99,1.0,HOBO +U30 +Weather +,2013-03-14 01:08:00,
2013-03-13 21:09:00,36.5,25.2,29.74,East,100,0.0,0.0,63,0.00,,,-99.99,1.0,HOBO +U30 +Weather +,2013-03-14 01:09:00,
2013-03-13 21:10:00,36.2,25.1,29.74,East,100,0.0,0.0,63,0.00,,,-99.99,1.0,HOBO +U30 +Weather +,2013-03-14 01:10:00,
2013-03-13 21:11:00,36.0,25.4,29.74,East,100,0.0,0.0,65,0.00,,,-99.99,1.0,HOBO +U30 +Weather +,2013-03-14 01:11:00,
2013-03-13 21:12:00,36.0,25.6,29.74,East,100,0.0,0.0,65,0.00,,,-99.99,1.0,HOBO +U30 +Weather +,2013-03-14 01:12:00,
2013-03-13 21:13:00,36.1,25.4,29.74,East,100,0.0,0.0,64,0.00,,,-99.99,1.0,HOBO +U30 +Weather +,2013-03-14 01:13:00,
2013-03-13 21:14:00,36.2,25.1,29.74,East,100,0.0,0.0,63,0.00,,,-99.99,1.0,HOBO +U30 +Weather +,2013-03-14 01:14:00,
2013-03-13 21:15:00,36.1,25.3,29.74,East,100,0.0,0.0,64,0.00,,,-99.99,1.0,HOBO +U30 +Weather +,2013-03-14 01:15:00,
2013-03-13 21:16:00,35.9,26.1,29.74,East,100,0.0,0.0,67,0.00,,,-99.99,1.0,HOBO +U30 +Weather +,2013-03-14 01:16:00,
2013-03-13 21:17:00,35.6,26.3,29.73,East,100,0.0,0.0,68,0.00,,,-99.99,1.0,HOBO +U30 +Weather +,2013-03-14 01:17:00,
2013-03-13 21:18:00,35.3,26.5,29.73,East,100,0.0,0.0,69,0.00,,,-99.99,1.0,HOBO +U30 +Weather +,2013-03-14 01:18:00,
2013-03-13 21:19:00,35.0,26.5,29.74,East,100,0.0,0.0,70,0.00,,,-99.99,1.0,HOBO +U30 +Weather +,2013-03-14 01:19:00,
2013-03-13 21:20:00,34.6,26.3,29.74,East,100,0.0,0.0,71,0.00,,,-99.99,1.0,HOBO +U30 +Weather +,2013-03-14 01:20:00,
2013-03-13 21:21:00,34.3,26.3,29.74,East,100,0.0,0.0,72,0.00,,,-99.99,1.0,HOBO +U30 +Weather +,2013-03-14 01:21:00,
2013-03-13 21:22:00,34.0,26.2,29.75,East,100,0.0,0.0,72,0.00,,,-99.99,1.0,HOBO +U30 +Weather +,2013-03-14 01:22:00,
2013-03-13 21:23:00,33.8,26.3,29.74,East,100,0.0,0.0,73,0.00,,,-99.99,1.0,HOBO +U30 +Weather +,2013-03-14 01:23:00,
2013-03-13 21:24:00,33.5,25.9,29.74,East,100,0.0,0.0,73,0.00,,,-99.99,1.0,HOBO +U30 +Weather +,2013-03-14 01:24:00,
2013-03-13 21:25:00,33.2,25.9,29.75,East,100,0.0,0.0,74,0.00,,,-99.99,1.0,HOBO +U30 +Weather +,2013-03-14 01:25:00,
2013-03-13 21:28:00,32.7,25.9,29.74,East,100,0.0,0.0,75,0.00,,,-99.99,1.0,HOBO +U30 +Weather +,2013-03-14 01:28:00,
2013-03-13 21:35:00,31.2,25.4,29.74,East,100,0.0,0.0,78,0.00,,,-99.99,1.0,HOBO +U30 +Weather +,2013-03-14 01:35:00,
2013-03-13 21:42:00,31.4,26.2,29.74,East,100,0.0,0.0,80,0.00,,,-99.99,1.0,HOBO +U30 +Weather +,2013-03-14 01:42:00,
2013-03-13 21:45:00,31.2,25.8,29.74,East,100,0.0,0.0,80,0.00,,,-99.99,1.0,HOBO +U30 +Weather +,2013-03-14 01:45:00,
2013-03-13 21:46:00,31.1,25.7,29.74,East,100,0.0,0.0,80,0.00,,,-99.99,1.0,HOBO +U30 +Weather +,2013-03-14 01:46:00,
2013-03-13 21:47:00,31.0,25.6,29.73,East,100,0.0,0.0,80,0.00,,,-99.99,1.0,HOBO +U30 +Weather +,2013-03-14 01:47:00,
2013-03-13 21:48:00,30.9,25.5,29.74,East,100,0.0,0.0,80,0.00,,,-99.99,1.0,HOBO +U30 +Weather +,2013-03-14 01:48:00,
2013-03-13 21:49:00,30.9,25.7,29.74,East,100,0.0,0.0,80,0.00,,,-99.99,1.0,HOBO +U30 +Weather +,2013-03-14 01:49:00,
2013-03-13 21:50:00,30.7,25.5,29.73,East,100,0.0,0.0,80,0.00,,,-99.99,1.0,HOBO +U30 +Weather +,2013-03-14 01:50:00,
2013-03-13 21:51:00,30.6,25.4,29.74,East,100,0.0,0.0,81,0.00,,,-99.99,1.0,HOBO +U30 +Weather +,2013-03-14 01:51:00,
2013-03-13 21:52:00,30.3,25.2,29.74,East,100,0.0,0.0,81,0.00,,,-99.99,1.0,HOBO +U30 +Weather +,2013-03-14 01:52:00,
2013-03-13 21:53:00,30.0,25.0,29.73,East,100,0.0,0.0,81,0.00,,,-99.99,1.0,HOBO +U30 +Weather +,2013-03-14 01:53:00,
2013-03-13 21:54:00,29.7,24.7,29.73,East,100,0.0,0.0,81,0.00,,,-99.99,1.0,HOBO +U30 +Weather +,2013-03-14 01:54:00,
2013-03-13 21:55:00,29.6,24.7,29.74,East,100,0.0,0.0,81,0.00,,,-99.99,1.0,HOBO +U30 +Weather +,2013-03-14 01:55:00,
2013-03-13 21:56:00,29.4,24.7,29.74,East,100,0.0,0.0,82,0.00,,,-99.99,1.0,HOBO +U30 +Weather +,2013-03-14 01:56:00,
2013-03-13 21:57:00,29.2,24.6,29.74,East,100,0.0,0.0,82,0.00,,,-99.99,1.0,HOBO +U30 +Weather +,2013-03-14 01:57:00,
2013-03-13 21:58:00,29.1,24.6,29.73,East,100,0.0,0.0,83,0.00,,,-99.99,1.0,HOBO +U30 +Weather +,2013-03-14 01:58:00,
2013-03-13 21:59:00,29.0,24.7,29.74,East,100,0.0,0.0,83,0.00,,,-99.99,1.0,HOBO +U30 +Weather +,2013-03-14 01:59:00,
2013-03-13 22:00:00,29.2,25.1,29.74,East,100,0.0,0.0,84,0.00,,,-99.99,1.0,HOBO +U30 +Weather +,2013-03-14 02:00:00,
2013-03-13 22:01:00,29.4,25.3,29.73,East,100,0.0,0.0,84,0.00,,,-99.99,1.0,HOBO +U30 +Weather +,2013-03-14 02:01:00,
2013-03-13 22:02:00,29.4,25.3,29.74,East,100,0.0,0.0,84,0.00,,,-99.99,1.0,HOBO +U30 +Weather +,2013-03-14 02:02:00,
2013-03-13 22:03:00,29.4,25.3,29.73,East,100,0.0,0.0,84,0.00,,,-99.99,1.0,HOBO +U30 +Weather +,2013-03-14 02:03:00,
2013-03-13 22:04:00,29.2,25.1,29.74,East,100,0.0,0.0,84,0.00,,,-99.99,1.0,HOBO +U30 +Weather +,2013-03-14 02:04:00,
2013-03-13 22:05:00,28.9,24.8,29.74,East,100,0.0,0.0,84,0.00,,,-99.99,1.0,HOBO +U30 +Weather +,2013-03-14 02:05:00,
2013-03-13 22:06:00,28.7,24.6,29.73,East,100,0.0,0.0,84,0.00,,,-99.99,1.0,HOBO +U30 +Weather +,2013-03-14 02:06:00,
2013-03-13 22:07:00,28.4,24.3,29.73,East,100,0.0,0.0,84,0.00,,,-99.99,1.0,HOBO +U30 +Weather +,2013-03-14 02:07:00,
2013-03-13 22:08:00,28.3,24.3,29.73,East,100,0.0,0.0,84,0.00,,,-99.99,1.0,HOBO +U30 +Weather +,2013-03-14 02:08:00,
2013-03-13 22:09:00,28.2,24.3,29.73,East,100,0.0,0.0,84,0.00,,,-99.99,1.0,HOBO +U30 +Weather +,2013-03-14 02:09:00,
2013-03-13 22:10:00,28.2,24.4,29.73,East,100,0.0,0.0,85,0.00,,,-99.99,1.0,HOBO +U30 +Weather +,2013-03-14 02:10:00,
2013-03-13 22:11:00,28.3,24.6,29.73,East,100,0.0,0.0,85,0.00,,,-99.99,1.0,HOBO +U30 +Weather +,2013-03-14 02:11:00,
2013-03-13 22:12:00,28.4,24.7,29.73,East,100,0.0,0.0,85,0.00,,,-99.99,1.0,HOBO +U30 +Weather +,2013-03-14 02:12:00,
2013-03-13 22:13:00,28.4,24.7,29.73,East,100,0.0,0.0,85,0.00,,,-99.99,1.0,HOBO +U30 +Weather +,2013-03-14 02:13:00,
2013-03-13 22:14:00,28.3,24.6,29.73,East,100,0.0,0.0,85,0.00,,,-99.99,1.0,HOBO +U30 +Weather +,2013-03-14 02:14:00,
2013-03-13 22:15:00,28.1,24.5,29.73,East,100,0.0,0.0,86,0.00,,,-99.99,1.0,HOBO +U30 +Weather +,2013-03-14 02:15:00,
2013-03-13 22:16:00,27.9,24.3,29.74,East,100,0.0,0.0,86,0.00,,,-99.99,1.0,HOBO +U30 +Weather +,2013-03-14 02:16:00,
2013-03-13 22:17:00,27.7,24.0,29.74,East,100,0.0,0.0,86,0.00,,,-99.99,1.0,HOBO +U30 +Weather +,2013-03-14 02:17:00,
2013-03-13 22:18:00,27.5,23.8,29.73,East,100,0.0,0.0,85,0.00,,,-99.99,1.0,HOBO +U30 +Weather +,2013-03-14 02:18:00,
2013-03-13 22:19:00,27.2,23.5,29.74,East,100,0.0,0.0,85,0.00,,,-99.99,1.0,HOBO +U30 +Weather +,2013-03-14 02:19:00,
2013-03-13 22:20:00,27.1,23.4,29.74,East,100,0.0,0.0,86,0.00,,,-99.99,1.0,HOBO +U30 +Weather +,2013-03-14 02:20:00,
2013-03-13 22:21:00,27.0,23.5,29.74,East,100,0.0,0.0,86,0.00,,,-99.99,1.0,HOBO +U30 +Weather +,2013-03-14 02:21:00,
2013-03-13 22:22:00,27.0,23.6,29.74,East,100,0.0,0.0,86,0.00,,,-99.99,1.0,HOBO +U30 +Weather +,2013-03-14 02:22:00,
2013-03-13 22:23:00,27.1,23.8,29.74,East,100,0.0,0.0,87,0.00,,,-99.99,1.0,HOBO +U30 +Weather +,2013-03-14 02:23:00,
2013-03-13 22:24:00,27.0,23.7,29.74,East,100,0.0,0.0,87,0.00,,,-99.99,1.0,HOBO +U30 +Weather +,2013-03-14 02:24:00,
2013-03-13 22:25:00,26.8,23.6,29.74,East,100,0.0,0.0,87,0.00,,,-99.99,1.0,HOBO +U30 +Weather +,2013-03-14 02:25:00,
2013-03-13 22:26:00,26.6,23.3,29.74,East,100,0.0,0.0,87,0.00,,,-99.99,1.0,HOBO +U30 +Weather +,2013-03-14 02:26:00,
2013-03-13 22:27:00,26.4,23.1,29.74,East,100,0.0,0.0,87,0.00,,,-99.99,1.0,HOBO +U30 +Weather +,2013-03-14 02:27:00,
2013-03-13 22:28:00,26.3,23.0,29.74,East,100,0.0,0.0,87,0.00,,,-99.99,1.0,HOBO +U30 +Weather +,2013-03-14 02:28:00,
2013-03-13 22:29:00,26.2,23.0,29.74,East,100,0.0,0.0,87,0.00,,,-99.99,1.0,HOBO +U30 +Weather +,2013-03-14 02:29:00,
2013-03-13 22:30:00,26.1,23.0,29.74,East,100,0.0,0.0,88,0.00,,,-99.99,1.0,HOBO +U30 +Weather +,2013-03-14 02:30:00,
2013-03-13 22:31:00,26.1,23.1,29.75,East,100,0.0,0.0,88,0.00,,,-99.99,1.0,HOBO +U30 +Weather +,2013-03-14 02:31:00,
2013-03-13 22:32:00,26.1,23.2,29.75,East,100,0.0,0.0,88,0.00,,,-99.99,1.0,HOBO +U30 +Weather +,2013-03-14 02:32:00,
2013-03-13 22:33:00,26.3,23.4,29.75,East,100,0.0,0.0,88,0.00,,,-99.99,1.0,HOBO +U30 +Weather +,2013-03-14 02:33:00,
2013-03-13 22:34:00,26.2,23.3,29.74,East,100,0.0,0.0,88,0.00,,,-99.99,1.0,HOBO +U30 +Weather +,2013-03-14 02:34:00,
2013-03-13 22:35:00,26.1,23.3,29.74,East,100,0.0,0.0,89,0.00,,,-99.99,1.0,HOBO +U30 +Weather +,2013-03-14 02:35:00,
2013-03-13 22:36:00,26.1,23.4,29.75,East,100,0.0,0.0,89,0.00,,,-99.99,1.0,HOBO +U30 +Weather +,2013-03-14 02:36:00,
2013-03-13 22:37:00,26.3,23.6,29.75,East,100,0.0,0.0,89,0.00,,,-99.99,1.0,HOBO +U30 +Weather +,2013-03-14 02:37:00,
2013-03-13 22:38:00,26.4,23.8,29.74,East,100,0.0,0.0,89,0.00,,,-99.99,1.0,HOBO +U30 +Weather +,2013-03-14 02:38:00,
2013-03-13 22:39:00,26.4,23.7,29.74,East,100,0.0,0.0,89,0.00,,,-99.99,1.0,HOBO +U30 +Weather +,2013-03-14 02:39:00,
2013-03-13 22:40:00,26.4,23.6,29.74,East,100,0.0,0.0,89,0.00,,,-99.99,1.0,HOBO +U30 +Weather +,2013-03-14 02:40:00,
2013-03-13 22:41:00,26.2,23.5,29.74,East,100,0.0,0.0,89,0.00,,,-99.99,1.0,HOBO +U30 +Weather +,2013-03-14 02:41:00,
2013-03-13 22:42:00,26.0,23.2,29.74,East,100,0.0,0.0,89,0.00,,,-99.99,1.0,HOBO +U30 +Weather +,2013-03-14 02:42:00,
2013-03-13 22:43:00,25.8,23.1,29.74,East,100,0.0,0.0,89,0.00,,,-99.99,1.0,HOBO +U30 +Weather +,2013-03-14 02:43:00,
2013-03-13 22:44:00,25.8,23.1,29.74,East,100,0.0,0.0,89,0.00,,,-99.99,1.0,HOBO +U30 +Weather +,2013-03-14 02:44:00,
2013-03-13 22:45:00,25.7,23.0,29.74,East,100,0.0,0.0,89,0.00,,,-99.99,1.0,HOBO +U30 +Weather +,2013-03-14 02:45:00,
2013-03-13 22:46:00,25.7,23.1,29.74,East,100,0.0,0.0,89,0.00,,,-99.99,1.0,HOBO +U30 +Weather +,2013-03-14 02:46:00,
2013-03-13 22:47:00,25.8,23.2,29.74,East,100,0.0,0.0,89,0.00,,,-99.99,1.0,HOBO +U30 +Weather +,2013-03-14 02:47:00,
2013-03-13 22:48:00,25.8,23.2,29.74,East,100,0.0,0.0,89,0.00,,,-99.99,1.0,HOBO +U30 +Weather +,2013-03-14 02:48:00,
2013-03-13 22:49:00,25.6,23.0,29.75,East,100,0.0,0.0,89,0.00,,,-99.99,1.0,HOBO +U30 +Weather +,2013-03-14 02:49:00,
2013-03-13 22:50:00,25.4,22.8,29.74,East,100,0.0,0.0,90,0.00,,,-99.99,1.0,HOBO +U30 +Weather +,2013-03-14 02:50:00,
2013-03-13 22:51:00,25.1,22.6,29.74,East,100,0.0,0.0,89,0.00,,,-99.99,1.0,HOBO +U30 +Weather +,2013-03-14 02:51:00,
2013-03-13 22:52:00,25.2,22.7,29.75,East,100,0.0,0.0,90,0.00,,,-99.99,1.0,HOBO +U30 +Weather +,2013-03-14 02:52:00,
2013-03-13 22:53:00,25.2,22.8,29.74,East,100,0.0,0.0,90,0.00,,,-99.99,1.0,HOBO +U30 +Weather +,2013-03-14 02:53:00,
2013-03-13 22:54:00,25.2,22.7,29.74,East,100,0.0,0.0,90,0.00,,,-99.99,1.0,HOBO +U30 +Weather +,2013-03-14 02:54:00,
2013-03-13 22:55:00,25.1,22.7,29.73,East,100,0.0,0.0,90,0.00,,,-99.99,1.0,HOBO +U30 +Weather +,2013-03-14 02:55:00,
2013-03-13 22:56:00,25.0,22.6,29.74,East,100,0.0,0.0,90,0.00,,,-99.99,1.0,HOBO +U30 +Weather +,2013-03-14 02:56:00,
2013-03-13 22:57:00,24.8,22.4,29.75,East,100,0.0,0.0,90,0.00,,,-99.99,1.0,HOBO +U30 +Weather +,2013-03-14 02:57:00,
2013-03-13 22:58:00,24.7,22.3,29.74,East,100,0.0,0.0,90,0.00,,,-99.99,1.0,HOBO +U30 +Weather +,2013-03-14 02:58:00,
2013-03-13 22:59:00,24.5,22.2,29.74,East,100,0.0,0.0,90,0.00,,,-99.99,1.0,HOBO +U30 +Weather +,2013-03-14 02:59:00,
2013-03-13 23:00:00,24.4,22.0,29.74,East,100,0.0,0.0,90,0.00,,,-99.99,1.0,HOBO +U30 +Weather +,2013-03-14 03:00:00,
2013-03-13 23:01:00,24.4,22.0,29.74,East,100,0.0,0.0,90,0.00,,,-99.99,1.0,HOBO +U30 +Weather +,2013-03-14 03:01:00,
2013-03-13 23:02:00,24.3,22.0,29.74,East,100,0.0,0.0,90,0.00,,,-99.99,1.0,HOBO +U30 +Weather +,2013-03-14 03:02:00,
2013-03-13 23:03:00,24.2,22.0,29.75,East,100,0.0,0.0,91,0.00,,,-99.99,1.0,HOBO +U30 +Weather +,2013-03-14 03:03:00,
2013-03-13 23:04:00,24.2,22.0,29.74,East,100,0.0,0.0,91,0.00,,,-99.99,1.0,HOBO +U30 +Weather +,2013-03-14 03:04:00,
2013-03-13 23:05:00,24.3,22.1,29.74,East,100,0.0,0.0,91,0.00,,,-99.99,1.0,HOBO +U30 +Weather +,2013-03-14 03:05:00,
2013-03-13 23:06:00,24.3,22.2,29.74,East,100,0.0,0.0,91,0.00,,,-99.99,1.0,HOBO +U30 +Weather +,2013-03-14 03:06:00,
2013-03-13 23:07:00,24.4,22.3,29.74,East,100,0.0,0.0,91,0.00,,,-99.99,1.0,HOBO +U30 +Weather +,2013-03-14 03:07:00,
2013-03-13 23:08:00,24.6,22.6,29.74,East,100,0.0,0.0,92,0.00,,,-99.99,1.0,HOBO +U30 +Weather +,2013-03-14 03:08:00,
2013-03-13 23:09:00,24.7,22.7,29.74,East,100,0.0,0.0,92,0.00,,,-99.99,1.0,HOBO +U30 +Weather +,2013-03-14 03:09:00,
2013-03-13 23:10:00,24.8,22.9,29.74,East,100,0.0,0.0,92,0.00,,,-99.99,1.0,HOBO +U30 +Weather +,2013-03-14 03:10:00,
2013-03-13 23:11:00,24.9,22.9,29.73,East,100,0.0,0.0,92,0.00,,,-99.99,1.0,HOBO +U30 +Weather +,2013-03-14 03:11:00,
2013-03-13 23:12:00,24.9,22.9,29.73,East,100,0.0,0.0,92,0.00,,,-99.99,1.0,HOBO +U30 +Weather +,2013-03-14 03:12:00,
2013-03-13 23:13:00,24.8,22.9,29.73,East,100,0.0,0.0,92,0.00,,,-99.99,1.0,HOBO +U30 +Weather +,2013-03-14 03:13:00,
2013-03-13 23:14:00,24.8,22.8,29.74,East,100,0.0,0.0,92,0.00,,,-99.99,1.0,HOBO +U30 +Weather +,2013-03-14 03:14:00,
2013-03-13 23:15:00,24.8,22.9,29.74,East,100,0.0,0.0,92,0.00,,,-99.99,1.0,HOBO +U30 +Weather +,2013-03-14 03:15:00,
2013-03-13 23:16:00,24.8,22.8,29.75,East,100,0.0,0.0,92,0.00,,,-99.99,1.0,HOBO +U30 +Weather +,2013-03-14 03:16:00,
2013-03-13 23:17:00,24.8,22.9,29.74,East,100,0.0,0.0,92,0.00,,,-99.99,1.0,HOBO +U30 +Weather +,2013-03-14 03:17:00,
2013-03-13 23:18:00,24.9,23.0,29.74,East,100,0.0,0.0,92,0.00,,,-99.99,1.0,HOBO +U30 +Weather +,2013-03-14 03:18:00,
2013-03-13 23:19:00,25.0,23.1,29.73,East,100,0.0,0.0,92,0.00,,,-99.99,1.0,HOBO +U30 +Weather +,2013-03-14 03:19:00,
2013-03-13 23:20:00,25.0,23.1,29.74,East,100,0.0,0.0,92,0.00,,,-99.99,1.0,HOBO +U30 +Weather +,2013-03-14 03:20:00,
2013-03-13 23:21:00,25.1,23.2,29.74,East,100,0.0,0.0,92,0.00,,,-99.99,1.0,HOBO +U30 +Weather +,2013-03-14 03:21:00,
2013-03-13 23:22:00,25.0,23.1,29.74,East,100,0.0,0.0,92,0.00,,,-99.99,1.0,HOBO +U30 +Weather +,2013-03-14 03:22:00,
2013-03-13 23:23:00,25.0,23.1,29.73,East,100,0.0,0.0,92,0.00,,,-99.99,1.0,HOBO +U30 +Weather +,2013-03-14 03:23:00,
2013-03-13 23:24:00,25.0,23.1,29.73,East,100,0.0,0.0,92,0.00,,,-99.99,1.0,HOBO +U30 +Weather +,2013-03-14 03:24:00,
2013-03-13 23:25:00,25.0,23.1,29.74,East,100,0.0,0.0,92,0.00,,,-99.99,1.0,HOBO +U30 +Weather +,2013-03-14 03:25:00,
2013-03-13 23:26:00,25.0,23.1,29.74,East,100,0.0,0.0,92,0.00,,,-99.99,1.0,HOBO +U30 +Weather +,2013-03-14 03:26:00,
2013-03-13 23:27:00,24.9,23.0,29.74,East,100,0.0,0.0,92,0.00,,,-99.99,1.0,HOBO +U30 +Weather +,2013-03-14 03:27:00,
2013-03-13 23:28:00,24.9,23.0,29.74,East,100,0.0,0.0,92,0.00,,,-99.99,1.0,HOBO +U30 +Weather +,2013-03-14 03:28:00,
2013-03-13 23:29:00,24.9,23.0,29.73,East,100,0.0,0.0,92,0.00,,,-99.99,1.0,HOBO +U30 +Weather +,2013-03-14 03:29:00,
2013-03-13 23:30:00,25.0,23.1,29.73,East,100,0.0,0.0,92,0.00,,,-99.99,1.0,HOBO +U30 +Weather +,2013-03-14 03:30:00,
2013-03-13 23:31:00,25.1,23.2,29.73,East,100,0.0,0.0,92,0.00,,,-99.99,1.0,HOBO +U30 +Weather +,2013-03-14 03:31:00,
2013-03-13 23:32:00,25.3,23.5,29.73,East,100,0.0,0.0,92,0.00,,,-99.99,1.0,HOBO +U30 +Weather +,2013-03-14 03:32:00,
2013-03-13 23:33:00,25.5,23.6,29.73,East,100,0.0,0.0,92,0.00,,,-99.99,1.0,HOBO +U30 +Weather +,2013-03-14 03:33:00,
2013-03-13 23:34:00,25.6,23.8,29.73,East,100,0.0,0.0,92,0.00,,,-99.99,1.0,HOBO +U30 +Weather +,2013-03-14 03:34:00,
2013-03-13 23:35:00,25.5,23.7,29.73,East,100,0.0,0.0,92,0.00,,,-99.99,1.0,HOBO +U30 +Weather +,2013-03-14 03:35:00,
2013-03-13 23:36:00,25.4,23.5,29.73,East,100,0.0,0.0,92,0.00,,,-99.99,1.0,HOBO +U30 +Weather +,2013-03-14 03:36:00,
2013-03-13 23:37:00,25.1,23.2,29.73,East,100,0.0,0.0,92,0.00,,,-99.99,1.0,HOBO +U30 +Weather +,2013-03-14 03:37:00,
2013-03-13 23:38:00,24.9,23.0,29.73,East,100,0.0,0.0,92,0.00,,,-99.99,1.0,HOBO +U30 +Weather +,2013-03-14 03:38:00,
2013-03-13 23:39:00,24.7,22.7,29.73,East,100,0.0,0.0,92,0.00,,,-99.99,1.0,HOBO +U30 +Weather +,2013-03-14 03:39:00,
2013-03-13 23:40:00,24.5,22.6,29.73,East,100,0.0,0.0,92,0.00,,,-99.99,1.0,HOBO +U30 +Weather +,2013-03-14 03:40:00,
2013-03-13 23:41:00,24.3,22.4,29.73,East,100,0.0,0.0,92,0.00,,,-99.99,1.0,HOBO +U30 +Weather +,2013-03-14 03:41:00,
2013-03-13 23:42:00,24.2,22.2,29.74,East,100,0.0,0.0,92,0.00,,,-99.99,1.0,HOBO +U30 +Weather +,2013-03-14 03:42:00,
2013-03-13 23:43:00,24.0,22.0,29.74,East,100,0.0,0.0,92,0.00,,,-99.99,1.0,HOBO +U30 +Weather +,2013-03-14 03:43:00,
2013-03-13 23:44:00,23.8,21.9,29.73,East,100,0.0,0.0,92,0.00,,,-99.99,1.0,HOBO +U30 +Weather +,2013-03-14 03:44:00,
2013-03-13 23:45:00,23.8,22.0,29.74,East,100,0.0,0.0,92,0.00,,,-99.99,1.0,HOBO +U30 +Weather +,2013-03-14 03:45:00,
2013-03-13 23:46:00,23.8,21.9,29.73,East,100,0.0,0.0,92,0.00,,,-99.99,1.0,HOBO +U30 +Weather +,2013-03-14 03:46:00,
2013-03-13 23:47:00,23.7,21.8,29.73,East,100,0.0,0.0,92,0.00,,,-99.99,1.0,HOBO +U30 +Weather +,2013-03-14 03:47:00,
2013-03-13 23:48:00,23.6,21.8,29.73,East,100,0.0,0.0,92,0.00,,,-99.99,1.0,HOBO +U30 +Weather +,2013-03-14 03:48:00,
2013-03-13 23:49:00,23.6,21.8,29.73,East,100,0.0,0.0,92,0.00,,,-99.99,1.0,HOBO +U30 +Weather +,2013-03-14 03:49:00,
2013-03-13 23:50:00,23.5,21.7,29.73,East,100,0.0,0.0,92,0.00,,,-99.99,1.0,HOBO +U30 +Weather +,2013-03-14 03:50:00,
2013-03-13 23:51:00,23.4,21.6,29.73,East,100,0.0,0.0,92,0.00,,,-99.99,1.0,HOBO +U30 +Weather +,2013-03-14 03:51:00,
2013-03-13 23:52:00,23.3,21.5,29.73,East,100,0.0,0.0,93,0.00,,,-99.99,1.0,HOBO +U30 +Weather +,2013-03-14 03:52:00,
2013-03-13 23:53:00,23.3,21.6,29.73,East,100,0.0,0.0,93,0.00,,,-99.99,1.0,HOBO +U30 +Weather +,2013-03-14 03:53:00,
2013-03-13 23:54:00,23.4,21.7,29.73,East,100,0.0,0.0,93,0.00,,,-99.99,1.0,HOBO +U30 +Weather +,2013-03-14 03:54:00,
2013-03-13 23:55:00,23.6,21.9,29.73,East,100,0.0,0.0,93,0.00,,,-99.99,1.0,HOBO +U30 +Weather +,2013-03-14 03:55:00,
2013-03-13 23:56:00,23.9,22.3,29.72,East,100,0.0,0.0,93,0.00,,,-99.99,1.0,HOBO +U30 +Weather +,2013-03-14 03:56:00,
2013-03-13 23:57:00,24.1,22.5,29.73,East,100,0.0,0.0,93,0.00,,,-99.99,1.0,HOBO +U30 +Weather +,2013-03-14 03:57:00,
2013-03-13 23:58:00,24.3,22.7,29.73,East,100,0.0,0.0,93,0.00,,,-99.99,1.0,HOBO +U30 +Weather +,2013-03-14 03:58:00,
2013-03-13 23:59:00,24.4,22.8,29.73,East,100,0.0,0.0,93,0.00,,,-99.99,1.0,HOBO +U30 +Weather +,2013-03-14 03:59:00,